Wetterdaten: Montag, 29.08.2016
Datum Zeit Temp. A. Temp. A. max Feuchte A. Luftdruck Regen Wind Richtung Richtung Sonnenschein ET UV Solar Taupunkt Windben
29.08.2016 00:00 18,2 C 18,2 C 80 % 1015,4 hPa 0,0 mm 1,8 km/h (1 Bft) S-SO 153 0 min 0,000 mm 0,0 UV-I 0 W/m 14,7 C 3,2 km/h (1 Bft)
29.08.2016 00:01 18,3 C 18,3 C 80 % 1015,4 hPa 0,0 mm 1,3 km/h (1 Bft) S-SO 153 0 min 0,000 mm 0,0 UV-I 0 W/m 14,8 C 3,2 km/h (1 Bft)
29.08.2016 00:03 18,4 C 18,4 C 79 % 1015,3 hPa 0,0 mm 0,4 km/h (0 Bft) S-SO 153 0 min 3,277 mm 0,0 UV-I 0 W/m 14,7 C 1,6 km/h (1 Bft)
29.08.2016 00:04 18,4 C 18,4 C 80 % 1015,4 hPa 0,0 mm 2,0 km/h (1 Bft) S-SO 153 0 min 0,000 mm 0,0 UV-I 0 W/m 14,9 C 3,2 km/h (1 Bft)
29.08.2016 00:05 18,6 C 18,6 C 79 % 1015,4 hPa 0,0 mm 2,6 km/h (1 Bft) S-SO 153 0 min 0,000 mm 0,0 UV-I 0 W/m 14,9 C 4,8 km/h (1 Bft)
29.08.2016 00:06 18,7 C 18,7 C 79 % 1015,4 hPa 0,0 mm 1,7 km/h (1 Bft) S-SO 153 0 min 0,000 mm 0,0 UV-I 0 W/m 15,0 C 3,2 km/h (1 Bft)
29.08.2016 00:07 18,7 C 18,7 C 79 % 1015,4 hPa 0,0 mm 0,3 km/h (0 Bft) S-SO 153 0 min 0,000 mm 0,0 UV-I 0 W/m 15,0 C 1,6 km/h (1 Bft)
29.08.2016 00:08 18,7 C 18,7 C 79 % 1015,4 hPa 0,0 mm 0,0 km/h (0 Bft) S-SO 153 0 min 0,000 mm 0,0 UV-I 0 W/m 15,0 C 0,0 km/h (0 Bft)
29.08.2016 00:09 18,7 C 18,7 C 78 % 1015,4 hPa 0,0 mm 0,0 km/h (0 Bft) S-SO 153 0 min 0,000 mm 0,0 UV-I 0 W/m 14,8 C 0,0 km/h (0 Bft)
29.08.2016 00:10 18,7 C 18,7 C 78 % 1015,4 hPa 0,0 mm 1,4 km/h (1 Bft) S-SO 153 0 min 0,000 mm 0,0 UV-I 0 W/m 14,8 C 3,2 km/h (1 Bft)
29.08.2016 00:11 18,8 C 18,8 C 77 % 1015,3 hPa 0,0 mm 2,5 km/h (1 Bft) S-SO 153 0 min 0,000 mm 0,0 UV-I 0 W/m 14,7 C 3,2 km/h (1 Bft)
29.08.2016 00:12 18,9 C 18,9 C 77 % 1015,4 hPa 0,0 mm 4,0 km/h (1 Bft) S-SO 166 0 min 0,000 mm 0,0 UV-I 0 W/m 14,8 C 6,4 km/h (2 Bft)
29.08.2016 00:13 19,0 C 19,0 C 77 % 1015,3 hPa 0,0 mm 4,0 km/h (1 Bft) S-SO 157 0 min 0,000 mm 0,0 UV-I 0 W/m 14,9 C 6,4 km/h (2 Bft)
29.08.2016 00:14 19,1 C 19,1 C 77 % 1015,3 hPa 0,0 mm 2,6 km/h (1 Bft) S-SO 157 0 min 0,000 mm 0,0 UV-I 0 W/m 15,0 C 4,8 km/h (1 Bft)
29.08.2016 00:15 19,1 C 19,1 C 77 % 1015,3 hPa 0,0 mm 0,2 km/h (0 Bft) S-SO 157 0 min 0,000 mm 0,0 UV-I 0 W/m 15,0 C 1,6 km/h (1 Bft)
29.08.2016 00:16 19,0 C 19,1 C 77 % 1015,4 hPa 0,0 mm 0,3 km/h (0 Bft) S-SO 157 0 min 0,000 mm 0,0 UV-I 0 W/m 14,9 C 1,6 km/h (1 Bft)
29.08.2016 00:17 18,9 C 19,0 C 77 % 1015,3 hPa 0,0 mm 2,0 km/h (1 Bft) S-SO 157 0 min 0,000 mm 0,0 UV-I 0 W/m 14,8 C 3,2 km/h (1 Bft)
29.08.2016 00:18 18,9 C 18,9 C 77 % 1015,3 hPa 0,0 mm 4,2 km/h (1 Bft) SO 142 0 min 0,000 mm 0,0 UV-I 0 W/m 14,8 C 4,8 km/h (1 Bft)
29.08.2016 00:19 18,9 C 18,9 C 77 % 1015,3 hPa 0,0 mm 3,2 km/h (1 Bft) S-SO 155 0 min 0,000 mm 0,0 UV-I 0 W/m 14,8 C 4,8 km/h (1 Bft)
29.08.2016 00:20 18,8 C 18,9 C 77 % 1015,3 hPa 0,0 mm 2,6 km/h (1 Bft) S-SO 155 0 min 0,000 mm 0,0 UV-I 0 W/m 14,7 C 4,8 km/h (1 Bft)
29.08.2016 00:21 18,8 C 18,8 C 77 % 1015,3 hPa 0,0 mm 2,7 km/h (1 Bft) S-SO 154 0 min 0,000 mm 0,0 UV-I 0 W/m 14,7 C 4,8 km/h (1 Bft)
29.08.2016 00:22 18,8 C 18,8 C 78 % 1015,2 hPa 0,0 mm 3,7 km/h (1 Bft) SO 139 0 min 0,000 mm 0,0 UV-I 0 W/m 14,9 C 4,8 km/h (1 Bft)
29.08.2016 00:23 18,8 C 18,8 C 77 % 1015,3 hPa 0,0 mm 2,5 km/h (1 Bft) SO 139 0 min 0,000 mm 0,0 UV-I 0 W/m 14,7 C 4,8 km/h (1 Bft)
29.08.2016 00:24 18,8 C 18,9 C 78 % 1015,3 hPa 0,0 mm 2,3 km/h (1 Bft) SO 139 0 min 0,000 mm 0,0 UV-I 0 W/m 14,9 C 3,2 km/h (1 Bft)
29.08.2016 00:25 18,9 C 18,9 C 77 % 1015,2 hPa 0,0 mm 3,3 km/h (1 Bft) SO 140 0 min 0,000 mm 0,0 UV-I 0 W/m 14,8 C 4,8 km/h (1 Bft)
29.08.2016 00:26 18,9 C 18,9 C 77 % 1015,3 hPa 0,0 mm 4,2 km/h (1 Bft) SO 131 0 min 0,000 mm 0,0 UV-I 0 W/m 14,8 C 6,4 km/h (2 Bft)
29.08.2016 00:27 18,9 C 18,9 C 77 % 1015,2 hPa 0,0 mm 3,2 km/h (1 Bft) SO 131 0 min 0,000 mm 0,0 UV-I 0 W/m 14,8 C 3,2 km/h (1 Bft)
29.08.2016 00:28 18,9 C 18,9 C 76 % 1015,3 hPa 0,0 mm 2,8 km/h (1 Bft) SO 131 0 min 0,000 mm 0,0 UV-I 0 W/m 14,6 C 4,8 km/h (1 Bft)
29.08.2016 00:29 18,9 C 19,0 C 77 % 1015,3 hPa 0,0 mm 3,2 km/h (1 Bft) SO 131 0 min 0,000 mm 0,0 UV-I 0 W/m 14,8 C 4,8 km/h (1 Bft)
29.08.2016 00:30 18,9 C 19,0 C 77 % 1015,3 hPa 0,0 mm 3,1 km/h (1 Bft) SO 136 0 min 0,000 mm 0,0 UV-I 0 W/m 14,8 C 4,8 km/h (1 Bft)
29.08.2016 00:31 18,9 C 19,0 C 77 % 1015,3 hPa 0,0 mm 3,5 km/h (1 Bft) SO 135 0 min 0,000 mm 0,0 UV-I 0 W/m 14,8 C 6,4 km/h (2 Bft)
29.08.2016 00:32 18,9 C 18,9 C 76 % 1015,3 hPa 0,0 mm 0,8 km/h (0 Bft) SO 135 0 min 0,000 mm 0,0 UV-I 0 W/m 14,6 C 3,2 km/h (1 Bft)
29.08.2016 00:33 18,9 C 18,9 C 77 % 1015,3 hPa 0,0 mm 0,4 km/h (0 Bft) SO 135 0 min 0,000 mm 0,0 UV-I 0 W/m 14,8 C 1,6 km/h (1 Bft)
29.08.2016 00:34 18,9 C 18,9 C 77 % 1015,3 hPa 0,0 mm 1,4 km/h (1 Bft) SO 135 0 min 0,000 mm 0,0 UV-I 0 W/m 14,8 C 3,2 km/h (1 Bft)
29.08.2016 00:35 18,9 C 18,9 C 76 % 1015,3 hPa 0,0 mm 0,2 km/h (0 Bft) SO 135 0 min 0,000 mm 0,0 UV-I 0 W/m 14,6 C 1,6 km/h (1 Bft)
29.08.2016 00:36 18,9 C 18,9 C 76 % 1015,3 hPa 0,0 mm 0,5 km/h (0 Bft) SO 135 0 min 0,000 mm 0,0 UV-I 0 W/m 14,6 C 3,2 km/h (1 Bft)
29.08.2016 00:37 18,8 C 18,9 C 77 % 1015,3 hPa 0,0 mm 0,9 km/h (0 Bft) SO 135 0 min 0,000 mm 0,0 UV-I 0 W/m 14,7 C 1,6 km/h (1 Bft)
29.08.2016 00:38 18,8 C 18,8 C 77 % 1015,3 hPa 0,0 mm 0,8 km/h (0 Bft) SO 135 0 min 0,000 mm 0,0 UV-I 0 W/m 14,7 C 1,6 km/h (1 Bft)
29.08.2016 00:39 18,7 C 18,8 C 77 % 1015,3 hPa 0,0 mm 2,3 km/h (1 Bft) SO 136 0 min 0,000 mm 0,0 UV-I 0 W/m 14,6 C 3,2 km/h (1 Bft)
29.08.2016 00:40 18,4 C 18,7 C 78 % 1015,3 hPa 0,0 mm 1,1 km/h (1 Bft) SO 136 0 min 0,000 mm 0,0 UV-I 0 W/m 14,5 C 1,6 km/h (1 Bft)
29.08.2016 00:41 18,2 C 18,4 C 78 % 1015,4 hPa 0,0 mm 0,4 km/h (0 Bft) SO 136 0 min 0,000 mm 0,0 UV-I 0 W/m 14,3 C 1,6 km/h (1 Bft)
29.08.2016 00:42 18,1 C 18,2 C 80 % 1015,4 hPa 0,0 mm 0,4 km/h (0 Bft) SO 135 0 min 0,000 mm 0,0 UV-I 0 W/m 14,6 C 1,6 km/h (1 Bft)
29.08.2016 00:43 17,9 C 18,1 C 80 % 1015,4 hPa 0,0 mm 0,0 km/h (0 Bft) SO 136 0 min 0,000 mm 0,0 UV-I 0 W/m 14,4 C 0,0 km/h (0 Bft)
29.08.2016 00:44 17,8 C 17,9 C 80 % 1015,4 hPa 0,0 mm 0,3 km/h (0 Bft) SO 136 0 min 0,000 mm 0,0 UV-I 0 W/m 14,3 C 1,6 km/h (1 Bft)
29.08.2016 00:45 17,7 C 17,8 C 81 % 1015,4 hPa 0,0 mm 0,0 km/h (0 Bft) SO 136 0 min 0,000 mm 0,0 UV-I 0 W/m 14,4 C 0,0 km/h (0 Bft)
29.08.2016 00:46 17,7 C 17,7 C 81 % 1015,4 hPa 0,0 mm 0,0 km/h (0 Bft) SO 136 0 min 0,000 mm 0,0 UV-I 0 W/m 14,4 C 0,0 km/h (0 Bft)
29.08.2016 00:47 17,6 C 17,7 C 82 % 1015,4 hPa 0,0 mm 0,0 km/h (0 Bft) SO 136 0 min 0,000 mm 0,0 UV-I 0 W/m 14,5 C 0,0 km/h (0 Bft)
29.08.2016 00:48 17,6 C 17,6 C 82 % 1015,4 hPa 0,0 mm 0,0 km/h (0 Bft) SO 136 0 min 0,000 mm 0,0 UV-I 0 W/m 14,5 C 0,0 km/h (0 Bft)
29.08.2016 00:49 17,6 C 17,6 C 82 % 1015,5 hPa 0,0 mm 1,4 km/h (1 Bft) SO 136 0 min 0,000 mm 0,0 UV-I 0 W/m 14,5 C 1,6 km/h (1 Bft)
29.08.2016 00:50 17,6 C 17,6 C 82 % 1015,5 hPa 0,0 mm 0,1 km/h (0 Bft) SO 135 0 min 0,000 mm 0,0 UV-I 0 W/m 14,5 C 1,6 km/h (1 Bft)
29.08.2016 00:51 17,6 C 17,6 C 82 % 1015,5 hPa 0,0 mm 0,6 km/h (0 Bft) SO 136 0 min 0,000 mm 0,0 UV-I 0 W/m 14,5 C 1,6 km/h (1 Bft)
29.08.2016 00:52 17,7 C 17,7 C 82 % 1015,4 hPa 0,0 mm 0,0 km/h (0 Bft) SO 136 0 min 0,000 mm 0,0 UV-I 0 W/m 14,6 C 0,0 km/h (0 Bft)
29.08.2016 00:53 17,7 C 17,7 C 82 % 1015,4 hPa 0,0 mm 0,0 km/h (0 Bft) SO 136 0 min 0,000 mm 0,0 UV-I 0 W/m 14,6 C 0,0 km/h (0 Bft)
29.08.2016 00:54 17,7 C 17,7 C 82 % 1015,5 hPa 0,0 mm 0,0 km/h (0 Bft) SO 136 0 min 0,000 mm 0,0 UV-I 0 W/m 14,6 C 0,0 km/h (0 Bft)
29.08.2016 00:55 17,7 C 17,7 C 82 % 1015,5 hPa 0,0 mm 0,0 km/h (0 Bft) SO 136 0 min 0,000 mm 0,0 UV-I 0 W/m 14,6 C 0,0 km/h (0 Bft)
29.08.2016 00:56 17,6 C 17,7 C 82 % 1015,5 hPa 0,0 mm 0,0 km/h (0 Bft) SO 136 0 min 0,000 mm 0,0 UV-I 0 W/m 14,5 C 0,0 km/h (0 Bft)
29.08.2016 00:57 17,6 C 17,7 C 82 % 1015,5 hPa 0,0 mm 0,0 km/h (0 Bft) SO 136 0 min 0,000 mm 0,0 UV-I 0 W/m 14,5 C 0,0 km/h (0 Bft)
29.08.2016 00:58 17,6 C 17,6 C 82 % 1015,5 hPa 0,0 mm 0,0 km/h (0 Bft) SO 136 0 min 0,000 mm 0,0 UV-I 0 W/m 14,5 C 0,0 km/h (0 Bft)
29.08.2016 00:59 17,6 C 17,6 C 82 % 1015,5 hPa 0,0 mm 0,0 km/h (0 Bft) SO 136 0 min 0,000 mm 0,0 UV-I 0 W/m 14,5 C 0,0 km/h (0 Bft)
29.08.2016 01:00 17,6 C 17,6 C 82 % 1015,5 hPa 0,0 mm 0,0 km/h (0 Bft) SO 136 0 min 0,000 mm 0,0 UV-I 0 W/m 14,5 C 0,0 km/h (0 Bft)
29.08.2016 01:01 17,5 C 17,6 C 82 % 1015,6 hPa 0,0 mm 0,0 km/h (0 Bft) SO 136 0 min 0,000 mm 0,0 UV-I 0 W/m 14,4 C 0,0 km/h (0 Bft)
29.08.2016 01:02 17,4 C 17,5 C 83 % 1015,5 hPa 0,0 mm 0,0 km/h (0 Bft) SO 136 0 min 0,000 mm 0,0 UV-I 0 W/m 14,5 C 0,0 km/h (0 Bft)
29.08.2016 01:03 17,4 C 17,4 C 83 % 1015,5 hPa 0,0 mm 0,0 km/h (0 Bft) SO 136 0 min 0,000 mm 0,0 UV-I 0 W/m 14,5 C 0,0 km/h (0 Bft)
29.08.2016 01:04 17,4 C 17,4 C 83 % 1015,5 hPa 0,0 mm 0,0 km/h (0 Bft) SO 136 0 min 0,000 mm 0,0 UV-I 0 W/m 14,5 C 0,0 km/h (0 Bft)
29.08.2016 01:05 17,3 C 17,4 C 82 % 1015,6 hPa 0,0 mm 0,0 km/h (0 Bft) SO 136 0 min 0,000 mm 0,0 UV-I 0 W/m 14,2 C 0,0 km/h (0 Bft)
29.08.2016 01:06 17,3 C 17,3 C 83 % 1015,6 hPa 0,0 mm 0,0 km/h (0 Bft) SO 136 0 min 0,000 mm 0,0 UV-I 0 W/m 14,4 C 0,0 km/h (0 Bft)
29.08.2016 01:07 17,3 C 17,3 C 83 % 1015,6 hPa 0,0 mm 0,0 km/h (0 Bft) SO 136 0 min 0,000 mm 0,0 UV-I 0 W/m 14,4 C 0,0 km/h (0 Bft)
29.08.2016 01:08 17,2 C 17,3 C 84 % 1015,6 hPa 0,0 mm 0,0 km/h (0 Bft) SO 136 0 min 0,000 mm 0,0 UV-I 0 W/m 14,5 C 0,0 km/h (0 Bft)
29.08.2016 01:09 17,1 C 17,2 C 84 % 1015,6 hPa 0,0 mm 0,0 km/h (0 Bft) SO 136 0 min 0,000 mm 0,0 UV-I 0 W/m 14,4 C 0,0 km/h (0 Bft)
29.08.2016 01:10 17,0 C 17,2 C 83 % 1015,6 hPa 0,0 mm 0,0 km/h (0 Bft) SO 136 0 min 0,000 mm 0,0 UV-I 0 W/m 14,1 C 0,0 km/h (0 Bft)
29.08.2016 01:11 16,9 C 17,0 C 84 % 1015,6 hPa 0,0 mm 0,0 km/h (0 Bft) SO 136 0 min 0,000 mm 0,0 UV-I 0 W/m 14,2 C 0,0 km/h (0 Bft)
29.08.2016 01:12 16,8 C 16,9 C 85 % 1015,6 hPa 0,0 mm 0,0 km/h (0 Bft) SO 136 0 min 0,000 mm 0,0 UV-I 0 W/m 14,3 C 0,0 km/h (0 Bft)
29.08.2016 01:13 16,8 C 16,8 C 85 % 1015,6 hPa 0,0 mm 0,0 km/h (0 Bft) SO 135 0 min 0,000 mm 0,0 UV-I 0 W/m 14,3 C 0,0 km/h (0 Bft)
29.08.2016 01:14 16,7 C 16,8 C 85 % 1015,7 hPa 0,0 mm 0,0 km/h (0 Bft) SO 136 0 min 0,000 mm 0,0 UV-I 0 W/m 14,2 C 0,0 km/h (0 Bft)
29.08.2016 01:15 16,7 C 16,7 C 85 % 1015,7 hPa 0,0 mm 0,0 km/h (0 Bft) SO 136 0 min 0,000 mm 0,0 UV-I 0 W/m 14,2 C 0,0 km/h (0 Bft)
29.08.2016 01:16 16,7 C 16,7 C 85 % 1015,6 hPa 0,0 mm 0,0 km/h (0 Bft) SO 136 0 min 0,000 mm 0,0 UV-I 0 W/m 14,2 C 0,0 km/h (0 Bft)
29.08.2016 01:17 16,6 C 16,7 C 85 % 1015,7 hPa 0,0 mm 0,0 km/h (0 Bft) SO 136 0 min 0,000 mm 0,0 UV-I 0 W/m 14,1 C 0,0 km/h (0 Bft)
29.08.2016 01:18 16,6 C 16,7 C 86 % 1015,6 hPa 0,0 mm 0,0 km/h (0 Bft) SO 136 0 min 0,000 mm 0,0 UV-I 0 W/m 14,2 C 0,0 km/h (0 Bft)
29.08.2016 01:19 16,6 C 16,7 C 86 % 1015,6 hPa 0,0 mm 0,0 km/h (0 Bft) SO 136 0 min 0,000 mm 0,0 UV-I 0 W/m 14,2 C 0,0 km/h (0 Bft)
29.08.2016 01:20 16,7 C 16,7 C 86 % 1015,6 hPa 0,0 mm 0,0 km/h (0 Bft) SO 136 0 min 0,000 mm 0,0 UV-I 0 W/m 14,3 C 0,0 km/h (0 Bft)
29.08.2016 01:21 16,7 C 16,7 C 85 % 1015,6 hPa 0,0 mm 0,0 km/h (0 Bft) SO 136 0 min 0,000 mm 0,0 UV-I 0 W/m 14,2 C 0,0 km/h (0 Bft)
29.08.2016 01:22 16,6 C 16,7 C 85 % 1015,6 hPa 0,0 mm 0,0 km/h (0 Bft) SO 136 0 min 0,000 mm 0,0 UV-I 0 W/m 14,1 C 0,0 km/h (0 Bft)
29.08.2016 01:23 16,6 C 16,6 C 86 % 1015,6 hPa 0,0 mm 0,0 km/h (0 Bft) SO 136 0 min 0,000 mm 0,0 UV-I 0 W/m 14,2 C 0,0 km/h (0 Bft)
29.08.2016 01:24 16,6 C 16,6 C 86 % 1015,7 hPa 0,0 mm 0,0 km/h (0 Bft) SO 136 0 min 0,000 mm 0,0 UV-I 0 W/m 14,2 C 0,0 km/h (0 Bft)
29.08.2016 01:25 16,4 C 16,6 C 86 % 1015,6 hPa 0,0 mm 0,0 km/h (0 Bft) SO 136 0 min 0,000 mm 0,0 UV-I 0 W/m 14,1 C 0,0 km/h (0 Bft)
29.08.2016 01:26 16,4 C 16,4 C 86 % 1015,6 hPa 0,0 mm 0,0 km/h (0 Bft) SO 136 0 min 0,000 mm 0,0 UV-I 0 W/m 14,1 C 0,0 km/h (0 Bft)
29.08.2016 01:27 16,4 C 16,4 C 86 % 1015,6 hPa 0,0 mm 0,0 km/h (0 Bft) SO 136 0 min 0,000 mm 0,0 UV-I 0 W/m 14,1 C 0,0 km/h (0 Bft)
29.08.2016 01:28 16,5 C 16,5 C 86 % 1015,6 hPa 0,0 mm 0,0 km/h (0 Bft) SO 136 0 min 0,000 mm 0,0 UV-I 0 W/m 14,1 C 0,0 km/h (0 Bft)
29.08.2016 01:29 16,4 C 16,5 C 86 % 1015,6 hPa 0,0 mm 0,0 km/h (0 Bft) SO 135 0 min 0,000 mm 0,0 UV-I 0 W/m 14,1 C 0,0 km/h (0 Bft)
29.08.2016 01:30 16,5 C 16,5 C 86 % 1015,6 hPa 0,0 mm 0,0 km/h (0 Bft) SO 136 0 min 0,000 mm 0,0 UV-I 0 W/m 14,1 C 0,0 km/h (0 Bft)
29.08.2016 01:31 16,5 C 16,5 C 86 % 1015,6 hPa 0,0 mm 0,0 km/h (0 Bft) SO 136 0 min 0,000 mm 0,0 UV-I 0 W/m 14,1 C 0,0 km/h (0 Bft)
29.08.2016 01:32 16,5 C 16,5 C 86 % 1015,6 hPa 0,0 mm 0,0 km/h (0 Bft) SO 136 0 min 0,000 mm 0,0 UV-I 0 W/m 14,1 C 0,0 km/h (0 Bft)
29.08.2016 01:33 16,5 C 16,5 C 86 % 1015,6 hPa 0,0 mm 0,0 km/h (0 Bft) SO 135 0 min 0,000 mm 0,0 UV-I 0 W/m 14,1 C 0,0 km/h (0 Bft)
29.08.2016 01:34 16,4 C 16,5 C 86 % 1015,7 hPa 0,0 mm 0,0 km/h (0 Bft) SO 136 0 min 0,000 mm 0,0 UV-I 0 W/m 14,1 C 0,0 km/h (0 Bft)
29.08.2016 01:35 16,3 C 16,4 C 86 % 1015,6 hPa 0,0 mm 0,0 km/h (0 Bft) SO 136 0 min 0,000 mm 0,0 UV-I 0 W/m 14,0 C 0,0 km/h (0 Bft)
29.08.2016 01:36 16,3 C 16,4 C 86 % 1015,7 hPa 0,0 mm 0,0 km/h (0 Bft) SO 135 0 min 0,000 mm 0,0 UV-I 0 W/m 14,0 C 0,0 km/h (0 Bft)
29.08.2016 01:37 16,3 C 16,3 C 86 % 1015,7 hPa 0,0 mm 0,0 km/h (0 Bft) SO 136 0 min 0,000 mm 0,0 UV-I 0 W/m 14,0 C 0,0 km/h (0 Bft)
29.08.2016 01:38 16,3 C 16,3 C 87 % 1015,7 hPa 0,0 mm 0,0 km/h (0 Bft) SO 136 0 min 0,000 mm 0,0 UV-I 0 W/m 14,1 C 0,0 km/h (0 Bft)
29.08.2016 01:39 16,2 C 16,3 C 87 % 1015,7 hPa 0,0 mm 0,0 km/h (0 Bft) SO 136 0 min 0,000 mm 0,0 UV-I 0 W/m 14,0 C 0,0 km/h (0 Bft)
29.08.2016 01:40 16,2 C 16,2 C 87 % 1015,7 hPa 0,0 mm 0,0 km/h (0 Bft) SO 136 0 min 0,000 mm 0,0 UV-I 0 W/m 14,0 C 0,0 km/h (0 Bft)
29.08.2016 01:41 16,2 C 16,2 C 87 % 1015,7 hPa 0,0 mm 0,0 km/h (0 Bft) SO 136 0 min 0,000 mm 0,0 UV-I 0 W/m 14,0 C 0,0 km/h (0 Bft)
29.08.2016 01:42 16,2 C 16,2 C 87 % 1015,7 hPa 0,0 mm 0,0 km/h (0 Bft) SO 136 0 min 0,000 mm 0,0 UV-I 0 W/m 14,0 C 0,0 km/h (0 Bft)
29.08.2016 01:43 16,1 C 16,2 C 87 % 1015,7 hPa 0,0 mm 0,0 km/h (0 Bft) SO 136 0 min 0,000 mm 0,0 UV-I 0 W/m 13,9 C 0,0 km/h (0 Bft)
29.08.2016 01:44 16,1 C 16,1 C 87 % 1015,7 hPa 0,0 mm 0,0 km/h (0 Bft) SO 136 0 min 0,000 mm 0,0 UV-I 0 W/m 13,9 C 0,0 km/h (0 Bft)
29.08.2016 01:45 16,2 C 16,2 C 87 % 1015,7 hPa 0,0 mm 0,0 km/h (0 Bft) SO 136 0 min 0,000 mm 0,0 UV-I 0 W/m 14,0 C 0,0 km/h (0 Bft)
29.08.2016 01:46 16,2 C 16,2 C 87 % 1015,7 hPa 0,0 mm 0,0 km/h (0 Bft) SO 136 0 min 0,000 mm 0,0 UV-I 0 W/m 14,0 C 0,0 km/h (0 Bft)
29.08.2016 01:47 16,2 C 16,2 C 87 % 1015,7 hPa 0,0 mm 0,0 km/h (0 Bft) SO 136 0 min 0,000 mm 0,0 UV-I 0 W/m 14,0 C 0,0 km/h (0 Bft)
29.08.2016 01:48 16,2 C 16,2 C 87 % 1015,7 hPa 0,0 mm 0,0 km/h (0 Bft) SO 136 0 min 0,000 mm 0,0 UV-I 0 W/m 14,0 C 0,0 km/h (0 Bft)
29.08.2016 01:49 16,2 C 16,2 C 87 % 1015,7 hPa 0,0 mm 0,0 km/h (0 Bft) SO 136 0 min 0,000 mm 0,0 UV-I 0 W/m 14,0 C 0,0 km/h (0 Bft)
29.08.2016 01:50 16,2 C 16,2 C 87 % 1015,8 hPa 0,0 mm 0,0 km/h (0 Bft) SO 136 0 min 0,000 mm 0,0 UV-I 0 W/m 14,0 C 0,0 km/h (0 Bft)
29.08.2016 01:51 16,2 C 16,2 C 87 % 1015,8 hPa 0,0 mm 0,0 km/h (0 Bft) SO 136 0 min 0,000 mm 0,0 UV-I 0 W/m 14,0 C 0,0 km/h (0 Bft)
29.08.2016 01:52 16,2 C 16,3 C 87 % 1015,8 hPa 0,0 mm 0,0 km/h (0 Bft) SO 135 0 min 0,000 mm 0,0 UV-I 0 W/m 14,0 C 0,0 km/h (0 Bft)
29.08.2016 01:53 16,2 C 16,2 C 87 % 1015,8 hPa 0,0 mm 0,0 km/h (0 Bft) SO 136 0 min 0,000 mm 0,0 UV-I 0 W/m 14,0 C 0,0 km/h (0 Bft)
29.08.2016 01:54 16,2 C 16,2 C 87 % 1015,8 hPa 0,0 mm 0,0 km/h (0 Bft) SO 136 0 min 0,000 mm 0,0 UV-I 0 W/m 14,0 C 0,0 km/h (0 Bft)
29.08.2016 01:55 16,2 C 16,2 C 86 % 1015,8 hPa 0,0 mm 0,0 km/h (0 Bft) SO 136 0 min 0,000 mm 0,0 UV-I 0 W/m 13,9 C 0,0 km/h (0 Bft)
29.08.2016 01:56 16,2 C 16,2 C 87 % 1015,8 hPa 0,0 mm 0,0 km/h (0 Bft) SO 135 0 min 0,000 mm 0,0 UV-I 0 W/m 14,0 C 0,0 km/h (0 Bft)
29.08.2016 01:57 16,2 C 16,2 C 87 % 1015,8 hPa 0,0 mm 0,0 km/h (0 Bft) SO 136 0 min 0,000 mm 0,0 UV-I 0 W/m 14,0 C 0,0 km/h (0 Bft)
29.08.2016 01:58 16,2 C 16,2 C 87 % 1015,8 hPa 0,0 mm 0,0 km/h (0 Bft) SO 136 0 min 0,000 mm 0,0 UV-I 0 W/m 14,0 C 0,0 km/h (0 Bft)
29.08.2016 01:59 16,2 C 16,2 C 87 % 1015,8 hPa 0,0 mm 0,0 km/h (0 Bft) SO 136 0 min 0,000 mm 0,0 UV-I 0 W/m 14,0 C 0,0 km/h (0 Bft)
29.08.2016 02:00 16,2 C 16,2 C 87 % 1015,8 hPa 0,0 mm 0,0 km/h (0 Bft) SO 136 0 min 0,000 mm 0,0 UV-I 0 W/m 14,0 C 0,0 km/h (0 Bft)
29.08.2016 02:01 16,2 C 16,2 C 87 % 1015,9 hPa 0,0 mm 0,0 km/h (0 Bft) SO 136 0 min 0,000 mm 0,0 UV-I 0 W/m 14,0 C 0,0 km/h (0 Bft)
29.08.2016 02:02 16,2 C 16,2 C 87 % 1015,9 hPa 0,0 mm 0,0 km/h (0 Bft) SO 136 0 min 0,000 mm 0,0 UV-I 0 W/m 14,0 C 0,0 km/h (0 Bft)
29.08.2016 02:03 16,3 C 16,3 C 87 % 1015,8 hPa 0,0 mm 0,0 km/h (0 Bft) SO 136 0 min 0,000 mm 0,0 UV-I 0 W/m 14,1 C 0,0 km/h (0 Bft)
29.08.2016 02:04 16,3 C 16,3 C 87 % 1015,8 hPa 0,0 mm 0,0 km/h (0 Bft) SO 136 0 min 0,000 mm 0,0 UV-I 0 W/m 14,1 C 0,0 km/h (0 Bft)
29.08.2016 02:05 16,3 C 16,3 C 87 % 1015,8 hPa 0,0 mm 0,0 km/h (0 Bft) SO 136 0 min 0,000 mm 0,0 UV-I 0 W/m 14,1 C 0,0 km/h (0 Bft)
29.08.2016 02:06 16,3 C 16,3 C 87 % 1015,9 hPa 0,0 mm 0,0 km/h (0 Bft) SO 136 0 min 0,000 mm 0,0 UV-I 0 W/m 14,1 C 0,0 km/h (0 Bft)
29.08.2016 02:07 16,3 C 16,3 C 87 % 1015,9 hPa 0,0 mm 0,8 km/h (0 Bft) SO 136 0 min 0,000 mm 0,0 UV-I 0 W/m 14,1 C 3,2 km/h (1 Bft)
29.08.2016 02:08 16,3 C 16,3 C 87 % 1016,0 hPa 0,0 mm 0,7 km/h (0 Bft) SO 136 0 min 0,000 mm 0,0 UV-I 0 W/m 14,1 C 3,2 km/h (1 Bft)
29.08.2016 02:09 16,3 C 16,3 C 87 % 1015,9 hPa 0,0 mm 0,2 km/h (0 Bft) SO 136 0 min 0,000 mm 0,0 UV-I 0 W/m 14,1 C 1,6 km/h (1 Bft)
29.08.2016 02:10 16,3 C 16,3 C 87 % 1015,9 hPa 0,0 mm 1,0 km/h (0 Bft) SO 136 0 min 0,000 mm 0,0 UV-I 0 W/m 14,1 C 1,6 km/h (1 Bft)
29.08.2016 02:11 16,3 C 16,3 C 87 % 1015,9 hPa 0,0 mm 0,5 km/h (0 Bft) SO 136 0 min 0,000 mm 0,0 UV-I 0 W/m 14,1 C 1,6 km/h (1 Bft)
29.08.2016 02:12 16,3 C 16,3 C 87 % 1015,9 hPa 0,0 mm 0,1 km/h (0 Bft) SO 136 0 min 0,000 mm 0,0 UV-I 0 W/m 14,1 C 1,6 km/h (1 Bft)
29.08.2016 02:13 16,4 C 16,4 C 87 % 1016,0 hPa 0,0 mm 2,4 km/h (1 Bft) SO 134 0 min 0,000 mm 0,0 UV-I 0 W/m 14,2 C 4,8 km/h (1 Bft)
29.08.2016 02:14 16,4 C 16,4 C 87 % 1016,0 hPa 0,0 mm 0,0 km/h (0 Bft) SO 134 0 min 0,000 mm 0,0 UV-I 0 W/m 14,2 C 0,0 km/h (0 Bft)
29.08.2016 02:15 16,3 C 16,4 C 87 % 1015,9 hPa 0,0 mm 0,3 km/h (0 Bft) SO 134 0 min 0,000 mm 0,0 UV-I 0 W/m 14,1 C 1,6 km/h (1 Bft)
29.08.2016 02:16 16,3 C 16,4 C 87 % 1015,9 hPa 0,0 mm 1,5 km/h (1 Bft) SO 134 0 min 0,000 mm 0,0 UV-I 0 W/m 14,1 C 3,2 km/h (1 Bft)
29.08.2016 02:17 16,3 C 16,3 C 87 % 1015,9 hPa 0,0 mm 1,0 km/h (0 Bft) SO 134 0 min 0,000 mm 0,0 UV-I 0 W/m 14,1 C 3,2 km/h (1 Bft)
29.08.2016 02:18 16,3 C 16,3 C 87 % 1015,9 hPa 0,0 mm 0,3 km/h (0 Bft) SO 134 0 min 0,000 mm 0,0 UV-I 0 W/m 14,1 C 1,6 km/h (1 Bft)
29.08.2016 02:19 16,3 C 16,3 C 87 % 1015,9 hPa 0,0 mm 0,0 km/h (0 Bft) SO 134 0 min 0,000 mm 0,0 UV-I 0 W/m 14,1 C 0,0 km/h (0 Bft)
29.08.2016 02:20 16,3 C 16,3 C 88 % 1015,9 hPa 0,0 mm 0,0 km/h (0 Bft) SO 134 0 min 0,000 mm 0,0 UV-I 0 W/m 14,3 C 0,0 km/h (0 Bft)
29.08.2016 02:21 16,3 C 16,3 C 87 % 1015,9 hPa 0,0 mm 0,0 km/h (0 Bft) SO 134 0 min 0,000 mm 0,0 UV-I 0 W/m 14,1 C 0,0 km/h (0 Bft)
29.08.2016 02:22 16,4 C 16,4 C 87 % 1015,9 hPa 0,0 mm 0,0 km/h (0 Bft) SO 135 0 min 0,000 mm 0,0 UV-I 0 W/m 14,2 C 0,0 km/h (0 Bft)
29.08.2016 02:23 16,7 C 16,7 C 86 % 1015,9 hPa 0,0 mm 0,0 km/h (0 Bft) SO 138 0 min 0,000 mm 0,0 UV-I 0 W/m 14,3 C 0,0 km/h (0 Bft)
29.08.2016 02:24 17,0 C 17,0 C 85 % 1015,9 hPa 0,0 mm 0,3 km/h (0 Bft) SW 219 0 min 0,000 mm 0,0 UV-I 0 W/m 14,5 C 3,2 km/h (1 Bft)
29.08.2016 02:25 17,3 C 17,3 C 83 % 1015,9 hPa 0,0 mm 1,4 km/h (1 Bft) SW 219 0 min 0,000 mm 0,0 UV-I 0 W/m 14,4 C 3,2 km/h (1 Bft)
29.08.2016 02:26 17,5 C 17,5 C 83 % 1015,9 hPa 0,0 mm 4,3 km/h (1 Bft) W-SW 250 0 min 0,000 mm 0,0 UV-I 0 W/m 14,6 C 9,7 km/h (2 Bft)
29.08.2016 02:27 17,7 C 17,7 C 82 % 1015,9 hPa 0,0 mm 3,8 km/h (1 Bft) W-SW 257 0 min 0,000 mm 0,0 UV-I 0 W/m 14,6 C 11,3 km/h (2 Bft)
29.08.2016 02:28 17,9 C 17,9 C 81 % 1015,9 hPa 0,0 mm 6,4 km/h (2 Bft) W-SW 250 0 min 0,000 mm 0,0 UV-I 0 W/m 14,6 C 12,9 km/h (3 Bft)
29.08.2016 02:29 18,2 C 18,2 C 81 % 1015,9 hPa 0,0 mm 6,3 km/h (2 Bft) W 279 0 min 0,000 mm 0,0 UV-I 0 W/m 14,9 C 11,3 km/h (2 Bft)
29.08.2016 02:30 18,3 C 18,3 C 80 % 1015,9 hPa 0,0 mm 6,3 km/h (2 Bft) W 271 0 min 0,000 mm 0,0 UV-I 0 W/m 14,8 C 14,5 km/h (3 Bft)
29.08.2016 02:31 18,4 C 18,4 C 80 % 1015,9 hPa 0,0 mm 8,2 km/h (2 Bft) SO 143 0 min 0,000 mm 0,0 UV-I 0 W/m 14,9 C 14,5 km/h (3 Bft)
29.08.2016 02:32 18,5 C 18,5 C 79 % 1015,9 hPa 0,0 mm 1,5 km/h (1 Bft) SW 230 0 min 0,000 mm 0,0 UV-I 0 W/m 14,8 C 6,4 km/h (2 Bft)
29.08.2016 02:33 18,6 C 18,6 C 78 % 1015,9 hPa 0,0 mm 4,0 km/h (1 Bft) SW 225 0 min 0,000 mm 0,0 UV-I 0 W/m 14,7 C 6,4 km/h (2 Bft)
29.08.2016 02:34 18,7 C 18,7 C 78 % 1015,8 hPa 0,0 mm 4,2 km/h (1 Bft) W 264 0 min 0,000 mm 0,0 UV-I 0 W/m 14,8 C 6,4 km/h (2 Bft)
29.08.2016 02:35 18,8 C 18,8 C 78 % 1015,8 hPa 0,0 mm 4,9 km/h (1 Bft) W 269 0 min 0,000 mm 0,0 UV-I 0 W/m 14,9 C 6,4 km/h (2 Bft)
29.08.2016 02:36 18,9 C 18,9 C 78 % 1015,8 hPa 0,0 mm 4,7 km/h (1 Bft) W 265 0 min 0,000 mm 0,0 UV-I 0 W/m 15,0 C 8,0 km/h (2 Bft)
29.08.2016 02:37 19,1 C 19,1 C 77 % 1015,9 hPa 0,0 mm 4,6 km/h (1 Bft) W-SW 251 0 min 0,000 mm 0,0 UV-I 0 W/m 15,0 C 8,0 km/h (2 Bft)
29.08.2016 02:38 19,2 C 19,2 C 76 % 1015,8 hPa 0,0 mm 3,9 km/h (1 Bft) SW 229 0 min 0,000 mm 0,0 UV-I 0 W/m 14,9 C 4,8 km/h (1 Bft)
29.08.2016 02:39 19,3 C 19,3 C 76 % 1015,8 hPa 0,0 mm 4,8 km/h (1 Bft) SW 234 0 min 0,000 mm 0,0 UV-I 0 W/m 15,0 C 8,0 km/h (2 Bft)
29.08.2016 02:40 19,4 C 19,4 C 75 % 1015,8 hPa 0,0 mm 5,8 km/h (2 Bft) W-NW 289 0 min 0,000 mm 0,0 UV-I 0 W/m 14,8 C 11,3 km/h (2 Bft)
29.08.2016 02:41 19,4 C 19,4 C 75 % 1015,8 hPa 0,0 mm 4,8 km/h (1 Bft) W-SW 252 0 min 0,000 mm 0,0 UV-I 0 W/m 14,8 C 11,3 km/h (2 Bft)
29.08.2016 02:42 19,5 C 19,5 C 75 % 1015,8 hPa 0,0 mm 3,5 km/h (1 Bft) S 185 0 min 0,000 mm 0,0 UV-I 0 W/m 14,9 C 6,4 km/h (2 Bft)
29.08.2016 02:43 19,6 C 19,6 C 75 % 1015,8 hPa 0,0 mm 6,3 km/h (2 Bft) W 263 0 min 0,000 mm 0,0 UV-I 0 W/m 15,0 C 11,3 km/h (2 Bft)
29.08.2016 02:44 19,7 C 19,7 C 74 % 1015,8 hPa 0,0 mm 4,3 km/h (1 Bft) SW 225 0 min 0,000 mm 0,0 UV-I 0 W/m 14,9 C 6,4 km/h (2 Bft)
29.08.2016 02:45 19,7 C 19,7 C 74 % 1015,8 hPa 0,0 mm 1,8 km/h (1 Bft) S-SW 195 0 min 0,000 mm 0,0 UV-I 0 W/m 14,9 C 4,8 km/h (1 Bft)
29.08.2016 02:46 19,8 C 19,8 C 74 % 1015,8 hPa 0,0 mm 2,6 km/h (1 Bft) S 181 0 min 0,000 mm 0,0 UV-I 0 W/m 15,0 C 6,4 km/h (2 Bft)
29.08.2016 02:47 19,8 C 19,8 C 73 % 1015,8 hPa 0,0 mm 1,7 km/h (1 Bft) S 184 0 min 0,000 mm 0,0 UV-I 0 W/m 14,8 C 3,2 km/h (1 Bft)
29.08.2016 02:48 19,9 C 19,9 C 73 % 1015,8 hPa 0,0 mm 3,6 km/h (1 Bft) S-SW 203 0 min 0,000 mm 0,0 UV-I 0 W/m 14,9 C 6,4 km/h (2 Bft)
29.08.2016 02:49 19,9 C 19,9 C 73 % 1015,8 hPa 0,0 mm 5,3 km/h (1 Bft) W-SW 244 0 min 0,000 mm 0,0 UV-I 0 W/m 14,9 C 9,7 km/h (2 Bft)
29.08.2016 02:50 19,9 C 20,0 C 73 % 1015,8 hPa 0,0 mm 5,4 km/h (1 Bft) S 178 0 min 0,000 mm 0,0 UV-I 0 W/m 14,9 C 8,0 km/h (2 Bft)
29.08.2016 02:51 20,0 C 20,0 C 73 % 1015,8 hPa 0,0 mm 2,6 km/h (1 Bft) W 259 0 min 0,000 mm 0,0 UV-I 0 W/m 15,0 C 4,8 km/h (1 Bft)
29.08.2016 02:52 20,0 C 20,0 C 73 % 1015,8 hPa 0,0 mm 5,6 km/h (1 Bft) SW 234 0 min 0,000 mm 0,0 UV-I 0 W/m 15,0 C 9,7 km/h (2 Bft)
29.08.2016 02:53 20,0 C 20,0 C 73 % 1015,8 hPa 0,0 mm 3,9 km/h (1 Bft) S-SW 198 0 min 0,000 mm 0,0 UV-I 0 W/m 15,0 C 6,4 km/h (2 Bft)
29.08.2016 02:54 20,1 C 20,1 C 73 % 1015,8 hPa 0,0 mm 5,2 km/h (1 Bft) SW 215 0 min 0,000 mm 0,0 UV-I 0 W/m 15,1 C 11,3 km/h (2 Bft)
29.08.2016 02:55 20,1 C 20,1 C 72 % 1015,8 hPa 0,0 mm 2,5 km/h (1 Bft) SW 222 0 min 0,000 mm 0,0 UV-I 0 W/m 14,9 C 4,8 km/h (1 Bft)
29.08.2016 02:56 20,1 C 20,1 C 72 % 1015,8 hPa 0,0 mm 5,5 km/h (1 Bft) S 190 0 min 0,000 mm 0,0 UV-I 0 W/m 14,9 C 11,3 km/h (2 Bft)
29.08.2016 02:57 20,1 C 20,1 C 72 % 1015,8 hPa 0,0 mm 4,4 km/h (1 Bft) S-SW 211 0 min 0,000 mm 0,0 UV-I 0 W/m 14,9 C 6,4 km/h (2 Bft)
29.08.2016 02:58 20,2 C 20,2 C 72 % 1015,7 hPa 0,0 mm 3,3 km/h (1 Bft) S 184 0 min 0,000 mm 0,0 UV-I 0 W/m 15,0 C 4,8 km/h (1 Bft)
29.08.2016 02:59 20,2 C 20,2 C 71 % 1015,7 hPa 0,0 mm 3,8 km/h (1 Bft) S-SW 204 0 min 0,000 mm 0,0 UV-I 0 W/m 14,8 C 6,4 km/h (2 Bft)
29.08.2016 03:00 20,2 C 20,2 C 73 % 1015,7 hPa 0,0 mm 4,4 km/h (1 Bft) S 176 0 min 0,000 mm 0,0 UV-I 0 W/m 15,2 C 8,0 km/h (2 Bft)
29.08.2016 03:01 20,2 C 20,2 C 72 % 1015,6 hPa 0,0 mm 2,9 km/h (1 Bft) S-SO 167 0 min 0,000 mm 0,0 UV-I 0 W/m 15,0 C 6,4 km/h (2 Bft)
29.08.2016 03:02 20,2 C 20,2 C 72 % 1015,6 hPa 0,0 mm 4,3 km/h (1 Bft) S 169 0 min 0,000 mm 0,0 UV-I 0 W/m 15,0 C 6,4 km/h (2 Bft)
29.08.2016 03:03 20,1 C 20,2 C 73 % 1015,6 hPa 0,0 mm 2,9 km/h (1 Bft) S-SW 205 0 min 0,000 mm 0,0 UV-I 0 W/m 15,1 C 6,4 km/h (2 Bft)
29.08.2016 03:04 19,9 C 20,1 C 74 % 1015,6 hPa 0,0 mm 4,0 km/h (1 Bft) S 176 0 min 0,000 mm 0,0 UV-I 0 W/m 15,1 C 8,0 km/h (2 Bft)
29.08.2016 03:05 19,9 C 19,9 C 73 % 1015,6 hPa 0,0 mm 4,9 km/h (1 Bft) S 184 0 min 0,000 mm 0,0 UV-I 0 W/m 14,9 C 11,3 km/h (2 Bft)
29.08.2016 03:06 19,9 C 19,9 C 73 % 1015,5 hPa 0,0 mm 4,4 km/h (1 Bft) SW 232 0 min 0,000 mm 0,0 UV-I 0 W/m 14,9 C 9,7 km/h (2 Bft)
29.08.2016 03:07 19,8 C 19,9 C 74 % 1015,5 hPa 0,0 mm 1,4 km/h (1 Bft) S 184 0 min 0,000 mm 0,0 UV-I 0 W/m 15,0 C 1,6 km/h (1 Bft)
29.08.2016 03:08 19,8 C 19,8 C 74 % 1015,6 hPa 0,0 mm 0,6 km/h (0 Bft) S 184 0 min 0,000 mm 0,0 UV-I 0 W/m 15,0 C 1,6 km/h (1 Bft)
29.08.2016 03:09 19,7 C 19,8 C 74 % 1015,5 hPa 0,0 mm 0,9 km/h (0 Bft) S 184 0 min 0,000 mm 0,0 UV-I 0 W/m 14,9 C 3,2 km/h (1 Bft)
29.08.2016 03:10 19,6 C 19,7 C 74 % 1015,5 hPa 0,0 mm 1,4 km/h (1 Bft) S 184 0 min 0,000 mm 0,0 UV-I 0 W/m 14,8 C 3,2 km/h (1 Bft)
29.08.2016 03:11 19,6 C 19,6 C 76 % 1015,5 hPa 0,0 mm 0,6 km/h (0 Bft) S 184 0 min 0,000 mm 0,0 UV-I 0 W/m 15,2 C 1,6 km/h (1 Bft)
29.08.2016 03:12 19,4 C 19,6 C 76 % 1015,5 hPa 0,0 mm 0,0 km/h (0 Bft) S 184 0 min 0,000 mm 0,0 UV-I 0 W/m 15,1 C 0,0 km/h (0 Bft)
29.08.2016 03:13 19,3 C 19,4 C 76 % 1015,5 hPa 0,0 mm 0,0 km/h (0 Bft) S 184 0 min 0,000 mm 0,0 UV-I 0 W/m 15,0 C 0,0 km/h (0 Bft)
29.08.2016 03:14 19,2 C 19,3 C 77 % 1015,5 hPa 0,0 mm 0,0 km/h (0 Bft) S 184 0 min 0,000 mm 0,0 UV-I 0 W/m 15,1 C 0,0 km/h (0 Bft)
29.08.2016 03:15 19,1 C 19,2 C 76 % 1015,5 hPa 0,0 mm 0,0 km/h (0 Bft) S 184 0 min 0,000 mm 0,0 UV-I 0 W/m 14,8 C 0,0 km/h (0 Bft)
29.08.2016 03:16 19,1 C 19,1 C 77 % 1015,5 hPa 0,0 mm 0,0 km/h (0 Bft) S 184 0 min 0,000 mm 0,0 UV-I 0 W/m 15,0 C 0,0 km/h (0 Bft)
29.08.2016 03:17 18,9 C 19,1 C 77 % 1015,5 hPa 0,0 mm 0,3 km/h (0 Bft) S 184 0 min 0,000 mm 0,0 UV-I 0 W/m 14,8 C 1,6 km/h (1 Bft)
29.08.2016 03:18 18,9 C 18,9 C 77 % 1015,5 hPa 0,0 mm 1,6 km/h (1 Bft) S 184 0 min 0,000 mm 0,0 UV-I 0 W/m 14,8 C 3,2 km/h (1 Bft)
29.08.2016 03:19 18,9 C 18,9 C 78 % 1015,4 hPa 0,0 mm 1,7 km/h (1 Bft) S 184 0 min 0,000 mm 0,0 UV-I 0 W/m 15,0 C 3,2 km/h (1 Bft)
29.08.2016 03:20 18,9 C 18,9 C 77 % 1015,5 hPa 0,0 mm 0,4 km/h (0 Bft) S 184 0 min 0,000 mm 0,0 UV-I 0 W/m 14,8 C 1,6 km/h (1 Bft)
29.08.2016 03:21 18,9 C 18,9 C 78 % 1015,4 hPa 0,0 mm 1,2 km/h (1 Bft) S 184 0 min 0,000 mm 0,0 UV-I 0 W/m 15,0 C 1,6 km/h (1 Bft)
29.08.2016 03:22 18,8 C 18,9 C 78 % 1015,4 hPa 0,0 mm 0,3 km/h (0 Bft) S 184 0 min 0,000 mm 0,0 UV-I 0 W/m 14,9 C 1,6 km/h (1 Bft)
29.08.2016 03:23 18,8 C 18,8 C 77 % 1015,4 hPa 0,0 mm 0,1 km/h (0 Bft) S 184 0 min 0,000 mm 0,0 UV-I 0 W/m 14,7 C 1,6 km/h (1 Bft)
29.08.2016 03:24 18,8 C 18,8 C 77 % 1015,4 hPa 0,0 mm 0,8 km/h (0 Bft) S 184 0 min 0,000 mm 0,0 UV-I 0 W/m 14,7 C 3,2 km/h (1 Bft)
29.08.2016 03:25 18,8 C 18,8 C 77 % 1015,4 hPa 0,0 mm 1,9 km/h (1 Bft) S 184 0 min 0,000 mm 0,0 UV-I 0 W/m 14,7 C 3,2 km/h (1 Bft)
29.08.2016 03:26 18,8 C 18,8 C 77 % 1015,4 hPa 0,0 mm 1,3 km/h (1 Bft) S 184 0 min 0,000 mm 0,0 UV-I 0 W/m 14,7 C 3,2 km/h (1 Bft)
29.08.2016 03:27 18,8 C 18,8 C 78 % 1015,3 hPa 0,0 mm 1,2 km/h (1 Bft) S 184 0 min 0,000 mm 0,0 UV-I 0 W/m 14,9 C 1,6 km/h (1 Bft)
29.08.2016 03:28 18,8 C 18,8 C 77 % 1015,4 hPa 0,0 mm 0,9 km/h (0 Bft) S 184 0 min 0,000 mm 0,0 UV-I 0 W/m 14,7 C 1,6 km/h (1 Bft)
29.08.2016 03:29 18,8 C 18,8 C 77 % 1015,4 hPa 0,0 mm 1,9 km/h (1 Bft) S 184 0 min 0,000 mm 0,0 UV-I 0 W/m 14,7 C 3,2 km/h (1 Bft)
29.08.2016 03:30 18,9 C 18,9 C 76 % 1015,4 hPa 0,0 mm 1,6 km/h (1 Bft) S 184 0 min 0,000 mm 0,0 UV-I 0 W/m 14,6 C 1,6 km/h (1 Bft)
29.08.2016 03:31 19,0 C 19,0 C 77 % 1015,4 hPa 0,0 mm 0,8 km/h (0 Bft) S 184 0 min 0,000 mm 0,0 UV-I 0 W/m 14,9 C 1,6 km/h (1 Bft)
29.08.2016 03:32 19,1 C 19,1 C 76 % 1015,4 hPa 0,0 mm 0,1 km/h (0 Bft) S 184 0 min 0,000 mm 0,0 UV-I 0 W/m 14,8 C 1,6 km/h (1 Bft)
29.08.2016 03:33 19,1 C 19,1 C 76 % 1015,4 hPa 0,0 mm 4,3 km/h (1 Bft) NW 319 0 min 0,000 mm 0,0 UV-I 0 W/m 14,8 C 6,4 km/h (2 Bft)
29.08.2016 03:34 19,0 C 19,1 C 77 % 1015,4 hPa 0,0 mm 3,1 km/h (1 Bft) NW 318 0 min 0,000 mm 0,0 UV-I 0 W/m 14,9 C 4,8 km/h (1 Bft)
29.08.2016 03:35 18,9 C 19,0 C 77 % 1015,4 hPa 0,0 mm 0,4 km/h (0 Bft) NW 318 0 min 0,000 mm 0,0 UV-I 0 W/m 14,8 C 1,6 km/h (1 Bft)
29.08.2016 03:36 18,9 C 18,9 C 78 % 1015,4 hPa 0,0 mm 0,0 km/h (0 Bft) NW 318 0 min 0,000 mm 0,0 UV-I 0 W/m 15,0 C 0,0 km/h (0 Bft)
29.08.2016 03:37 18,8 C 18,9 C 78 % 1015,4 hPa 0,0 mm 0,0 km/h (0 Bft) NW 318 0 min 0,000 mm 0,0 UV-I 0 W/m 14,9 C 0,0 km/h (0 Bft)
29.08.2016 03:38 18,6 C 18,8 C 79 % 1015,5 hPa 0,0 mm 0,0 km/h (0 Bft) NW 318 0 min 0,000 mm 0,0 UV-I 0 W/m 14,9 C 0,0 km/h (0 Bft)
29.08.2016 03:39 18,6 C 18,6 C 79 % 1015,5 hPa 0,0 mm 0,8 km/h (0 Bft) NW 318 0 min 0,000 mm 0,0 UV-I 0 W/m 14,9 C 1,6 km/h (1 Bft)
29.08.2016 03:40 18,5 C 18,6 C 80 % 1015,5 hPa 0,0 mm 2,8 km/h (1 Bft) W 281 0 min 0,000 mm 0,0 UV-I 0 W/m 15,0 C 4,8 km/h (1 Bft)
29.08.2016 03:41 18,4 C 18,5 C 79 % 1015,5 hPa 0,0 mm 2,0 km/h (1 Bft) W 281 0 min 0,000 mm 0,0 UV-I 0 W/m 14,7 C 3,2 km/h (1 Bft)
29.08.2016 03:42 18,4 C 18,4 C 79 % 1015,5 hPa 0,0 mm 1,1 km/h (1 Bft) W 281 0 min 0,000 mm 0,0 UV-I 0 W/m 14,7 C 1,6 km/h (1 Bft)
29.08.2016 03:43 18,5 C 18,5 C 79 % 1015,4 hPa 0,0 mm 0,7 km/h (0 Bft) W 281 0 min 0,000 mm 0,0 UV-I 0 W/m 14,8 C 1,6 km/h (1 Bft)
29.08.2016 03:44 18,6 C 18,6 C 78 % 1015,4 hPa 0,0 mm 0,9 km/h (0 Bft) W 281 0 min 0,000 mm 0,0 UV-I 0 W/m 14,7 C 1,6 km/h (1 Bft)
29.08.2016 03:45 18,6 C 18,7 C 78 % 1015,4 hPa 0,0 mm 1,6 km/h (1 Bft) W-SW 240 0 min 0,000 mm 0,0 UV-I 0 W/m 14,7 C 3,2 km/h (1 Bft)
29.08.2016 03:46 18,7 C 18,7 C 78 % 1015,5 hPa 0,0 mm 3,4 km/h (1 Bft) S-SW 196 0 min 0,000 mm 0,0 UV-I 0 W/m 14,8 C 4,8 km/h (1 Bft)
29.08.2016 03:47 18,8 C 18,8 C 77 % 1015,4 hPa 0,0 mm 2,5 km/h (1 Bft) S-SW 196 0 min 0,000 mm 0,0 UV-I 0 W/m 14,7 C 3,2 km/h (1 Bft)
29.08.2016 03:48 18,9 C 18,9 C 76 % 1015,5 hPa 0,0 mm 3,0 km/h (1 Bft) S-SW 196 0 min 0,000 mm 0,0 UV-I 0 W/m 14,6 C 4,8 km/h (1 Bft)
29.08.2016 03:49 19,1 C 19,1 C 76 % 1015,4 hPa 0,0 mm 3,0 km/h (1 Bft) S 189 0 min 0,000 mm 0,0 UV-I 0 W/m 14,8 C 4,8 km/h (1 Bft)
29.08.2016 03:50 19,1 C 19,1 C 76 % 1015,5 hPa 0,0 mm 3,4 km/h (1 Bft) S 184 0 min 0,000 mm 0,0 UV-I 0 W/m 14,8 C 6,4 km/h (2 Bft)
29.08.2016 03:51 19,2 C 19,2 C 75 % 1015,5 hPa 0,0 mm 4,8 km/h (1 Bft) S-SW 205 0 min 0,000 mm 0,0 UV-I 0 W/m 14,7 C 6,4 km/h (2 Bft)
29.08.2016 03:52 19,3 C 19,3 C 76 % 1015,5 hPa 0,0 mm 3,5 km/h (1 Bft) S-SW 196 0 min 0,000 mm 0,0 UV-I 0 W/m 15,0 C 4,8 km/h (1 Bft)
29.08.2016 03:53 19,3 C 19,3 C 75 % 1015,5 hPa 0,0 mm 3,0 km/h (1 Bft) S 188 0 min 0,000 mm 0,0 UV-I 0 W/m 14,8 C 4,8 km/h (1 Bft)
29.08.2016 03:54 19,3 C 19,3 C 76 % 1015,5 hPa 0,0 mm 1,2 km/h (1 Bft) S 188 0 min 0,000 mm 0,0 UV-I 0 W/m 15,0 C 1,6 km/h (1 Bft)
29.08.2016 03:55 19,3 C 19,3 C 76 % 1015,5 hPa 0,0 mm 1,6 km/h (1 Bft) S 188 0 min 0,000 mm 0,0 UV-I 0 W/m 15,0 C 3,2 km/h (1 Bft)
29.08.2016 03:56 19,2 C 19,3 C 77 % 1015,6 hPa 0,0 mm 0,4 km/h (0 Bft) S 188 0 min 0,000 mm 0,0 UV-I 0 W/m 15,1 C 1,6 km/h (1 Bft)
29.08.2016 03:57 19,1 C 19,2 C 78 % 1015,6 hPa 0,0 mm 0,5 km/h (0 Bft) S 188 0 min 0,000 mm 0,0 UV-I 0 W/m 15,2 C 1,6 km/h (1 Bft)
29.08.2016 03:58 18,8 C 19,1 C 79 % 1015,7 hPa 0,0 mm 0,0 km/h (0 Bft) S 188 0 min 0,000 mm 0,0 UV-I 0 W/m 15,1 C 0,0 km/h (0 Bft)
29.08.2016 03:59 18,6 C 18,8 C 80 % 1015,6 hPa 0,0 mm 0,9 km/h (0 Bft) S 188 0 min 0,000 mm 0,0 UV-I 0 W/m 15,1 C 1,6 km/h (1 Bft)
29.08.2016 04:00 18,4 C 18,6 C 81 % 1015,6 hPa 0,0 mm 0,4 km/h (0 Bft) S 188 0 min 0,000 mm 0,0 UV-I 0 W/m 15,1 C 1,6 km/h (1 Bft)
29.08.2016 04:01 18,3 C 18,4 C 81 % 1015,7 hPa 0,0 mm 0,1 km/h (0 Bft) S 188 0 min 0,000 mm 0,0 UV-I 0 W/m 15,0 C 1,6 km/h (1 Bft)
29.08.2016 04:02 18,3 C 18,3 C 81 % 1015,7 hPa 0,0 mm 0,8 km/h (0 Bft) S 185 0 min 0,000 mm 0,0 UV-I 0 W/m 15,0 C 1,6 km/h (1 Bft)
29.08.2016 04:03 18,2 C 18,3 C 81 % 1015,7 hPa 0,0 mm 1,5 km/h (1 Bft) S 185 0 min 0,000 mm 0,0 UV-I 0 W/m 14,9 C 3,2 km/h (1 Bft)
29.08.2016 04:04 18,2 C 18,2 C 81 % 1015,7 hPa 0,0 mm 1,8 km/h (1 Bft) S 185 0 min 0,000 mm 0,0 UV-I 0 W/m 14,9 C 3,2 km/h (1 Bft)
29.08.2016 04:05 18,3 C 18,3 C 80 % 1015,7 hPa 0,0 mm 0,0 km/h (0 Bft) S 185 0 min 0,000 mm 0,0 UV-I 0 W/m 14,8 C 0,0 km/h (0 Bft)
29.08.2016 04:06 18,3 C 18,3 C 81 % 1015,8 hPa 0,0 mm 0,0 km/h (0 Bft) S 185 0 min 0,000 mm 0,0 UV-I 0 W/m 15,0 C 0,0 km/h (0 Bft)
29.08.2016 04:07 18,4 C 18,4 C 81 % 1015,8 hPa 0,0 mm 0,4 km/h (0 Bft) S 186 0 min 0,000 mm 0,0 UV-I 0 W/m 15,1 C 1,6 km/h (1 Bft)
29.08.2016 04:08 18,3 C 18,4 C 82 % 1015,8 hPa 0,0 mm 1,7 km/h (1 Bft) S 186 0 min 0,000 mm 0,0 UV-I 0 W/m 15,2 C 3,2 km/h (1 Bft)
29.08.2016 04:09 18,2 C 18,3 C 82 % 1015,9 hPa 0,0 mm 0,7 km/h (0 Bft) S 186 0 min 0,000 mm 0,0 UV-I 0 W/m 15,1 C 1,6 km/h (1 Bft)
29.08.2016 04:10 18,2 C 18,2 C 83 % 1015,9 hPa 0,0 mm 0,8 km/h (0 Bft) S 186 0 min 0,000 mm 0,0 UV-I 0 W/m 15,3 C 1,6 km/h (1 Bft)
29.08.2016 04:11 18,1 C 18,2 C 83 % 1015,9 hPa 0,0 mm 0,2 km/h (0 Bft) S 186 0 min 0,000 mm 0,0 UV-I 0 W/m 15,2 C 1,6 km/h (1 Bft)
29.08.2016 04:12 17,9 C 18,1 C 84 % 1015,9 hPa 0,0 mm 0,6 km/h (0 Bft) S 186 0 min 0,000 mm 0,0 UV-I 0 W/m 15,2 C 1,6 km/h (1 Bft)
29.08.2016 04:13 17,8 C 17,9 C 84 % 1016,0 hPa 0,0 mm 0,8 km/h (0 Bft) S 188 0 min 0,000 mm 0,0 UV-I 0 W/m 15,1 C 3,2 km/h (1 Bft)
29.08.2016 04:14 17,8 C 17,8 C 84 % 1016,0 hPa 0,0 mm 0,7 km/h (0 Bft) S 188 0 min 0,000 mm 0,0 UV-I 0 W/m 15,1 C 1,6 km/h (1 Bft)
29.08.2016 04:15 17,7 C 17,8 C 85 % 1016,0 hPa 0,0 mm 1,8 km/h (1 Bft) W 271 0 min 0,000 mm 0,0 UV-I 0 W/m 15,1 C 3,2 km/h (1 Bft)
29.08.2016 04:16 17,7 C 17,7 C 85 % 1016,0 hPa 0,0 mm 0,9 km/h (0 Bft) S 184 0 min 0,000 mm 0,0 UV-I 0 W/m 15,1 C 3,2 km/h (1 Bft)
29.08.2016 04:17 17,6 C 17,7 C 85 % 1016,0 hPa 0,0 mm 0,7 km/h (0 Bft) S 188 0 min 0,000 mm 0,0 UV-I 0 W/m 15,0 C 3,2 km/h (1 Bft)
29.08.2016 04:18 17,6 C 17,6 C 86 % 1016,0 hPa 0,0 mm 0,3 km/h (0 Bft) S 188 0 min 0,000 mm 0,0 UV-I 0 W/m 15,2 C 1,6 km/h (1 Bft)
29.08.2016 04:19 17,6 C 17,6 C 86 % 1016,0 hPa 0,0 mm 1,1 km/h (1 Bft) S 188 0 min 0,000 mm 0,0 UV-I 0 W/m 15,2 C 1,6 km/h (1 Bft)
29.08.2016 04:20 17,6 C 17,6 C 86 % 1016,0 hPa 0,0 mm 0,1 km/h (0 Bft) S 188 0 min 0,000 mm 0,0 UV-I 0 W/m 15,2 C 1,6 km/h (1 Bft)
29.08.2016 04:21 17,5 C 17,6 C 84 % 1016,1 hPa 0,0 mm 1,4 km/h (1 Bft) S-SW 210 0 min 0,000 mm 0,0 UV-I 0 W/m 14,8 C 3,2 km/h (1 Bft)
29.08.2016 04:22 17,6 C 17,6 C 83 % 1016,0 hPa 0,0 mm 0,8 km/h (0 Bft) S-SW 213 0 min 0,000 mm 0,0 UV-I 0 W/m 14,7 C 1,6 km/h (1 Bft)
29.08.2016 04:23 17,7 C 17,7 C 82 % 1015,9 hPa 0,0 mm 2,8 km/h (1 Bft) S-SW 213 0 min 0,000 mm 0,0 UV-I 0 W/m 14,6 C 4,8 km/h (1 Bft)
29.08.2016 04:24 17,9 C 17,9 C 80 % 1015,9 hPa 0,0 mm 2,3 km/h (1 Bft) S 191 0 min 0,000 mm 0,0 UV-I 0 W/m 14,4 C 4,8 km/h (1 Bft)
29.08.2016 04:25 18,1 C 18,1 C 80 % 1015,9 hPa 0,0 mm 3,6 km/h (1 Bft) W-SW 240 0 min 0,000 mm 0,0 UV-I 0 W/m 14,6 C 4,8 km/h (1 Bft)
29.08.2016 04:26 18,2 C 18,2 C 80 % 1015,9 hPa 0,0 mm 3,5 km/h (1 Bft) S 187 0 min 0,000 mm 0,0 UV-I 0 W/m 14,7 C 4,8 km/h (1 Bft)
29.08.2016 04:27 18,4 C 18,4 C 78 % 1015,9 hPa 0,0 mm 1,8 km/h (1 Bft) W-SW 248 0 min 0,000 mm 0,0 UV-I 0 W/m 14,5 C 3,2 km/h (1 Bft)
29.08.2016 04:28 18,5 C 18,5 C 78 % 1015,8 hPa 0,0 mm 1,7 km/h (1 Bft) W 276 0 min 0,000 mm 0,0 UV-I 0 W/m 14,6 C 4,8 km/h (1 Bft)
29.08.2016 04:29 18,6 C 18,6 C 77 % 1015,8 hPa 0,0 mm 5,5 km/h (1 Bft) S-SO 167 0 min 0,000 mm 0,0 UV-I 0 W/m 14,5 C 8,0 km/h (2 Bft)
29.08.2016 04:30 18,6 C 18,7 C 79 % 1015,9 hPa 0,0 mm 0,8 km/h (0 Bft) SO 146 0 min 0,000 mm 0,0 UV-I 0 W/m 14,9 C 3,2 km/h (1 Bft)
29.08.2016 04:31 18,7 C 18,7 C 78 % 1015,8 hPa 0,0 mm 2,5 km/h (1 Bft) S-SO 162 0 min 0,000 mm 0,0 UV-I 0 W/m 14,8 C 6,4 km/h (2 Bft)
29.08.2016 04:32 18,8 C 18,8 C 77 % 1015,8 hPa 0,0 mm 1,0 km/h (0 Bft) S-SO 162 0 min 0,000 mm 0,0 UV-I 0 W/m 14,7 C 3,2 km/h (1 Bft)
29.08.2016 04:33 18,8 C 18,8 C 78 % 1015,8 hPa 0,0 mm 0,1 km/h (0 Bft) S-SO 162 0 min 0,000 mm 0,0 UV-I 0 W/m 14,9 C 1,6 km/h (1 Bft)
29.08.2016 04:34 18,8 C 18,8 C 78 % 1015,8 hPa 0,0 mm 3,5 km/h (1 Bft) SW 226 0 min 0,000 mm 0,0 UV-I 0 W/m 14,9 C 6,4 km/h (2 Bft)
29.08.2016 04:35 18,8 C 18,8 C 77 % 1015,8 hPa 0,0 mm 4,7 km/h (1 Bft) W-SW 248 0 min 0,000 mm 0,0 UV-I 0 W/m 14,7 C 6,4 km/h (2 Bft)
29.08.2016 04:36 18,8 C 18,8 C 77 % 1015,8 hPa 0,0 mm 2,7 km/h (1 Bft) S-SW 207 0 min 0,000 mm 0,0 UV-I 0 W/m 14,7 C 4,8 km/h (1 Bft)
29.08.2016 04:37 18,9 C 18,9 C 76 % 1015,7 hPa 0,0 mm 1,3 km/h (1 Bft) S-SW 208 0 min 0,000 mm 0,0 UV-I 0 W/m 14,6 C 1,6 km/h (1 Bft)
29.08.2016 04:38 19,0 C 19,0 C 77 % 1015,7 hPa 0,0 mm 1,5 km/h (1 Bft) S-SW 208 0 min 0,000 mm 0,0 UV-I 0 W/m 14,9 C 3,2 km/h (1 Bft)
29.08.2016 04:39 18,9 C 19,1 C 78 % 1015,7 hPa 0,0 mm 2,4 km/h (1 Bft) SW 232 0 min 0,000 mm 0,0 UV-I 0 W/m 15,0 C 3,2 km/h (1 Bft)
29.08.2016 04:40 18,8 C 18,9 C 79 % 1015,7 hPa 0,0 mm 6,8 km/h (2 Bft) W-SW 239 0 min 0,000 mm 0,0 UV-I 0 W/m 15,1 C 9,7 km/h (2 Bft)
29.08.2016 04:41 18,7 C 18,8 C 78 % 1015,6 hPa 0,0 mm 3,3 km/h (1 Bft) W 261 0 min 0,000 mm 0,0 UV-I 0 W/m 14,8 C 6,4 km/h (2 Bft)
29.08.2016 04:42 18,7 C 18,7 C 78 % 1015,6 hPa 0,0 mm 4,6 km/h (1 Bft) W 261 0 min 0,000 mm 0,0 UV-I 0 W/m 14,8 C 6,4 km/h (2 Bft)
29.08.2016 04:43 18,8 C 18,8 C 76 % 1015,7 hPa 0,0 mm 4,1 km/h (1 Bft) W-SW 253 0 min 0,000 mm 0,0 UV-I 0 W/m 14,5 C 6,4 km/h (2 Bft)
29.08.2016 04:44 18,8 C 18,9 C 77 % 1015,6 hPa 0,0 mm 3,1 km/h (1 Bft) SW 221 0 min 0,000 mm 0,0 UV-I 0 W/m 14,7 C 4,8 km/h (1 Bft)
29.08.2016 04:45 18,9 C 18,9 C 78 % 1015,6 hPa 0,0 mm 3,5 km/h (1 Bft) W 261 0 min 0,000 mm 0,0 UV-I 0 W/m 15,0 C 6,4 km/h (2 Bft)
29.08.2016 04:46 18,9 C 18,9 C 78 % 1015,6 hPa 0,0 mm 2,4 km/h (1 Bft) W 261 0 min 0,000 mm 0,0 UV-I 0 W/m 15,0 C 3,2 km/h (1 Bft)
29.08.2016 04:47 18,8 C 18,9 C 78 % 1015,6 hPa 0,0 mm 2,4 km/h (1 Bft) W 277 0 min 0,000 mm 0,0 UV-I 0 W/m 14,9 C 3,2 km/h (1 Bft)
29.08.2016 04:48 18,7 C 18,8 C 79 % 1015,5 hPa 0,0 mm 5,9 km/h (2 Bft) W 271 0 min 0,000 mm 0,0 UV-I 0 W/m 15,0 C 9,7 km/h (2 Bft)
29.08.2016 04:49 18,7 C 18,7 C 77 % 1015,5 hPa 0,0 mm 5,7 km/h (1 Bft) W 259 0 min 0,000 mm 0,0 UV-I 0 W/m 14,6 C 9,7 km/h (2 Bft)
29.08.2016 04:50 18,7 C 18,7 C 77 % 1015,5 hPa 0,0 mm 3,7 km/h (1 Bft) S 169 0 min 0,000 mm 0,0 UV-I 0 W/m 14,6 C 6,4 km/h (2 Bft)
29.08.2016 04:51 18,7 C 18,7 C 75 % 1015,5 hPa 0,0 mm 2,5 km/h (1 Bft) SW 236 0 min 0,000 mm 0,0 UV-I 0 W/m 14,2 C 4,8 km/h (1 Bft)
29.08.2016 04:52 18,8 C 18,8 C 76 % 1015,4 hPa 0,0 mm 3,4 km/h (1 Bft) S-SW 211 0 min 0,000 mm 0,0 UV-I 0 W/m 14,5 C 6,4 km/h (2 Bft)
29.08.2016 04:53 18,8 C 18,8 C 75 % 1015,4 hPa 0,0 mm 0,8 km/h (0 Bft) S-SW 211 0 min 0,000 mm 0,0 UV-I 0 W/m 14,3 C 1,6 km/h (1 Bft)
29.08.2016 04:54 18,9 C 18,9 C 74 % 1015,4 hPa 0,0 mm 1,0 km/h (0 Bft) SW 221 0 min 0,000 mm 0,0 UV-I 0 W/m 14,2 C 1,6 km/h (1 Bft)
29.08.2016 04:55 18,9 C 18,9 C 74 % 1015,4 hPa 0,0 mm 0,6 km/h (0 Bft) SW 221 0 min 0,000 mm 0,0 UV-I 0 W/m 14,2 C 1,6 km/h (1 Bft)
29.08.2016 04:56 18,9 C 18,9 C 76 % 1015,3 hPa 0,0 mm 0,9 km/h (0 Bft) SW 221 0 min 0,000 mm 0,0 UV-I 0 W/m 14,6 C 1,6 km/h (1 Bft)
29.08.2016 04:57 18,9 C 18,9 C 74 % 1015,3 hPa 0,0 mm 1,0 km/h (0 Bft) SW 220 0 min 0,000 mm 0,0 UV-I 0 W/m 14,2 C 1,6 km/h (1 Bft)
29.08.2016 04:58 18,9 C 18,9 C 74 % 1015,2 hPa 0,0 mm 2,4 km/h (1 Bft) W-SW 248 0 min 0,000 mm 0,0 UV-I 0 W/m 14,2 C 3,2 km/h (1 Bft)
29.08.2016 04:59 18,9 C 18,9 C 73 % 1015,2 hPa 0,0 mm 2,4 km/h (1 Bft) W-SW 248 0 min 0,000 mm 0,0 UV-I 0 W/m 13,9 C 4,8 km/h (1 Bft)
29.08.2016 05:00 18,8 C 18,9 C 74 % 1015,2 hPa 0,0 mm 2,5 km/h (1 Bft) W-SW 248 0 min 0,000 mm 0,0 UV-I 0 W/m 14,1 C 3,2 km/h (1 Bft)
29.08.2016 05:01 18,9 C 18,9 C 72 % 1015,3 hPa 0,0 mm 2,5 km/h (1 Bft) W-SW 247 0 min 0,000 mm 0,0 UV-I 0 W/m 13,7 C 3,2 km/h (1 Bft)
29.08.2016 05:02 18,9 C 18,9 C 72 % 1015,3 hPa 0,0 mm 2,9 km/h (1 Bft) W-SW 246 0 min 0,000 mm 0,0 UV-I 0 W/m 13,7 C 4,8 km/h (1 Bft)
29.08.2016 05:03 18,9 C 18,9 C 71 % 1015,4 hPa 0,0 mm 1,6 km/h (1 Bft) W-SW 246 0 min 0,000 mm 0,0 UV-I 0 W/m 13,5 C 1,6 km/h (1 Bft)
29.08.2016 05:04 19,0 C 19,0 C 72 % 1015,5 hPa 0,0 mm 1,7 km/h (1 Bft) W-SW 247 0 min 0,000 mm 0,0 UV-I 0 W/m 13,8 C 3,2 km/h (1 Bft)
29.08.2016 05:05 18,9 C 19,0 C 73 % 1015,5 hPa 0,0 mm 3,2 km/h (1 Bft) W-SW 250 0 min 0,000 mm 0,0 UV-I 0 W/m 13,9 C 4,8 km/h (1 Bft)
29.08.2016 05:06 18,9 C 18,9 C 72 % 1015,6 hPa 0,0 mm 2,5 km/h (1 Bft) W-SW 246 0 min 0,000 mm 0,0 UV-I 0 W/m 13,7 C 4,8 km/h (1 Bft)
29.08.2016 05:07 18,9 C 18,9 C 73 % 1015,6 hPa 0,0 mm 3,8 km/h (1 Bft) W-SW 238 0 min 0,000 mm 0,0 UV-I 0 W/m 13,9 C 6,4 km/h (2 Bft)
29.08.2016 05:08 18,8 C 18,9 C 73 % 1015,7 hPa 0,0 mm 2,1 km/h (1 Bft) W-SW 238 0 min 0,000 mm 0,0 UV-I 0 W/m 13,9 C 3,2 km/h (1 Bft)
29.08.2016 05:09 18,8 C 18,8 C 75 % 1015,7 hPa 0,0 mm 3,4 km/h (1 Bft) SW 228 0 min 0,000 mm 0,0 UV-I 0 W/m 14,3 C 4,8 km/h (1 Bft)
29.08.2016 05:10 18,6 C 18,8 C 76 % 1015,7 hPa 0,2 mm 1,3 km/h (1 Bft) SW 228 0 min 0,000 mm 0,0 UV-I 0 W/m 14,3 C 3,2 km/h (1 Bft)
29.08.2016 05:11 18,6 C 18,6 C 75 % 1015,8 hPa 0,0 mm 0,0 km/h (0 Bft) SW 228 0 min 0,000 mm 0,0 UV-I 0 W/m 14,1 C 0,0 km/h (0 Bft)
29.08.2016 05:12 18,4 C 18,6 C 77 % 1015,7 hPa 0,0 mm 0,0 km/h (0 Bft) SW 232 0 min 0,000 mm 0,0 UV-I 0 W/m 14,3 C 0,0 km/h (0 Bft)
29.08.2016 05:13 18,2 C 18,4 C 78 % 1015,7 hPa 0,0 mm 3,5 km/h (1 Bft) S-SW 200 0 min 0,000 mm 0,0 UV-I 0 W/m 14,3 C 6,4 km/h (2 Bft)
29.08.2016 05:14 18,1 C 18,2 C 77 % 1015,7 hPa 0,0 mm 2,3 km/h (1 Bft) SW 216 0 min 0,000 mm 0,0 UV-I 0 W/m 14,0 C 3,2 km/h (1 Bft)
29.08.2016 05:15 18,1 C 18,1 C 77 % 1015,6 hPa 0,0 mm 0,9 km/h (0 Bft) SW 216 0 min 0,000 mm 0,0 UV-I 0 W/m 14,0 C 3,2 km/h (1 Bft)
29.08.2016 05:16 18,1 C 18,1 C 76 % 1015,7 hPa 0,0 mm 2,5 km/h (1 Bft) W 259 0 min 0,000 mm 0,0 UV-I 0 W/m 13,8 C 6,4 km/h (2 Bft)
29.08.2016 05:17 18,1 C 18,1 C 77 % 1015,6 hPa 0,0 mm 2,8 km/h (1 Bft) S 171 0 min 0,000 mm 0,0 UV-I 0 W/m 14,0 C 6,4 km/h (2 Bft)
29.08.2016 05:18 17,9 C 18,1 C 81 % 1015,7 hPa 0,0 mm 1,7 km/h (1 Bft) S 189 0 min 0,000 mm 0,0 UV-I 0 W/m 14,6 C 3,2 km/h (1 Bft)
29.08.2016 05:19 17,7 C 17,9 C 82 % 1015,7 hPa 0,0 mm 0,6 km/h (0 Bft) S 189 0 min 0,000 mm 0,0 UV-I 0 W/m 14,6 C 1,6 km/h (1 Bft)
29.08.2016 05:20 17,6 C 17,7 C 83 % 1015,7 hPa 0,0 mm 0,1 km/h (0 Bft) SW 231 0 min 0,000 mm 0,0 UV-I 0 W/m 14,7 C 1,6 km/h (1 Bft)
29.08.2016 05:21 17,4 C 17,6 C 83 % 1015,8 hPa 0,0 mm 1,3 km/h (1 Bft) SW 229 0 min 0,000 mm 0,0 UV-I 0 W/m 14,5 C 3,2 km/h (1 Bft)
29.08.2016 05:22 17,3 C 17,4 C 84 % 1015,8 hPa 0,0 mm 6,1 km/h (2 Bft) O-SO 113 0 min 0,000 mm 0,0 UV-I 0 W/m 14,6 C 14,5 km/h (3 Bft)
29.08.2016 05:23 17,3 C 17,3 C 80 % 1015,8 hPa 0,0 mm 3,7 km/h (1 Bft) W-SW 252 0 min 0,000 mm 0,0 UV-I 0 W/m 13,8 C 6,4 km/h (2 Bft)
29.08.2016 05:24 17,3 C 17,3 C 82 % 1015,8 hPa 0,0 mm 3,3 km/h (1 Bft) S 185 0 min 0,000 mm 0,0 UV-I 0 W/m 14,2 C 6,4 km/h (2 Bft)
29.08.2016 05:25 17,3 C 17,3 C 83 % 1015,7 hPa 0,0 mm 3,5 km/h (1 Bft) S 180 0 min 0,000 mm 0,0 UV-I 0 W/m 14,4 C 8,0 km/h (2 Bft)
29.08.2016 05:26 17,2 C 17,3 C 84 % 1015,6 hPa 0,0 mm 5,9 km/h (2 Bft) O-SO 119 0 min 0,000 mm 0,0 UV-I 0 W/m 14,5 C 8,0 km/h (2 Bft)
29.08.2016 05:27 17,1 C 17,2 C 84 % 1015,6 hPa 0,0 mm 4,0 km/h (1 Bft) O-SO 118 0 min 0,000 mm 0,0 UV-I 0 W/m 14,4 C 4,8 km/h (1 Bft)
29.08.2016 05:28 17,0 C 17,1 C 84 % 1015,6 hPa 0,0 mm 3,9 km/h (1 Bft) O-SO 112 0 min 0,000 mm 0,0 UV-I 0 W/m 14,3 C 6,4 km/h (2 Bft)
29.08.2016 05:29 16,9 C 17,0 C 85 % 1015,6 hPa 0,0 mm 3,6 km/h (1 Bft) O-SO 112 0 min 0,000 mm 0,0 UV-I 0 W/m 14,4 C 4,8 km/h (1 Bft)
29.08.2016 05:30 16,8 C 16,9 C 85 % 1015,5 hPa 0,0 mm 2,9 km/h (1 Bft) O-SO 112 0 min 0,000 mm 0,0 UV-I 0 W/m 14,3 C 4,8 km/h (1 Bft)
29.08.2016 05:31 16,7 C 16,8 C 85 % 1015,5 hPa 0,0 mm 2,0 km/h (1 Bft) O-SO 111 0 min 0,000 mm 0,0 UV-I 0 W/m 14,2 C 3,2 km/h (1 Bft)
29.08.2016 05:32 16,6 C 16,7 C 87 % 1015,5 hPa 0,0 mm 0,3 km/h (0 Bft) O-SO 111 0 min 0,000 mm 0,0 UV-I 0 W/m 14,4 C 1,6 km/h (1 Bft)
29.08.2016 05:33 16,5 C 16,6 C 87 % 1015,3 hPa 0,0 mm 5,0 km/h (1 Bft) N-NO 14 0 min 0,000 mm 0,0 UV-I 0 W/m 14,3 C 8,0 km/h (2 Bft)
29.08.2016 05:34 16,6 C 16,6 C 86 % 1015,2 hPa 0,0 mm 5,5 km/h (1 Bft) O-NO 65 0 min 0,000 mm 0,0 UV-I 0 W/m 14,2 C 8,0 km/h (2 Bft)
29.08.2016 05:35 16,6 C 16,6 C 87 % 1015,1 hPa 0,2 mm 2,2 km/h (1 Bft) O-NO 59 0 min 0,000 mm 0,0 UV-I 0 W/m 14,4 C 3,2 km/h (1 Bft)
29.08.2016 05:36 16,6 C 16,6 C 86 % 1015,2 hPa 0,0 mm 1,7 km/h (1 Bft) NO 49 0 min 0,000 mm 0,0 UV-I 0 W/m 14,2 C 3,2 km/h (1 Bft)
29.08.2016 05:37 16,6 C 16,6 C 86 % 1015,2 hPa 0,2 mm 5,1 km/h (1 Bft) W 271 0 min 0,000 mm 0,0 UV-I 0 W/m 14,2 C 11,3 km/h (2 Bft)
29.08.2016 05:38 16,6 C 16,6 C 86 % 1015,3 hPa 0,0 mm 5,9 km/h (2 Bft) SW 224 0 min 0,000 mm 0,0 UV-I 0 W/m 14,2 C 9,7 km/h (2 Bft)
29.08.2016 05:39 16,6 C 16,7 C 87 % 1015,2 hPa 0,0 mm 3,1 km/h (1 Bft) S 180 0 min 0,000 mm 0,0 UV-I 0 W/m 14,4 C 4,8 km/h (1 Bft)
29.08.2016 05:40 16,6 C 16,6 C 87 % 1015,2 hPa 0,0 mm 1,5 km/h (1 Bft) S 180 0 min 0,000 mm 0,0 UV-I 0 W/m 14,4 C 3,2 km/h (1 Bft)
29.08.2016 05:41 16,5 C 16,6 C 87 % 1015,1 hPa 0,0 mm 2,8 km/h (1 Bft) S 175 0 min 0,000 mm 0,0 UV-I 0 W/m 14,3 C 4,8 km/h (1 Bft)
29.08.2016 05:42 16,4 C 16,5 C 88 % 1015,1 hPa 0,0 mm 2,8 km/h (1 Bft) S 175 0 min 0,000 mm 0,0 UV-I 0 W/m 14,4 C 3,2 km/h (1 Bft)
29.08.2016 05:43 16,3 C 16,4 C 88 % 1015,1 hPa 0,0 mm 1,5 km/h (1 Bft) S 175 0 min 0,000 mm 0,0 UV-I 0 W/m 14,3 C 3,2 km/h (1 Bft)
29.08.2016 05:44 16,2 C 16,3 C 89 % 1015,1 hPa 0,0 mm 2,3 km/h (1 Bft) O-NO 74 0 min 0,000 mm 0,0 UV-I 0 W/m 14,4 C 3,2 km/h (1 Bft)
29.08.2016 05:45 16,1 C 16,2 C 89 % 1015,1 hPa 0,0 mm 4,4 km/h (1 Bft) N-NO 26 0 min 0,000 mm 0,0 UV-I 0 W/m 14,3 C 8,0 km/h (2 Bft)
29.08.2016 05:46 16,1 C 16,1 C 89 % 1015,0 hPa 0,0 mm 2,3 km/h (1 Bft) O-NO 58 0 min 0,000 mm 0,0 UV-I 0 W/m 14,3 C 4,8 km/h (1 Bft)
29.08.2016 05:47 15,9 C 16,1 C 89 % 1015,0 hPa 0,0 mm 3,3 km/h (1 Bft) O 89 0 min 0,000 mm 0,0 UV-I 0 W/m 14,1 C 8,0 km/h (2 Bft)
29.08.2016 05:48 15,9 C 15,9 C 89 % 1014,9 hPa 0,0 mm 2,5 km/h (1 Bft) O-SO 103 0 min 0,000 mm 0,0 UV-I 0 W/m 14,1 C 3,2 km/h (1 Bft)
29.08.2016 05:49 15,9 C 15,9 C 90 % 1014,8 hPa 0,0 mm 1,9 km/h (1 Bft) S 184 0 min 0,000 mm 0,0 UV-I 0 W/m 14,3 C 4,8 km/h (1 Bft)
29.08.2016 05:50 15,8 C 15,9 C 90 % 1014,9 hPa 0,0 mm 2,3 km/h (1 Bft) S 175 0 min 0,000 mm 0,0 UV-I 0 W/m 14,2 C 4,8 km/h (1 Bft)
29.08.2016 05:51 15,8 C 15,8 C 90 % 1014,9 hPa 0,0 mm 1,2 km/h (1 Bft) S-SW 211 0 min 0,000 mm 0,0 UV-I 0 W/m 14,2 C 3,2 km/h (1 Bft)
29.08.2016 05:52 15,7 C 15,8 C 90 % 1014,9 hPa 0,2 mm 3,2 km/h (1 Bft) N 360 0 min 0,000 mm 0,0 UV-I 0 W/m 14,1 C 4,8 km/h (1 Bft)
29.08.2016 05:53 15,7 C 15,7 C 90 % 1015,0 hPa 0,0 mm 2,4 km/h (1 Bft) N-NW 347 0 min 0,000 mm 0,0 UV-I 0 W/m 14,1 C 4,8 km/h (1 Bft)
29.08.2016 05:54 15,7 C 15,7 C 90 % 1015,1 hPa 0,0 mm 4,3 km/h (1 Bft) W-NW 284 0 min 0,000 mm 0,0 UV-I 0 W/m 14,1 C 6,4 km/h (2 Bft)
29.08.2016 05:55 15,8 C 15,8 C 88 % 1015,1 hPa 0,0 mm 3,5 km/h (1 Bft) W-SW 249 0 min 0,000 mm 0,0 UV-I 0 W/m 13,8 C 4,8 km/h (1 Bft)
29.08.2016 05:56 15,8 C 15,8 C 88 % 1015,1 hPa 0,0 mm 6,7 km/h (2 Bft) S-SW 193 0 min 0,000 mm 0,0 UV-I 0 W/m 13,8 C 11,3 km/h (2 Bft)
29.08.2016 05:57 15,9 C 15,9 C 88 % 1015,2 hPa 0,0 mm 4,2 km/h (1 Bft) S-SW 205 0 min 0,000 mm 0,0 UV-I 0 W/m 13,9 C 9,7 km/h (2 Bft)
29.08.2016 05:58 15,9 C 15,9 C 88 % 1015,2 hPa 0,0 mm 4,2 km/h (1 Bft) O-SO 103 0 min 0,000 mm 0,0 UV-I 0 W/m 13,9 C 4,8 km/h (1 Bft)
29.08.2016 05:59 15,9 C 15,9 C 88 % 1015,2 hPa 0,0 mm 3,8 km/h (1 Bft) O-NO 61 0 min 0,000 mm 0,0 UV-I 0 W/m 13,9 C 6,4 km/h (2 Bft)
29.08.2016 06:00 15,9 C 15,9 C 88 % 1015,2 hPa 0,0 mm 3,0 km/h (1 Bft) NO 54 0 min 0,000 mm 0,0 UV-I 0 W/m 13,9 C 4,8 km/h (1 Bft)
29.08.2016 06:01 15,8 C 15,9 C 89 % 1015,2 hPa 0,0 mm 1,6 km/h (1 Bft) NO 54 0 min 0,000 mm 0,0 UV-I 0 W/m 14,0 C 3,2 km/h (1 Bft)
29.08.2016 06:03 15,8 C 15,8 C 89 % 1015,2 hPa 0,0 mm 1,3 km/h (1 Bft) NO 54 0 min 0,000 mm 0,0 UV-I 0 W/m 14,0 C 3,2 km/h (1 Bft)
29.08.2016 06:04 15,7 C 15,8 C 89 % 1015,3 hPa 0,0 mm 2,2 km/h (1 Bft) NW 307 0 min 0,000 mm 0,0 UV-I 0 W/m 13,9 C 3,2 km/h (1 Bft)
29.08.2016 06:05 15,7 C 15,7 C 90 % 1015,3 hPa 0,0 mm 2,3 km/h (1 Bft) NW 304 0 min 0,000 mm 0,0 UV-I 0 W/m 14,1 C 3,2 km/h (1 Bft)
29.08.2016 06:06 15,7 C 15,7 C 89 % 1015,3 hPa 0,0 mm 3,5 km/h (1 Bft) W-NW 292 0 min 0,000 mm 0,0 UV-I 0 W/m 13,9 C 4,8 km/h (1 Bft)
29.08.2016 06:07 15,7 C 15,7 C 89 % 1015,3 hPa 0,0 mm 2,3 km/h (1 Bft) W 271 0 min 0,000 mm 0,0 UV-I 0 W/m 13,9 C 3,2 km/h (1 Bft)
29.08.2016 06:08 15,7 C 15,7 C 89 % 1015,3 hPa 0,0 mm 2,5 km/h (1 Bft) W-NW 285 0 min 0,000 mm 0,0 UV-I 0 W/m 13,9 C 4,8 km/h (1 Bft)
29.08.2016 06:09 15,7 C 15,7 C 89 % 1015,2 hPa 0,0 mm 3,5 km/h (1 Bft) W 263 0 min 0,000 mm 0,0 UV-I 0 W/m 13,9 C 6,4 km/h (2 Bft)
29.08.2016 06:10 15,8 C 15,8 C 89 % 1015,2 hPa 0,0 mm 4,8 km/h (1 Bft) W-NW 299 0 min 0,000 mm 0,0 UV-I 0 W/m 14,0 C 6,4 km/h (2 Bft)
29.08.2016 06:11 15,8 C 15,8 C 89 % 1015,1 hPa 0,0 mm 2,7 km/h (1 Bft) W-NW 299 0 min 0,000 mm 0,0 UV-I 0 W/m 14,0 C 6,4 km/h (2 Bft)
29.08.2016 06:12 15,8 C 15,8 C 89 % 1015,2 hPa 0,0 mm 3,4 km/h (1 Bft) W 267 0 min 0,000 mm 0,0 UV-I 0 W/m 14,0 C 4,8 km/h (1 Bft)
29.08.2016 06:13 15,8 C 15,8 C 87 % 1015,2 hPa 0,0 mm 7,5 km/h (2 Bft) W-SW 254 0 min 0,000 mm 0,0 UV-I 0 W/m 13,6 C 11,3 km/h (2 Bft)
29.08.2016 06:14 15,9 C 16,0 C 87 % 1015,1 hPa 0,0 mm 6,0 km/h (2 Bft) W 263 0 min 0,000 mm 0,0 UV-I 0 W/m 13,7 C 9,7 km/h (2 Bft)
29.08.2016 06:15 16,1 C 16,1 C 86 % 1015,2 hPa 0,0 mm 4,8 km/h (1 Bft) W-SW 241 0 min 0,000 mm 0,0 UV-I 0 W/m 13,8 C 8,0 km/h (2 Bft)
29.08.2016 06:16 16,2 C 16,2 C 86 % 1015,1 hPa 0,0 mm 3,9 km/h (1 Bft) SW 217 0 min 0,000 mm 0,0 UV-I 0 W/m 13,9 C 6,4 km/h (2 Bft)
29.08.2016 06:17 16,2 C 16,2 C 86 % 1015,1 hPa 0,0 mm 4,1 km/h (1 Bft) S-SW 210 0 min 0,000 mm 0,0 UV-I 0 W/m 13,9 C 6,4 km/h (2 Bft)
29.08.2016 06:18 16,3 C 16,3 C 86 % 1015,1 hPa 0,0 mm 3,8 km/h (1 Bft) SW 227 0 min 0,000 mm 0,0 UV-I 0 W/m 14,0 C 4,8 km/h (1 Bft)
29.08.2016 06:19 16,3 C 16,3 C 86 % 1015,0 hPa 0,0 mm 3,8 km/h (1 Bft) W-SW 246 0 min 0,000 mm 0,0 UV-I 0 W/m 14,0 C 6,4 km/h (2 Bft)
29.08.2016 06:20 16,2 C 16,3 C 86 % 1015,0 hPa 0,0 mm 1,7 km/h (1 Bft) W-SW 246 0 min 0,000 mm 0,0 UV-I 0 W/m 13,9 C 3,2 km/h (1 Bft)
29.08.2016 06:21 16,2 C 16,2 C 87 % 1015,0 hPa 0,0 mm 1,3 km/h (1 Bft) NW 311 0 min 0,000 mm 0,0 UV-I 0 W/m 14,0 C 4,8 km/h (1 Bft)
29.08.2016 06:22 16,1 C 16,2 C 88 % 1015,0 hPa 0,0 mm 3,2 km/h (1 Bft) W-NW 283 0 min 0,000 mm 0,0 UV-I 0 W/m 14,1 C 4,8 km/h (1 Bft)
29.08.2016 06:23 15,9 C 16,1 C 88 % 1015,0 hPa 0,0 mm 5,1 km/h (1 Bft) S-SO 166 0 min 0,000 mm 0,0 UV-I 0 W/m 13,9 C 9,7 km/h (2 Bft)
29.08.2016 06:24 15,8 C 15,9 C 88 % 1015,0 hPa 0,0 mm 1,9 km/h (1 Bft) W-SW 239 0 min 0,000 mm 0,0 UV-I 0 W/m 13,8 C 6,4 km/h (2 Bft)
29.08.2016 06:25 15,8 C 15,8 C 87 % 1015,1 hPa 0,0 mm 1,4 km/h (1 Bft) W-SW 239 0 min 0,000 mm 0,0 UV-I 0 W/m 13,6 C 3,2 km/h (1 Bft)
29.08.2016 06:26 15,8 C 15,8 C 88 % 1015,0 hPa 0,0 mm 5,3 km/h (1 Bft) W-SW 246 0 min 0,000 mm 0,0 UV-I 0 W/m 13,8 C 8,0 km/h (2 Bft)
29.08.2016 06:27 15,8 C 15,8 C 87 % 1015,0 hPa 0,0 mm 3,8 km/h (1 Bft) W 264 0 min 0,000 mm 0,0 UV-I 0 W/m 13,6 C 6,4 km/h (2 Bft)
29.08.2016 06:28 15,9 C 15,9 C 86 % 1015,1 hPa 0,0 mm 7,0 km/h (2 Bft) SW 223 0 min 0,000 mm 0,0 UV-I 0 W/m 13,6 C 11,3 km/h (2 Bft)
29.08.2016 06:29 16,1 C 16,1 C 85 % 1015,1 hPa 0,0 mm 7,8 km/h (2 Bft) W-SW 251 0 min 0,000 mm 0,0 UV-I 0 W/m 13,6 C 11,3 km/h (2 Bft)
29.08.2016 06:30 16,1 C 16,1 C 86 % 1015,2 hPa 0,0 mm 2,8 km/h (1 Bft) S-SW 206 0 min 0,000 mm 0,0 UV-I 0 W/m 13,8 C 4,8 km/h (1 Bft)
29.08.2016 06:31 16,2 C 16,2 C 86 % 1015,2 hPa 0,0 mm 1,5 km/h (1 Bft) S-SW 206 0 min 0,000 mm 0,0 UV-I 0 W/m 13,9 C 3,2 km/h (1 Bft)
29.08.2016 06:32 16,2 C 16,2 C 86 % 1015,2 hPa 0,0 mm 2,2 km/h (1 Bft) S-SO 166 0 min 0,000 mm 0,0 UV-I 0 W/m 13,9 C 6,4 km/h (2 Bft)
29.08.2016 06:33 16,1 C 16,2 C 86 % 1015,2 hPa 0,0 mm 2,0 km/h (1 Bft) S 178 0 min 0,000 mm 0,0 UV-I 0 W/m 13,8 C 6,4 km/h (2 Bft)
29.08.2016 06:34 16,1 C 16,1 C 86 % 1015,3 hPa 0,0 mm 3,3 km/h (1 Bft) NW 306 0 min 0,000 mm 0,0 UV-I 0 W/m 13,8 C 8,0 km/h (2 Bft)
29.08.2016 06:35 16,1 C 16,1 C 85 % 1015,2 hPa 0,0 mm 5,1 km/h (1 Bft) S 188 0 min 0,000 mm 0,0 UV-I 0 W/m 13,6 C 9,7 km/h (2 Bft)
29.08.2016 06:36 16,2 C 16,2 C 85 % 1015,2 hPa 0,0 mm 4,1 km/h (1 Bft) W-NW 284 0 min 0,000 mm 0,0 UV-I 0 W/m 13,7 C 6,4 km/h (2 Bft)
29.08.2016 06:37 16,3 C 16,3 C 86 % 1015,2 hPa 0,0 mm 2,1 km/h (1 Bft) SW 232 0 min 0,000 mm 0,0 UV-I 0 W/m 14,0 C 4,8 km/h (1 Bft)
29.08.2016 06:38 16,2 C 16,3 C 87 % 1015,2 hPa 0,0 mm 0,5 km/h (0 Bft) SW 232 0 min 0,000 mm 0,0 UV-I 5 W/m 14,0 C 1,6 km/h (1 Bft)
29.08.2016 06:39 16,2 C 16,2 C 86 % 1015,2 hPa 0,0 mm 0,9 km/h (0 Bft) SW 232 0 min 0,000 mm 0,0 UV-I 5 W/m 13,9 C 3,2 km/h (1 Bft)
29.08.2016 06:40 16,1 C 16,2 C 87 % 1015,2 hPa 0,0 mm 0,7 km/h (0 Bft) SW 232 0 min 0,000 mm 0,0 UV-I 5 W/m 13,9 C 3,2 km/h (1 Bft)
29.08.2016 06:41 16,1 C 16,1 C 86 % 1015,2 hPa 0,0 mm 0,1 km/h (0 Bft) SW 232 0 min 0,000 mm 0,0 UV-I 5 W/m 13,8 C 1,6 km/h (1 Bft)
29.08.2016 06:42 16,0 C 16,1 C 88 % 1015,2 hPa 0,0 mm 0,2 km/h (0 Bft) SW 232 0 min 0,000 mm 0,0 UV-I 5 W/m 14,0 C 1,6 km/h (1 Bft)
29.08.2016 06:43 15,8 C 16,0 C 88 % 1015,2 hPa 0,0 mm 1,0 km/h (0 Bft) S 184 0 min 0,000 mm 0,0 UV-I 5 W/m 13,8 C 1,6 km/h (1 Bft)
29.08.2016 06:44 15,8 C 15,8 C 89 % 1015,2 hPa 0,0 mm 1,2 km/h (1 Bft) W-SW 255 0 min 0,000 mm 0,0 UV-I 5 W/m 14,0 C 3,2 km/h (1 Bft)
29.08.2016 06:45 15,8 C 15,8 C 88 % 1015,2 hPa 0,0 mm 6,0 km/h (2 Bft) W-NW 289 0 min 0,000 mm 0,0 UV-I 5 W/m 13,8 C 8,0 km/h (2 Bft)
29.08.2016 06:46 15,9 C 15,9 C 87 % 1015,2 hPa 0,0 mm 3,1 km/h (1 Bft) S-SW 198 0 min 0,000 mm 0,0 UV-I 5 W/m 13,7 C 9,7 km/h (2 Bft)
29.08.2016 06:47 15,9 C 15,9 C 87 % 1015,3 hPa 0,0 mm 0,9 km/h (0 Bft) S-SW 198 0 min 0,000 mm 0,0 UV-I 5 W/m 13,7 C 3,2 km/h (1 Bft)
29.08.2016 06:48 15,9 C 15,9 C 88 % 1015,3 hPa 0,0 mm 0,0 km/h (0 Bft) S-SW 198 0 min 0,000 mm 0,0 UV-I 5 W/m 13,9 C 0,0 km/h (0 Bft)
29.08.2016 06:49 15,9 C 15,9 C 89 % 1015,2 hPa 0,0 mm 0,0 km/h (0 Bft) S-SW 198 0 min 0,000 mm 0,0 UV-I 5 W/m 14,1 C 0,0 km/h (0 Bft)
29.08.2016 06:50 15,8 C 15,9 C 88 % 1015,3 hPa 0,0 mm 4,1 km/h (1 Bft) W 268 0 min 0,000 mm 0,0 UV-I 5 W/m 13,8 C 4,8 km/h (1 Bft)
29.08.2016 06:51 15,9 C 15,9 C 88 % 1015,3 hPa 0,0 mm 4,5 km/h (1 Bft) W 274 0 min 0,000 mm 0,0 UV-I 5 W/m 13,9 C 9,7 km/h (2 Bft)
29.08.2016 06:52 16,0 C 16,0 C 87 % 1015,3 hPa 0,0 mm 4,6 km/h (1 Bft) W 275 0 min 0,000 mm 0,0 UV-I 7 W/m 13,8 C 6,4 km/h (2 Bft)
29.08.2016 06:53 16,1 C 16,1 C 87 % 1015,3 hPa 0,0 mm 6,2 km/h (2 Bft) W 269 0 min 0,000 mm 0,0 UV-I 7 W/m 13,9 C 9,7 km/h (2 Bft)
29.08.2016 06:54 16,2 C 16,2 C 86 % 1015,3 hPa 0,0 mm 6,2 km/h (2 Bft) W 260 0 min 0,000 mm 0,0 UV-I 7 W/m 13,9 C 6,4 km/h (2 Bft)
29.08.2016 06:55 16,3 C 16,3 C 85 % 1015,3 hPa 0,0 mm 4,5 km/h (1 Bft) W 269 0 min 0,000 mm 0,0 UV-I 7 W/m 13,8 C 6,4 km/h (2 Bft)
29.08.2016 06:56 16,3 C 16,3 C 85 % 1015,3 hPa 0,0 mm 3,7 km/h (1 Bft) W 266 0 min 0,000 mm 0,0 UV-I 9 W/m 13,8 C 4,8 km/h (1 Bft)
29.08.2016 06:57 16,4 C 16,4 C 85 % 1015,4 hPa 0,0 mm 2,8 km/h (1 Bft) W 261 0 min 0,000 mm 0,0 UV-I 9 W/m 13,9 C 4,8 km/h (1 Bft)
29.08.2016 06:58 16,4 C 16,4 C 84 % 1015,4 hPa 0,0 mm 3,0 km/h (1 Bft) W 261 0 min 0,000 mm 0,0 UV-I 9 W/m 13,7 C 4,8 km/h (1 Bft)
29.08.2016 06:59 16,5 C 16,5 C 86 % 1015,4 hPa 0,0 mm 1,7 km/h (1 Bft) W 261 0 min 0,000 mm 0,0 UV-I 9 W/m 14,1 C 3,2 km/h (1 Bft)
29.08.2016 07:00 16,4 C 16,5 C 86 % 1015,4 hPa 0,0 mm 0,1 km/h (0 Bft) W 261 0 min 0,000 mm 0,0 UV-I 11 W/m 14,1 C 1,6 km/h (1 Bft)
29.08.2016 07:01 16,3 C 16,4 C 86 % 1015,4 hPa 0,0 mm 0,0 km/h (0 Bft) W 261 0 min 0,000 mm 0,0 UV-I 11 W/m 14,0 C 0,0 km/h (0 Bft)
29.08.2016 07:03 16,2 C 16,3 C 87 % 1015,4 hPa 0,0 mm 0,2 km/h (0 Bft) W 261 0 min 0,000 mm 0,0 UV-I 12 W/m 14,0 C 1,6 km/h (1 Bft)
29.08.2016 07:04 16,1 C 16,2 C 87 % 1015,4 hPa 0,0 mm 0,0 km/h (0 Bft) W 261 0 min 0,000 mm 0,0 UV-I 14 W/m 13,9 C 0,0 km/h (0 Bft)
29.08.2016 07:05 16,1 C 16,1 C 87 % 1015,4 hPa 0,0 mm 0,0 km/h (0 Bft) W 261 0 min 0,000 mm 0,0 UV-I 14 W/m 13,9 C 0,0 km/h (0 Bft)
29.08.2016 07:06 16,1 C 16,1 C 87 % 1015,5 hPa 0,0 mm 0,0 km/h (0 Bft) W 261 0 min 0,000 mm 0,0 UV-I 16 W/m 13,9 C 0,0 km/h (0 Bft)
29.08.2016 07:07 16,0 C 16,1 C 87 % 1015,5 hPa 0,0 mm 1,1 km/h (1 Bft) W 261 0 min 0,000 mm 0,0 UV-I 16 W/m 13,8 C 3,2 km/h (1 Bft)
29.08.2016 07:08 15,9 C 16,0 C 88 % 1015,5 hPa 0,0 mm 0,3 km/h (0 Bft) W 261 0 min 0,000 mm 0,0 UV-I 18 W/m 13,9 C 1,6 km/h (1 Bft)
29.08.2016 07:09 15,9 C 16,0 C 88 % 1015,5 hPa 0,0 mm 2,9 km/h (1 Bft) W-SW 255 0 min 0,000 mm 0,0 UV-I 19 W/m 13,9 C 4,8 km/h (1 Bft)
29.08.2016 07:10 15,9 C 15,9 C 88 % 1015,5 hPa 0,0 mm 3,4 km/h (1 Bft) W-SW 256 0 min 0,000 mm 0,0 UV-I 21 W/m 13,9 C 4,8 km/h (1 Bft)
29.08.2016 07:11 15,9 C 15,9 C 88 % 1015,5 hPa 0,0 mm 1,9 km/h (1 Bft) W-SW 256 0 min 0,000 mm 0,0 UV-I 21 W/m 13,9 C 3,2 km/h (1 Bft)
29.08.2016 07:12 15,9 C 15,9 C 88 % 1015,5 hPa 0,0 mm 7,7 km/h (2 Bft) W-SW 257 0 min 0,000 mm 0,0 UV-I 23 W/m 13,9 C 12,9 km/h (3 Bft)
29.08.2016 07:13 15,9 C 15,9 C 87 % 1015,5 hPa 0,0 mm 6,8 km/h (2 Bft) W 268 0 min 0,000 mm 0,0 UV-I 26 W/m 13,7 C 11,3 km/h (2 Bft)
29.08.2016 07:14 15,9 C 15,9 C 87 % 1015,6 hPa 0,0 mm 3,6 km/h (1 Bft) W 265 0 min 0,000 mm 0,0 UV-I 28 W/m 13,7 C 4,8 km/h (1 Bft)
29.08.2016 07:15 15,9 C 16,0 C 88 % 1015,6 hPa 0,0 mm 3,1 km/h (1 Bft) W-NW 282 0 min 0,000 mm 0,0 UV-I 30 W/m 13,9 C 4,8 km/h (1 Bft)
29.08.2016 07:16 16,0 C 16,0 C 88 % 1015,6 hPa 0,0 mm 3,8 km/h (1 Bft) SW 234 0 min 0,000 mm 0,0 UV-I 32 W/m 14,0 C 4,8 km/h (1 Bft)
29.08.2016 07:17 16,1 C 16,1 C 87 % 1015,6 hPa 0,0 mm 1,8 km/h (1 Bft) SW 234 0 min 0,000 mm 0,0 UV-I 35 W/m 13,9 C 3,2 km/h (1 Bft)
29.08.2016 07:18 16,1 C 16,1 C 87 % 1015,6 hPa 0,0 mm 0,1 km/h (0 Bft) SW 234 0 min 0,000 mm 0,0 UV-I 37 W/m 13,9 C 1,6 km/h (1 Bft)
29.08.2016 07:19 16,1 C 16,1 C 87 % 1015,6 hPa 0,0 mm 0,8 km/h (0 Bft) SW 214 0 min 0,000 mm 0,0 UV-I 40 W/m 13,9 C 1,6 km/h (1 Bft)
29.08.2016 07:20 16,1 C 16,1 C 88 % 1015,6 hPa 0,0 mm 1,4 km/h (1 Bft) SW 216 0 min 0,000 mm 0,0 UV-I 47 W/m 14,1 C 1,6 km/h (1 Bft)
29.08.2016 07:21 16,0 C 16,1 C 88 % 1015,6 hPa 0,0 mm 2,7 km/h (1 Bft) W 265 0 min 0,000 mm 0,0 UV-I 49 W/m 14,0 C 6,4 km/h (2 Bft)
29.08.2016 07:22 16,0 C 16,0 C 88 % 1015,6 hPa 0,0 mm 4,6 km/h (1 Bft) W-NW 285 0 min 0,000 mm 0,0 UV-I 51 W/m 14,0 C 6,4 km/h (2 Bft)
29.08.2016 07:23 16,1 C 16,1 C 87 % 1015,6 hPa 0,0 mm 3,0 km/h (1 Bft) W 279 0 min 0,000 mm 0,0 UV-I 53 W/m 13,9 C 3,2 km/h (1 Bft)
29.08.2016 07:24 16,2 C 16,2 C 87 % 1015,6 hPa 0,0 mm 3,2 km/h (1 Bft) W-SW 255 0 min 0,000 mm 0,0 UV-I 53 W/m 14,0 C 4,8 km/h (1 Bft)
29.08.2016 07:25 16,3 C 16,3 C 87 % 1015,6 hPa 0,0 mm 3,0 km/h (1 Bft) W 268 0 min 0,000 mm 0,0 UV-I 54 W/m 14,1 C 4,8 km/h (1 Bft)
29.08.2016 07:26 16,4 C 16,4 C 84 % 1015,6 hPa 0,0 mm 3,3 km/h (1 Bft) W 268 0 min 0,000 mm 0,0 UV-I 58 W/m 13,7 C 4,8 km/h (1 Bft)
29.08.2016 07:27 16,5 C 16,5 C 86 % 1015,6 hPa 0,0 mm 2,6 km/h (1 Bft) W 268 0 min 0,000 mm 0,0 UV-I 63 W/m 14,1 C 4,8 km/h (1 Bft)
29.08.2016 07:28 16,6 C 16,6 C 86 % 1015,6 hPa 0,0 mm 2,2 km/h (1 Bft) W 268 0 min 0,000 mm 0,0 UV-I 69 W/m 14,2 C 3,2 km/h (1 Bft)
29.08.2016 07:29 16,6 C 16,6 C 86 % 1015,6 hPa 0,0 mm 2,6 km/h (1 Bft) W 269 0 min 0,000 mm 0,0 UV-I 74 W/m 14,2 C 3,2 km/h (1 Bft)
29.08.2016 07:30 16,6 C 16,6 C 86 % 1015,6 hPa 0,0 mm 2,3 km/h (1 Bft) W 269 0 min 0,000 mm 0,0 UV-I 79 W/m 14,2 C 4,8 km/h (1 Bft)
29.08.2016 07:31 16,7 C 16,7 C 86 % 1015,6 hPa 0,0 mm 3,0 km/h (1 Bft) W-SW 255 0 min 0,000 mm 0,0 UV-I 84 W/m 14,3 C 6,4 km/h (2 Bft)
29.08.2016 07:32 16,7 C 16,7 C 84 % 1015,6 hPa 0,0 mm 2,7 km/h (1 Bft) W 272 0 min 0,000 mm 0,0 UV-I 88 W/m 14,0 C 4,8 km/h (1 Bft)
29.08.2016 07:33 16,9 C 16,9 C 84 % 1015,6 hPa 0,0 mm 4,9 km/h (1 Bft) W 267 0 min 0,000 mm 0,0 UV-I 90 W/m 14,2 C 6,4 km/h (2 Bft)
29.08.2016 07:34 16,9 C 16,9 C 83 % 1015,6 hPa 0,0 mm 4,9 km/h (1 Bft) W 278 1 min 0,000 mm 0,0 UV-I 93 W/m 14,0 C 6,4 km/h (2 Bft)
29.08.2016 07:35 17,0 C 17,0 C 84 % 1015,6 hPa 0,0 mm 5,2 km/h (1 Bft) W 271 1 min 0,000 mm 0,0 UV-I 95 W/m 14,3 C 6,4 km/h (2 Bft)
29.08.2016 07:36 17,0 C 17,1 C 84 % 1015,6 hPa 0,0 mm 2,9 km/h (1 Bft) W-SW 246 1 min 0,000 mm 0,0 UV-I 95 W/m 14,3 C 4,8 km/h (1 Bft)
29.08.2016 07:37 17,1 C 17,1 C 85 % 1015,6 hPa 0,0 mm 2,5 km/h (1 Bft) W 259 1 min 0,000 mm 0,0 UV-I 97 W/m 14,6 C 3,2 km/h (1 Bft)
29.08.2016 07:38 17,1 C 17,1 C 84 % 1015,6 hPa 0,0 mm 1,9 km/h (1 Bft) W 259 0 min 0,000 mm 0,0 UV-I 95 W/m 14,4 C 3,2 km/h (1 Bft)
29.08.2016 07:39 17,1 C 17,1 C 86 % 1015,6 hPa 0,0 mm 3,3 km/h (1 Bft) W 263 0 min 0,000 mm 0,0 UV-I 91 W/m 14,7 C 4,8 km/h (1 Bft)
29.08.2016 07:40 17,1 C 17,1 C 86 % 1015,5 hPa 0,0 mm 2,1 km/h (1 Bft) W 263 0 min 0,000 mm 0,0 UV-I 90 W/m 14,7 C 3,2 km/h (1 Bft)
29.08.2016 07:41 17,1 C 17,1 C 85 % 1015,5 hPa 0,0 mm 0,0 km/h (0 Bft) W 263 0 min 0,000 mm 0,0 UV-I 86 W/m 14,6 C 0,0 km/h (0 Bft)
29.08.2016 07:42 17,0 C 17,1 C 87 % 1015,6 hPa 0,0 mm 1,1 km/h (1 Bft) W 263 0 min 0,000 mm 0,0 UV-I 83 W/m 14,8 C 3,2 km/h (1 Bft)
29.08.2016 07:43 16,9 C 17,0 C 87 % 1015,6 hPa 0,0 mm 2,9 km/h (1 Bft) W 263 0 min 0,000 mm 0,0 UV-I 76 W/m 14,7 C 4,8 km/h (1 Bft)
29.08.2016 07:44 17,0 C 17,0 C 86 % 1015,6 hPa 0,0 mm 3,1 km/h (1 Bft) W 261 0 min 0,000 mm 0,0 UV-I 70 W/m 14,6 C 4,8 km/h (1 Bft)
29.08.2016 07:45 17,0 C 17,0 C 85 % 1015,6 hPa 0,0 mm 1,9 km/h (1 Bft) W 262 0 min 0,000 mm 0,0 UV-I 67 W/m 14,5 C 3,2 km/h (1 Bft)
29.08.2016 07:46 17,0 C 17,0 C 85 % 1015,7 hPa 0,0 mm 3,8 km/h (1 Bft) W-SW 257 0 min 0,000 mm 0,0 UV-I 63 W/m 14,5 C 4,8 km/h (1 Bft)
29.08.2016 07:47 17,1 C 17,1 C 85 % 1015,7 hPa 0,0 mm 4,3 km/h (1 Bft) W 269 0 min 0,000 mm 0,0 UV-I 60 W/m 14,6 C 6,4 km/h (2 Bft)
29.08.2016 07:48 17,0 C 17,1 C 84 % 1015,7 hPa 0,0 mm 2,6 km/h (1 Bft) W-NW 286 0 min 0,000 mm 0,0 UV-I 56 W/m 14,3 C 4,8 km/h (1 Bft)
29.08.2016 07:49 17,1 C 17,1 C 85 % 1015,7 hPa 0,0 mm 0,6 km/h (0 Bft) W-NW 286 0 min 0,000 mm 0,0 UV-I 49 W/m 14,6 C 1,6 km/h (1 Bft)
29.08.2016 07:50 17,0 C 17,1 C 85 % 1015,7 hPa 0,0 mm 2,9 km/h (1 Bft) W-NW 286 0 min 0,000 mm 0,0 UV-I 46 W/m 14,5 C 4,8 km/h (1 Bft)
29.08.2016 07:51 17,0 C 17,0 C 85 % 1015,7 hPa 0,0 mm 3,4 km/h (1 Bft) W-NW 285 0 min 0,000 mm 0,0 UV-I 44 W/m 14,5 C 4,8 km/h (1 Bft)
29.08.2016 07:52 17,0 C 17,0 C 85 % 1015,7 hPa 0,0 mm 1,6 km/h (1 Bft) W-NW 285 0 min 0,000 mm 0,0 UV-I 42 W/m 14,5 C 3,2 km/h (1 Bft)
29.08.2016 07:53 16,9 C 17,0 C 86 % 1015,8 hPa 0,0 mm 3,4 km/h (1 Bft) W-NW 284 0 min 0,000 mm 0,0 UV-I 37 W/m 14,5 C 4,8 km/h (1 Bft)
29.08.2016 07:54 16,9 C 16,9 C 86 % 1015,8 hPa 0,0 mm 3,7 km/h (1 Bft) W 273 0 min 0,000 mm 0,0 UV-I 35 W/m 14,5 C 4,8 km/h (1 Bft)
29.08.2016 07:55 16,9 C 16,9 C 86 % 1015,8 hPa 0,0 mm 3,2 km/h (1 Bft) W 281 0 min 0,000 mm 0,0 UV-I 32 W/m 14,5 C 4,8 km/h (1 Bft)
29.08.2016 07:56 16,8 C 16,9 C 86 % 1015,8 hPa 0,0 mm 2,8 km/h (1 Bft) W 271 0 min 0,000 mm 0,0 UV-I 28 W/m 14,4 C 4,8 km/h (1 Bft)
29.08.2016 07:57 16,8 C 16,8 C 86 % 1015,8 hPa 0,0 mm 2,1 km/h (1 Bft) W 266 0 min 0,000 mm 0,0 UV-I 26 W/m 14,4 C 4,8 km/h (1 Bft)
29.08.2016 07:58 16,7 C 16,8 C 87 % 1015,8 hPa 0,0 mm 1,5 km/h (1 Bft) W 266 0 min 0,000 mm 0,0 UV-I 25 W/m 14,5 C 3,2 km/h (1 Bft)
29.08.2016 07:59 16,7 C 16,7 C 87 % 1015,8 hPa 0,0 mm 2,9 km/h (1 Bft) W 266 0 min 0,000 mm 0,0 UV-I 23 W/m 14,5 C 4,8 km/h (1 Bft)
29.08.2016 08:00 16,7 C 16,7 C 86 % 1015,8 hPa 0,0 mm 2,1 km/h (1 Bft) W 266 0 min 0,000 mm 0,0 UV-I 21 W/m 14,3 C 3,2 km/h (1 Bft)
29.08.2016 08:01 16,7 C 16,7 C 86 % 1015,8 hPa 0,0 mm 1,0 km/h (0 Bft) W 266 0 min 0,000 mm 0,0 UV-I 19 W/m 14,3 C 3,2 km/h (1 Bft)
29.08.2016 08:02 16,7 C 16,7 C 86 % 1015,8 hPa 0,0 mm 1,3 km/h (1 Bft) W 266 0 min 0,000 mm 0,0 UV-I 19 W/m 14,3 C 3,2 km/h (1 Bft)
29.08.2016 08:04 16,6 C 16,7 C 87 % 1015,8 hPa 0,0 mm 1,4 km/h (1 Bft) W 267 0 min 0,000 mm 0,0 UV-I 18 W/m 14,4 C 3,2 km/h (1 Bft)
29.08.2016 08:05 16,6 C 16,6 C 86 % 1015,8 hPa 0,0 mm 2,4 km/h (1 Bft) W 267 0 min 0,000 mm 0,0 UV-I 16 W/m 14,2 C 3,2 km/h (1 Bft)
29.08.2016 08:06 16,6 C 16,6 C 87 % 1015,8 hPa 0,0 mm 2,3 km/h (1 Bft) W 267 0 min 0,000 mm 0,0 UV-I 16 W/m 14,4 C 3,2 km/h (1 Bft)
29.08.2016 08:07 16,6 C 16,6 C 87 % 1015,8 hPa 0,0 mm 2,1 km/h (1 Bft) W 267 0 min 0,000 mm 0,0 UV-I 14 W/m 14,4 C 3,2 km/h (1 Bft)
29.08.2016 08:08 16,6 C 16,6 C 87 % 1015,8 hPa 0,0 mm 3,2 km/h (1 Bft) W 265 0 min 0,000 mm 0,0 UV-I 14 W/m 14,4 C 4,8 km/h (1 Bft)
29.08.2016 08:09 16,5 C 16,6 C 88 % 1015,9 hPa 0,0 mm 3,2 km/h (1 Bft) W 263 0 min 0,000 mm 0,0 UV-I 14 W/m 14,5 C 3,2 km/h (1 Bft)
29.08.2016 08:10 16,4 C 16,5 C 87 % 1015,9 hPa 0,0 mm 3,4 km/h (1 Bft) W-SW 241 0 min 0,000 mm 0,0 UV-I 14 W/m 14,2 C 4,8 km/h (1 Bft)
29.08.2016 08:11 16,4 C 16,4 C 87 % 1015,9 hPa 0,0 mm 0,1 km/h (0 Bft) W-SW 241 0 min 0,000 mm 0,0 UV-I 12 W/m 14,2 C 1,6 km/h (1 Bft)
29.08.2016 08:12 16,3 C 16,4 C 87 % 1015,9 hPa 0,0 mm 0,3 km/h (0 Bft) W-SW 241 0 min 0,000 mm 0,0 UV-I 14 W/m 14,1 C 1,6 km/h (1 Bft)
29.08.2016 08:13 16,3 C 16,3 C 88 % 1015,8 hPa 0,0 mm 2,6 km/h (1 Bft) SW 234 0 min 0,000 mm 0,0 UV-I 14 W/m 14,3 C 3,2 km/h (1 Bft)
29.08.2016 08:14 16,3 C 16,3 C 87 % 1015,8 hPa 0,0 mm 2,2 km/h (1 Bft) SW 215 0 min 0,000 mm 0,0 UV-I 14 W/m 14,1 C 3,2 km/h (1 Bft)
29.08.2016 08:15 16,3 C 16,3 C 88 % 1015,8 hPa 0,0 mm 0,1 km/h (0 Bft) SW 215 0 min 0,000 mm 0,0 UV-I 16 W/m 14,3 C 1,6 km/h (1 Bft)
29.08.2016 08:16 16,3 C 16,3 C 86 % 1015,8 hPa 0,0 mm 1,4 km/h (1 Bft) SW 217 0 min 0,000 mm 0,0 UV-I 16 W/m 14,0 C 3,2 km/h (1 Bft)
29.08.2016 08:17 16,3 C 16,3 C 87 % 1015,8 hPa 0,0 mm 3,8 km/h (1 Bft) W-SW 251 0 min 0,000 mm 0,0 UV-I 18 W/m 14,1 C 4,8 km/h (1 Bft)
29.08.2016 08:18 16,3 C 16,4 C 87 % 1015,9 hPa 0,0 mm 4,3 km/h (1 Bft) W-NW 287 0 min 0,000 mm 0,0 UV-I 23 W/m 14,1 C 4,8 km/h (1 Bft)
29.08.2016 08:19 16,4 C 16,4 C 87 % 1016,0 hPa 0,0 mm 3,6 km/h (1 Bft) W-NW 295 0 min 0,000 mm 0,0 UV-I 26 W/m 14,2 C 4,8 km/h (1 Bft)
29.08.2016 08:20 16,4 C 16,4 C 87 % 1016,1 hPa 0,0 mm 5,1 km/h (1 Bft) W-NW 282 0 min 0,000 mm 0,0 UV-I 32 W/m 14,2 C 6,4 km/h (2 Bft)
29.08.2016 08:21 16,4 C 16,4 C 87 % 1016,1 hPa 0,0 mm 3,5 km/h (1 Bft) W 269 0 min 0,000 mm 0,0 UV-I 39 W/m 14,2 C 4,8 km/h (1 Bft)
29.08.2016 08:22 16,3 C 16,4 C 86 % 1016,1 hPa 0,0 mm 3,5 km/h (1 Bft) W 261 0 min 0,000 mm 0,0 UV-I 46 W/m 14,0 C 4,8 km/h (1 Bft)
29.08.2016 08:23 16,4 C 16,4 C 88 % 1016,1 hPa 0,0 mm 3,8 km/h (1 Bft) W-SW 254 0 min 0,000 mm 0,0 UV-I 54 W/m 14,4 C 4,8 km/h (1 Bft)
29.08.2016 08:24 16,4 C 16,4 C 87 % 1016,1 hPa 0,0 mm 4,2 km/h (1 Bft) W-NW 285 0 min 0,000 mm 0,5 UV-I 70 W/m 14,2 C 6,4 km/h (2 Bft)
29.08.2016 08:25 16,4 C 16,4 C 87 % 1016,1 hPa 0,0 mm 3,3 km/h (1 Bft) S-SO 167 0 min 0,000 mm 0,5 UV-I 77 W/m 14,2 C 6,4 km/h (2 Bft)
29.08.2016 08:26 16,4 C 16,4 C 86 % 1016,1 hPa 0,0 mm 3,5 km/h (1 Bft) S 178 0 min 0,000 mm 0,5 UV-I 81 W/m 14,1 C 4,8 km/h (1 Bft)
29.08.2016 08:27 16,6 C 16,6 C 86 % 1016,0 hPa 0,0 mm 1,5 km/h (1 Bft) S 180 0 min 0,000 mm 0,5 UV-I 83 W/m 14,2 C 3,2 km/h (1 Bft)
29.08.2016 08:28 16,7 C 16,7 C 85 % 1016,0 hPa 0,0 mm 3,7 km/h (1 Bft) S 179 0 min 0,000 mm 0,5 UV-I 83 W/m 14,2 C 4,8 km/h (1 Bft)
29.08.2016 08:29 16,8 C 16,8 C 85 % 1016,1 hPa 0,0 mm 3,3 km/h (1 Bft) S 180 0 min 0,000 mm 0,5 UV-I 81 W/m 14,3 C 4,8 km/h (1 Bft)
29.08.2016 08:30 16,8 C 16,8 C 85 % 1016,0 hPa 0,0 mm 2,5 km/h (1 Bft) S 179 0 min 0,000 mm 0,5 UV-I 77 W/m 14,3 C 4,8 km/h (1 Bft)
29.08.2016 08:31 16,9 C 16,9 C 84 % 1016,1 hPa 0,0 mm 5,0 km/h (1 Bft) S-SW 196 0 min 0,000 mm 0,5 UV-I 76 W/m 14,2 C 6,4 km/h (2 Bft)
29.08.2016 08:32 16,9 C 16,9 C 84 % 1016,0 hPa 0,0 mm 3,6 km/h (1 Bft) S-SW 202 0 min 0,000 mm 0,5 UV-I 74 W/m 14,2 C 6,4 km/h (2 Bft)
29.08.2016 08:33 16,9 C 16,9 C 86 % 1016,0 hPa 0,0 mm 3,0 km/h (1 Bft) S-SW 201 0 min 0,000 mm 0,0 UV-I 72 W/m 14,5 C 4,8 km/h (1 Bft)
29.08.2016 08:34 16,9 C 16,9 C 86 % 1016,1 hPa 0,0 mm 1,4 km/h (1 Bft) S-SW 201 0 min 0,000 mm 0,0 UV-I 70 W/m 14,5 C 3,2 km/h (1 Bft)
29.08.2016 08:35 16,8 C 16,9 C 86 % 1016,1 hPa 0,0 mm 3,0 km/h (1 Bft) SW 236 0 min 0,000 mm 0,0 UV-I 69 W/m 14,4 C 4,8 km/h (1 Bft)
29.08.2016 08:36 16,9 C 16,9 C 86 % 1016,2 hPa 0,0 mm 2,3 km/h (1 Bft) SW 236 0 min 0,000 mm 0,0 UV-I 65 W/m 14,5 C 4,8 km/h (1 Bft)
29.08.2016 08:37 16,9 C 16,9 C 86 % 1016,2 hPa 0,0 mm 3,0 km/h (1 Bft) S-SW 211 0 min 0,000 mm 0,0 UV-I 63 W/m 14,5 C 3,2 km/h (1 Bft)
29.08.2016 08:38 17,0 C 17,0 C 85 % 1016,1 hPa 0,0 mm 2,0 km/h (1 Bft) W-SW 239 0 min 0,000 mm 0,0 UV-I 62 W/m 14,5 C 3,2 km/h (1 Bft)
29.08.2016 08:39 17,1 C 17,1 C 84 % 1016,1 hPa 0,0 mm 0,1 km/h (0 Bft) W-SW 239 0 min 0,000 mm 0,0 UV-I 62 W/m 14,4 C 1,6 km/h (1 Bft)
29.08.2016 08:40 17,1 C 17,1 C 84 % 1016,2 hPa 0,0 mm 0,6 km/h (0 Bft) W-SW 239 0 min 0,000 mm 0,0 UV-I 60 W/m 14,4 C 3,2 km/h (1 Bft)
29.08.2016 08:41 17,1 C 17,1 C 85 % 1016,2 hPa 0,0 mm 2,6 km/h (1 Bft) S-SW 195 0 min 0,000 mm 0,0 UV-I 58 W/m 14,6 C 3,2 km/h (1 Bft)
29.08.2016 08:42 17,2 C 17,2 C 84 % 1016,2 hPa 0,0 mm 3,6 km/h (1 Bft) S 176 0 min 0,000 mm 0,0 UV-I 56 W/m 14,5 C 6,4 km/h (2 Bft)
29.08.2016 08:43 17,1 C 17,2 C 85 % 1016,2 hPa 0,0 mm 1,2 km/h (1 Bft) S 176 0 min 0,000 mm 0,0 UV-I 56 W/m 14,6 C 3,2 km/h (1 Bft)
29.08.2016 08:44 17,1 C 17,2 C 84 % 1016,2 hPa 0,0 mm 0,4 km/h (0 Bft) S 176 0 min 0,000 mm 0,0 UV-I 56 W/m 14,4 C 1,6 km/h (1 Bft)
29.08.2016 08:45 17,2 C 17,2 C 84 % 1016,2 hPa 0,0 mm 0,6 km/h (0 Bft) S 176 0 min 0,000 mm 0,0 UV-I 56 W/m 14,5 C 1,6 km/h (1 Bft)
29.08.2016 08:46 17,2 C 17,2 C 85 % 1016,2 hPa 0,0 mm 1,7 km/h (1 Bft) S 176 0 min 0,000 mm 0,0 UV-I 58 W/m 14,7 C 3,2 km/h (1 Bft)
29.08.2016 08:47 17,2 C 17,2 C 85 % 1016,2 hPa 0,0 mm 0,1 km/h (0 Bft) S 177 0 min 0,000 mm 0,0 UV-I 62 W/m 14,7 C 1,6 km/h (1 Bft)
29.08.2016 08:49 17,1 C 17,2 C 85 % 1016,2 hPa 0,0 mm 1,7 km/h (1 Bft) S 177 0 min 0,000 mm 0,5 UV-I 65 W/m 14,6 C 3,2 km/h (1 Bft)
29.08.2016 08:50 17,1 C 17,1 C 84 % 1016,2 hPa 0,0 mm 4,4 km/h (1 Bft) S-SO 164 0 min 0,000 mm 0,5 UV-I 67 W/m 14,4 C 8,0 km/h (2 Bft)
29.08.2016 08:51 17,1 C 17,1 C 84 % 1016,2 hPa 0,0 mm 5,5 km/h (1 Bft) S-SW 203 0 min 0,000 mm 0,5 UV-I 69 W/m 14,4 C 9,7 km/h (2 Bft)
29.08.2016 08:52 17,1 C 17,1 C 84 % 1016,2 hPa 0,0 mm 4,1 km/h (1 Bft) S-SW 194 0 min 0,000 mm 0,5 UV-I 70 W/m 14,4 C 4,8 km/h (1 Bft)
29.08.2016 08:53 17,2 C 17,2 C 85 % 1016,2 hPa 0,0 mm 3,4 km/h (1 Bft) SW 235 0 min 0,000 mm 0,5 UV-I 74 W/m 14,7 C 4,8 km/h (1 Bft)
29.08.2016 08:54 17,2 C 17,2 C 84 % 1016,2 hPa 0,0 mm 3,1 km/h (1 Bft) S-SW 194 0 min 0,000 mm 0,5 UV-I 74 W/m 14,5 C 6,4 km/h (2 Bft)
29.08.2016 08:55 17,2 C 17,2 C 84 % 1016,2 hPa 0,0 mm 3,0 km/h (1 Bft) S-SW 201 0 min 0,000 mm 0,5 UV-I 76 W/m 14,5 C 4,8 km/h (1 Bft)
29.08.2016 08:56 17,2 C 17,2 C 85 % 1016,2 hPa 0,0 mm 2,8 km/h (1 Bft) SW 236 0 min 0,000 mm 0,5 UV-I 76 W/m 14,7 C 4,8 km/h (1 Bft)
29.08.2016 08:57 17,2 C 17,2 C 84 % 1016,2 hPa 0,0 mm 1,7 km/h (1 Bft) S 180 0 min 0,000 mm 0,5 UV-I 74 W/m 14,5 C 6,4 km/h (2 Bft)
29.08.2016 08:58 17,2 C 17,2 C 84 % 1016,2 hPa 0,0 mm 3,3 km/h (1 Bft) S 173 0 min 0,000 mm 0,5 UV-I 70 W/m 14,5 C 4,8 km/h (1 Bft)
29.08.2016 08:59 17,2 C 17,2 C 84 % 1016,2 hPa 0,0 mm 1,9 km/h (1 Bft) W-SW 238 0 min 0,000 mm 0,5 UV-I 65 W/m 14,5 C 4,8 km/h (1 Bft)
29.08.2016 09:00 17,2 C 17,2 C 85 % 1016,2 hPa 0,0 mm 1,1 km/h (1 Bft) W-SW 239 0 min 0,000 mm 0,5 UV-I 63 W/m 14,7 C 1,6 km/h (1 Bft)
29.08.2016 09:01 17,2 C 17,2 C 85 % 1016,2 hPa 0,0 mm 0,9 km/h (0 Bft) W-SW 239 0 min 0,000 mm 0,5 UV-I 63 W/m 14,7 C 1,6 km/h (1 Bft)
29.08.2016 09:02 17,2 C 17,2 C 85 % 1016,2 hPa 0,0 mm 0,6 km/h (0 Bft) W-SW 239 0 min 0,000 mm 0,5 UV-I 63 W/m 14,7 C 1,6 km/h (1 Bft)
29.08.2016 09:03 17,2 C 17,2 C 85 % 1016,1 hPa 0,0 mm 2,8 km/h (1 Bft) W-SW 242 0 min 0,000 mm 0,5 UV-I 65 W/m 14,7 C 4,8 km/h (1 Bft)
29.08.2016 09:04 17,2 C 17,2 C 84 % 1016,2 hPa 0,0 mm 2,1 km/h (1 Bft) W-SW 238 0 min 0,000 mm 0,5 UV-I 67 W/m 14,5 C 3,2 km/h (1 Bft)
29.08.2016 09:05 17,2 C 17,2 C 84 % 1016,2 hPa 0,0 mm 6,3 km/h (2 Bft) S 179 0 min 0,000 mm 0,5 UV-I 69 W/m 14,5 C 8,0 km/h (2 Bft)
29.08.2016 09:06 17,2 C 17,2 C 85 % 1016,2 hPa 0,0 mm 3,3 km/h (1 Bft) S-SW 198 0 min 0,000 mm 0,5 UV-I 69 W/m 14,7 C 4,8 km/h (1 Bft)
29.08.2016 09:07 17,2 C 17,2 C 85 % 1016,2 hPa 0,0 mm 2,6 km/h (1 Bft) S-SW 194 0 min 0,000 mm 0,5 UV-I 69 W/m 14,7 C 4,8 km/h (1 Bft)
29.08.2016 09:08 17,2 C 17,2 C 85 % 1016,2 hPa 0,0 mm 3,2 km/h (1 Bft) SW 236 0 min 0,000 mm 0,5 UV-I 69 W/m 14,7 C 6,4 km/h (2 Bft)
29.08.2016 09:09 17,2 C 17,2 C 84 % 1016,2 hPa 0,0 mm 1,3 km/h (1 Bft) S-SW 203 0 min 0,000 mm 0,5 UV-I 69 W/m 14,5 C 3,2 km/h (1 Bft)
29.08.2016 09:10 17,3 C 17,3 C 85 % 1016,2 hPa 0,0 mm 0,9 km/h (0 Bft) S-SW 204 0 min 0,000 mm 0,5 UV-I 69 W/m 14,8 C 1,6 km/h (1 Bft)
29.08.2016 09:11 17,2 C 17,3 C 86 % 1016,2 hPa 0,0 mm 1,1 km/h (1 Bft) S-SW 204 0 min 0,000 mm 0,5 UV-I 65 W/m 14,8 C 1,6 km/h (1 Bft)
29.08.2016 09:12 17,2 C 17,2 C 86 % 1016,2 hPa 0,0 mm 1,1 km/h (1 Bft) W-SW 241 0 min 0,000 mm 0,5 UV-I 63 W/m 14,8 C 3,2 km/h (1 Bft)
29.08.2016 09:13 17,2 C 17,2 C 86 % 1016,3 hPa 0,0 mm 2,1 km/h (1 Bft) W-SW 249 0 min 0,000 mm 0,0 UV-I 63 W/m 14,8 C 4,8 km/h (1 Bft)
29.08.2016 09:14 17,2 C 17,2 C 86 % 1016,3 hPa 0,0 mm 1,8 km/h (1 Bft) W-SW 254 0 min 0,000 mm 0,0 UV-I 58 W/m 14,8 C 3,2 km/h (1 Bft)
29.08.2016 09:15 17,2 C 17,2 C 85 % 1016,3 hPa 0,0 mm 1,8 km/h (1 Bft) W-SW 254 0 min 0,000 mm 0,0 UV-I 54 W/m 14,7 C 3,2 km/h (1 Bft)
29.08.2016 09:16 17,2 C 17,2 C 85 % 1016,4 hPa 0,0 mm 0,8 km/h (0 Bft) W-SW 254 0 min 0,000 mm 0,0 UV-I 53 W/m 14,7 C 1,6 km/h (1 Bft)
29.08.2016 09:17 17,2 C 17,2 C 85 % 1016,3 hPa 0,0 mm 2,6 km/h (1 Bft) W-SW 254 0 min 0,000 mm 0,0 UV-I 53 W/m 14,7 C 3,2 km/h (1 Bft)
29.08.2016 09:18 17,2 C 17,2 C 86 % 1016,4 hPa 0,0 mm 2,4 km/h (1 Bft) W-SW 255 0 min 0,000 mm 0,0 UV-I 53 W/m 14,8 C 3,2 km/h (1 Bft)
29.08.2016 09:19 17,2 C 17,2 C 86 % 1016,4 hPa 0,0 mm 3,7 km/h (1 Bft) W 274 0 min 0,000 mm 0,0 UV-I 53 W/m 14,8 C 4,8 km/h (1 Bft)
29.08.2016 09:20 17,2 C 17,2 C 85 % 1016,5 hPa 0,0 mm 2,5 km/h (1 Bft) W 277 0 min 0,000 mm 0,0 UV-I 51 W/m 14,7 C 3,2 km/h (1 Bft)
29.08.2016 09:21 17,2 C 17,2 C 85 % 1016,5 hPa 0,0 mm 2,5 km/h (1 Bft) W 270 0 min 0,000 mm 0,0 UV-I 49 W/m 14,7 C 3,2 km/h (1 Bft)
29.08.2016 09:22 17,2 C 17,2 C 85 % 1016,5 hPa 0,0 mm 2,0 km/h (1 Bft) W 273 0 min 0,000 mm 0,0 UV-I 49 W/m 14,7 C 3,2 km/h (1 Bft)
29.08.2016 09:23 17,2 C 17,2 C 85 % 1016,5 hPa 0,0 mm 0,2 km/h (0 Bft) W 273 0 min 0,000 mm 0,0 UV-I 47 W/m 14,7 C 1,6 km/h (1 Bft)
29.08.2016 09:24 17,2 C 17,2 C 85 % 1016,5 hPa 0,0 mm 0,2 km/h (0 Bft) W 273 0 min 0,000 mm 0,0 UV-I 46 W/m 14,7 C 1,6 km/h (1 Bft)
29.08.2016 09:25 17,2 C 17,2 C 86 % 1016,6 hPa 0,0 mm 0,5 km/h (0 Bft) W 273 0 min 0,000 mm 0,0 UV-I 46 W/m 14,8 C 1,6 km/h (1 Bft)
29.08.2016 09:26 17,2 C 17,2 C 86 % 1016,5 hPa 0,0 mm 1,3 km/h (1 Bft) W 273 0 min 0,000 mm 0,0 UV-I 44 W/m 14,8 C 3,2 km/h (1 Bft)
29.08.2016 09:27 17,1 C 17,2 C 85 % 1016,6 hPa 0,0 mm 0,1 km/h (0 Bft) W 273 0 min 0,000 mm 0,0 UV-I 44 W/m 14,6 C 1,6 km/h (1 Bft)
29.08.2016 09:28 17,1 C 17,2 C 85 % 1016,6 hPa 0,0 mm 0,6 km/h (0 Bft) W 273 0 min 0,000 mm 0,0 UV-I 44 W/m 14,6 C 1,6 km/h (1 Bft)
29.08.2016 09:29 17,2 C 17,2 C 85 % 1016,7 hPa 0,0 mm 0,9 km/h (0 Bft) W 273 0 min 0,000 mm 0,0 UV-I 44 W/m 14,7 C 1,6 km/h (1 Bft)
29.08.2016 09:30 17,2 C 17,2 C 84 % 1016,7 hPa 0,0 mm 1,4 km/h (1 Bft) W 272 0 min 0,000 mm 0,0 UV-I 44 W/m 14,5 C 3,2 km/h (1 Bft)
29.08.2016 09:31 17,2 C 17,2 C 84 % 1016,7 hPa 0,0 mm 1,3 km/h (1 Bft) W 271 0 min 0,000 mm 0,0 UV-I 44 W/m 14,5 C 1,6 km/h (1 Bft)
29.08.2016 09:32 17,1 C 17,2 C 84 % 1016,7 hPa 0,0 mm 1,2 km/h (1 Bft) W 271 0 min 0,000 mm 0,0 UV-I 46 W/m 14,4 C 3,2 km/h (1 Bft)
29.08.2016 09:33 17,2 C 17,2 C 84 % 1016,7 hPa 0,0 mm 1,2 km/h (1 Bft) SW 228 0 min 0,000 mm 0,0 UV-I 47 W/m 14,5 C 3,2 km/h (1 Bft)
29.08.2016 09:34 17,1 C 17,2 C 86 % 1016,7 hPa 0,0 mm 0,2 km/h (0 Bft) SW 228 0 min 0,000 mm 0,0 UV-I 49 W/m 14,7 C 1,6 km/h (1 Bft)
29.08.2016 09:35 17,1 C 17,1 C 87 % 1016,7 hPa 0,0 mm 0,0 km/h (0 Bft) SW 228 0 min 0,000 mm 0,0 UV-I 51 W/m 14,9 C 0,0 km/h (0 Bft)
29.08.2016 09:36 17,0 C 17,1 C 88 % 1016,7 hPa 0,0 mm 1,1 km/h (1 Bft) SW 229 0 min 0,000 mm 0,0 UV-I 53 W/m 15,0 C 3,2 km/h (1 Bft)
29.08.2016 09:37 17,0 C 17,0 C 87 % 1016,7 hPa 0,0 mm 1,0 km/h (0 Bft) SW 229 0 min 0,000 mm 0,0 UV-I 54 W/m 14,8 C 3,2 km/h (1 Bft)
29.08.2016 09:38 16,9 C 17,0 C 87 % 1016,7 hPa 0,0 mm 0,8 km/h (0 Bft) SW 229 0 min 0,000 mm 0,0 UV-I 58 W/m 14,7 C 1,6 km/h (1 Bft)
29.08.2016 09:39 17,0 C 17,0 C 88 % 1016,7 hPa 0,0 mm 0,1 km/h (0 Bft) SW 229 0 min 0,000 mm 0,5 UV-I 60 W/m 15,0 C 1,6 km/h (1 Bft)
29.08.2016 09:40 16,9 C 17,0 C 87 % 1016,7 hPa 0,0 mm 1,6 km/h (1 Bft) SW 228 0 min 0,000 mm 0,5 UV-I 70 W/m 14,7 C 3,2 km/h (1 Bft)
29.08.2016 09:41 16,9 C 16,9 C 87 % 1016,7 hPa 0,0 mm 2,0 km/h (1 Bft) SW 228 0 min 0,000 mm 0,6 UV-I 76 W/m 14,7 C 3,2 km/h (1 Bft)
29.08.2016 09:42 16,9 C 16,9 C 87 % 1016,7 hPa 0,0 mm 1,6 km/h (1 Bft) S-SW 207 0 min 0,000 mm 0,6 UV-I 81 W/m 14,7 C 3,2 km/h (1 Bft)
29.08.2016 09:43 16,9 C 16,9 C 89 % 1016,7 hPa 0,0 mm 0,2 km/h (0 Bft) S-SW 207 0 min 0,000 mm 0,7 UV-I 88 W/m 15,1 C 1,6 km/h (1 Bft)
29.08.2016 09:44 16,8 C 16,9 C 88 % 1016,7 hPa 0,0 mm 0,3 km/h (0 Bft) S-SW 207 0 min 0,000 mm 0,7 UV-I 91 W/m 14,8 C 1,6 km/h (1 Bft)
29.08.2016 09:45 16,8 C 16,9 C 88 % 1016,7 hPa 0,0 mm 0,2 km/h (0 Bft) S-SW 207 0 min 0,000 mm 0,7 UV-I 93 W/m 14,8 C 1,6 km/h (1 Bft)
29.08.2016 09:46 16,9 C 16,9 C 89 % 1016,7 hPa 0,0 mm 0,2 km/h (0 Bft) S-SW 207 0 min 0,000 mm 0,7 UV-I 90 W/m 15,1 C 1,6 km/h (1 Bft)
29.08.2016 09:47 16,9 C 16,9 C 89 % 1016,8 hPa 0,0 mm 1,7 km/h (1 Bft) S-SW 207 0 min 0,000 mm 0,7 UV-I 90 W/m 15,1 C 3,2 km/h (1 Bft)
29.08.2016 09:48 17,0 C 17,0 C 89 % 1016,8 hPa 0,0 mm 1,6 km/h (1 Bft) SW 216 0 min 0,000 mm 0,6 UV-I 81 W/m 15,2 C 3,2 km/h (1 Bft)
29.08.2016 09:49 17,0 C 17,0 C 88 % 1016,8 hPa 0,0 mm 2,5 km/h (1 Bft) W-NW 285 0 min 0,000 mm 0,6 UV-I 77 W/m 15,0 C 3,2 km/h (1 Bft)
29.08.2016 09:50 17,0 C 17,0 C 87 % 1016,8 hPa 0,0 mm 1,2 km/h (1 Bft) W-NW 287 0 min 0,000 mm 0,6 UV-I 76 W/m 14,8 C 1,6 km/h (1 Bft)
29.08.2016 09:51 17,1 C 17,1 C 87 % 1016,8 hPa 0,0 mm 1,8 km/h (1 Bft) W-NW 287 0 min 0,000 mm 0,5 UV-I 70 W/m 14,9 C 3,2 km/h (1 Bft)
29.08.2016 09:52 17,1 C 17,1 C 87 % 1016,8 hPa 0,0 mm 0,9 km/h (0 Bft) W-NW 287 0 min 0,000 mm 0,5 UV-I 63 W/m 14,9 C 1,6 km/h (1 Bft)
29.08.2016 09:53 17,1 C 17,1 C 87 % 1016,8 hPa 0,0 mm 1,4 km/h (1 Bft) W-NW 287 0 min 0,000 mm 0,5 UV-I 63 W/m 14,9 C 3,2 km/h (1 Bft)
29.08.2016 09:54 17,2 C 17,2 C 87 % 1016,8 hPa 0,0 mm 1,7 km/h (1 Bft) W-NW 287 0 min 0,000 mm 0,5 UV-I 62 W/m 15,0 C 3,2 km/h (1 Bft)
29.08.2016 09:55 17,2 C 17,2 C 87 % 1016,8 hPa 0,0 mm 1,8 km/h (1 Bft) W-NW 287 0 min 0,000 mm 0,5 UV-I 63 W/m 15,0 C 3,2 km/h (1 Bft)
29.08.2016 09:56 17,2 C 17,2 C 87 % 1016,8 hPa 0,0 mm 2,4 km/h (1 Bft) NW 307 0 min 0,000 mm 0,5 UV-I 63 W/m 15,0 C 3,2 km/h (1 Bft)
29.08.2016 09:57 17,2 C 17,2 C 87 % 1016,8 hPa 0,0 mm 1,4 km/h (1 Bft) NW 307 0 min 0,000 mm 0,5 UV-I 65 W/m 15,0 C 1,6 km/h (1 Bft)
29.08.2016 09:58 17,2 C 17,2 C 87 % 1016,9 hPa 0,0 mm 0,2 km/h (0 Bft) NW 307 0 min 0,000 mm 0,5 UV-I 63 W/m 15,0 C 1,6 km/h (1 Bft)
29.08.2016 09:59 17,2 C 17,2 C 87 % 1016,8 hPa 0,0 mm 0,9 km/h (0 Bft) NW 307 0 min 0,000 mm 0,5 UV-I 62 W/m 15,0 C 1,6 km/h (1 Bft)
29.08.2016 10:00 17,2 C 17,2 C 87 % 1016,9 hPa 0,0 mm 1,5 km/h (1 Bft) NW 306 0 min 0,000 mm 0,5 UV-I 62 W/m 15,0 C 1,6 km/h (1 Bft)
29.08.2016 10:01 17,2 C 17,2 C 88 % 1016,9 hPa 0,0 mm 0,9 km/h (0 Bft) NW 306 0 min 0,000 mm 0,5 UV-I 60 W/m 15,2 C 1,6 km/h (1 Bft)
29.08.2016 10:02 17,1 C 17,2 C 88 % 1016,9 hPa 0,0 mm 0,0 km/h (0 Bft) NW 307 0 min 0,000 mm 0,5 UV-I 60 W/m 15,1 C 1,6 km/h (1 Bft)
29.08.2016 10:03 17,2 C 17,2 C 87 % 1016,9 hPa 0,0 mm 0,2 km/h (0 Bft) NW 306 0 min 0,000 mm 0,5 UV-I 60 W/m 15,0 C 1,6 km/h (1 Bft)
29.08.2016 10:04 17,1 C 17,2 C 87 % 1016,9 hPa 0,0 mm 0,0 km/h (0 Bft) NW 306 0 min 0,000 mm 0,5 UV-I 60 W/m 14,9 C 0,0 km/h (0 Bft)
29.08.2016 10:05 17,1 C 17,1 C 88 % 1016,9 hPa 0,0 mm 0,0 km/h (0 Bft) NW 306 0 min 0,000 mm 0,5 UV-I 60 W/m 15,1 C 0,0 km/h (0 Bft)
29.08.2016 10:06 17,1 C 17,1 C 88 % 1016,9 hPa 0,0 mm 0,0 km/h (0 Bft) NW 306 0 min 0,000 mm 0,5 UV-I 60 W/m 15,1 C 0,0 km/h (0 Bft)
29.08.2016 10:07 17,1 C 17,2 C 88 % 1017,0 hPa 0,0 mm 0,0 km/h (0 Bft) NW 306 0 min 0,000 mm 0,5 UV-I 60 W/m 15,1 C 0,0 km/h (0 Bft)
29.08.2016 10:08 17,2 C 17,2 C 89 % 1017,0 hPa 0,0 mm 0,2 km/h (0 Bft) NW 306 0 min 0,000 mm 0,5 UV-I 60 W/m 15,4 C 1,6 km/h (1 Bft)
29.08.2016 10:09 17,2 C 17,2 C 88 % 1017,0 hPa 0,0 mm 0,3 km/h (0 Bft) NW 306 0 min 0,000 mm 0,5 UV-I 62 W/m 15,2 C 1,6 km/h (1 Bft)
29.08.2016 10:10 17,2 C 17,2 C 88 % 1017,0 hPa 0,0 mm 0,0 km/h (0 Bft) NW 306 0 min 0,000 mm 0,5 UV-I 62 W/m 15,2 C 0,0 km/h (0 Bft)
29.08.2016 10:11 17,2 C 17,2 C 88 % 1017,0 hPa 0,0 mm 0,0 km/h (0 Bft) NW 306 0 min 0,000 mm 0,5 UV-I 62 W/m 15,2 C 0,0 km/h (0 Bft)
29.08.2016 10:12 17,2 C 17,2 C 88 % 1016,9 hPa 0,0 mm 0,0 km/h (0 Bft) NW 306 0 min 0,000 mm 0,5 UV-I 62 W/m 15,2 C 0,0 km/h (0 Bft)
29.08.2016 10:13 17,2 C 17,2 C 88 % 1017,0 hPa 0,0 mm 0,0 km/h (0 Bft) NW 306 0 min 0,000 mm 0,5 UV-I 62 W/m 15,2 C 0,0 km/h (0 Bft)
29.08.2016 10:14 17,2 C 17,2 C 88 % 1017,0 hPa 0,0 mm 0,2 km/h (0 Bft) NW 306 0 min 0,000 mm 0,5 UV-I 62 W/m 15,2 C 1,6 km/h (1 Bft)
29.08.2016 10:15 17,2 C 17,2 C 88 % 1017,1 hPa 0,0 mm 0,0 km/h (0 Bft) NW 306 0 min 0,000 mm 0,5 UV-I 56 W/m 15,2 C 0,0 km/h (0 Bft)
29.08.2016 10:16 17,2 C 17,2 C 89 % 1017,1 hPa 0,0 mm 0,0 km/h (0 Bft) NW 305 0 min 0,000 mm 0,0 UV-I 54 W/m 15,4 C 0,0 km/h (0 Bft)
29.08.2016 10:17 17,2 C 17,2 C 89 % 1017,1 hPa 0,0 mm 0,0 km/h (0 Bft) W-NW 288 0 min 0,000 mm 0,5 UV-I 58 W/m 15,4 C 0,0 km/h (0 Bft)
29.08.2016 10:18 17,2 C 17,2 C 89 % 1017,1 hPa 0,0 mm 0,0 km/h (0 Bft) W-NW 288 0 min 0,000 mm 0,5 UV-I 60 W/m 15,4 C 0,0 km/h (0 Bft)
29.08.2016 10:19 17,2 C 17,2 C 88 % 1017,1 hPa 0,0 mm 0,0 km/h (0 Bft) W-NW 288 0 min 0,000 mm 0,5 UV-I 63 W/m 15,2 C 0,0 km/h (0 Bft)
29.08.2016 10:20 17,2 C 17,2 C 89 % 1017,1 hPa 0,0 mm 0,0 km/h (0 Bft) W-NW 288 0 min 0,000 mm 0,6 UV-I 63 W/m 15,4 C 0,0 km/h (0 Bft)
29.08.2016 10:21 17,3 C 17,3 C 89 % 1017,2 hPa 0,0 mm 0,0 km/h (0 Bft) W-NW 288 0 min 0,000 mm 0,6 UV-I 63 W/m 15,5 C 0,0 km/h (0 Bft)
29.08.2016 10:22 17,2 C 17,3 C 89 % 1017,2 hPa 0,0 mm 0,0 km/h (0 Bft) W-NW 288 0 min 0,000 mm 0,5 UV-I 63 W/m 15,4 C 0,0 km/h (0 Bft)
29.08.2016 10:23 17,3 C 17,3 C 89 % 1017,1 hPa 0,0 mm 0,0 km/h (0 Bft) W-NW 288 0 min 0,000 mm 0,6 UV-I 72 W/m 15,5 C 0,0 km/h (0 Bft)
29.08.2016 10:24 17,3 C 17,3 C 87 % 1017,2 hPa 0,0 mm 0,0 km/h (0 Bft) W-NW 288 0 min 0,000 mm 0,7 UV-I 79 W/m 15,1 C 0,0 km/h (0 Bft)
29.08.2016 10:25 17,3 C 17,3 C 88 % 1017,2 hPa 0,0 mm 0,0 km/h (0 Bft) W-NW 288 0 min 0,000 mm 0,7 UV-I 81 W/m 15,3 C 0,0 km/h (0 Bft)
29.08.2016 10:26 17,3 C 17,3 C 88 % 1017,2 hPa 0,0 mm 0,0 km/h (0 Bft) W-NW 288 0 min 0,000 mm 0,7 UV-I 79 W/m 15,3 C 0,0 km/h (0 Bft)
29.08.2016 10:27 17,3 C 17,3 C 87 % 1017,3 hPa 0,0 mm 0,0 km/h (0 Bft) W-NW 288 0 min 0,000 mm 0,6 UV-I 76 W/m 15,1 C 0,0 km/h (0 Bft)
29.08.2016 10:28 17,3 C 17,3 C 87 % 1017,3 hPa 0,0 mm 0,0 km/h (0 Bft) W-NW 288 0 min 0,000 mm 0,6 UV-I 62 W/m 15,1 C 0,0 km/h (0 Bft)
29.08.2016 10:29 17,3 C 17,3 C 88 % 1017,3 hPa 0,0 mm 1,4 km/h (1 Bft) W 273 0 min 0,000 mm 0,0 UV-I 54 W/m 15,3 C 4,8 km/h (1 Bft)
29.08.2016 10:30 17,3 C 17,3 C 86 % 1017,3 hPa 0,2 mm 0,7 km/h (0 Bft) W 273 0 min 0,000 mm 0,0 UV-I 51 W/m 14,9 C 3,2 km/h (1 Bft)
29.08.2016 10:31 17,3 C 17,3 C 87 % 1017,4 hPa 0,0 mm 1,1 km/h (1 Bft) W 273 0 min 0,000 mm 0,0 UV-I 49 W/m 15,1 C 3,2 km/h (1 Bft)
29.08.2016 10:32 17,3 C 17,3 C 87 % 1017,4 hPa 0,0 mm 2,2 km/h (1 Bft) W 269 0 min 0,000 mm 0,0 UV-I 44 W/m 15,1 C 4,8 km/h (1 Bft)
29.08.2016 10:33 17,3 C 17,3 C 88 % 1017,4 hPa 0,0 mm 2,0 km/h (1 Bft) W 270 0 min 0,000 mm 0,0 UV-I 39 W/m 15,3 C 3,2 km/h (1 Bft)
29.08.2016 10:34 17,2 C 17,3 C 88 % 1017,5 hPa 0,0 mm 2,8 km/h (1 Bft) W-SW 244 0 min 0,000 mm 0,0 UV-I 39 W/m 15,2 C 4,8 km/h (1 Bft)
29.08.2016 10:35 17,3 C 17,3 C 88 % 1017,4 hPa 0,0 mm 3,1 km/h (1 Bft) W 269 0 min 0,000 mm 0,0 UV-I 39 W/m 15,3 C 4,8 km/h (1 Bft)
29.08.2016 10:36 17,2 C 17,3 C 89 % 1017,5 hPa 0,0 mm 4,4 km/h (1 Bft) W-NW 282 0 min 0,000 mm 0,0 UV-I 39 W/m 15,4 C 6,4 km/h (2 Bft)
29.08.2016 10:37 17,2 C 17,2 C 89 % 1017,5 hPa 0,0 mm 4,7 km/h (1 Bft) W 267 0 min 0,000 mm 0,0 UV-I 39 W/m 15,4 C 4,8 km/h (1 Bft)
29.08.2016 10:38 17,2 C 17,2 C 89 % 1017,5 hPa 0,0 mm 3,4 km/h (1 Bft) W 277 0 min 0,000 mm 0,0 UV-I 39 W/m 15,4 C 11,3 km/h (2 Bft)
29.08.2016 10:39 17,2 C 17,2 C 88 % 1017,5 hPa 0,0 mm 6,3 km/h (2 Bft) W 280 0 min 0,000 mm 0,0 UV-I 39 W/m 15,2 C 9,7 km/h (2 Bft)
29.08.2016 10:40 17,2 C 17,2 C 88 % 1017,5 hPa 0,0 mm 4,4 km/h (1 Bft) W-NW 301 0 min 0,000 mm 0,0 UV-I 39 W/m 15,2 C 6,4 km/h (2 Bft)
29.08.2016 10:41 17,2 C 17,2 C 89 % 1017,5 hPa 0,0 mm 3,0 km/h (1 Bft) W-NW 286 0 min 0,000 mm 0,0 UV-I 40 W/m 15,4 C 4,8 km/h (1 Bft)
29.08.2016 10:42 17,2 C 17,2 C 89 % 1017,5 hPa 0,0 mm 3,1 km/h (1 Bft) W 268 0 min 0,000 mm 0,0 UV-I 40 W/m 15,4 C 4,8 km/h (1 Bft)
29.08.2016 10:43 17,2 C 17,2 C 88 % 1017,5 hPa 0,0 mm 4,9 km/h (1 Bft) W 278 0 min 0,000 mm 0,0 UV-I 40 W/m 15,2 C 6,4 km/h (2 Bft)
29.08.2016 10:44 17,1 C 17,2 C 88 % 1017,6 hPa 0,2 mm 3,7 km/h (1 Bft) W-NW 291 0 min 0,000 mm 0,0 UV-I 40 W/m 15,1 C 4,8 km/h (1 Bft)
29.08.2016 10:45 17,1 C 17,2 C 89 % 1017,6 hPa 0,0 mm 4,1 km/h (1 Bft) W-SW 257 0 min 0,000 mm 0,0 UV-I 46 W/m 15,3 C 6,4 km/h (2 Bft)
29.08.2016 10:46 17,1 C 17,2 C 89 % 1017,6 hPa 0,0 mm 6,4 km/h (2 Bft) W 269 0 min 0,000 mm 0,0 UV-I 47 W/m 15,3 C 11,3 km/h (2 Bft)
29.08.2016 10:47 17,1 C 17,1 C 89 % 1017,6 hPa 0,0 mm 5,2 km/h (1 Bft) W-SW 238 0 min 0,000 mm 0,0 UV-I 47 W/m 15,3 C 6,4 km/h (2 Bft)
29.08.2016 10:48 17,1 C 17,1 C 89 % 1017,6 hPa 0,0 mm 5,5 km/h (1 Bft) S 186 0 min 0,000 mm 0,0 UV-I 44 W/m 15,3 C 11,3 km/h (2 Bft)
29.08.2016 10:49 17,0 C 17,1 C 89 % 1017,6 hPa 0,0 mm 1,8 km/h (1 Bft) S-SW 197 0 min 0,000 mm 0,0 UV-I 37 W/m 15,2 C 3,2 km/h (1 Bft)
29.08.2016 10:50 17,0 C 17,0 C 89 % 1017,7 hPa 0,2 mm 1,1 km/h (1 Bft) S-SW 197 0 min 0,000 mm 0,0 UV-I 46 W/m 15,2 C 1,6 km/h (1 Bft)
29.08.2016 10:51 16,9 C 17,0 C 90 % 1017,7 hPa 0,0 mm 1,9 km/h (1 Bft) S 172 0 min 0,000 mm 0,0 UV-I 47 W/m 15,2 C 4,8 km/h (1 Bft)
29.08.2016 10:52 16,9 C 16,9 C 89 % 1017,7 hPa 0,2 mm 1,8 km/h (1 Bft) S 173 0 min 0,000 mm 0,0 UV-I 47 W/m 15,1 C 3,2 km/h (1 Bft)
29.08.2016 10:53 16,8 C 16,9 C 89 % 1017,7 hPa 0,0 mm 2,8 km/h (1 Bft) S 188 0 min 0,000 mm 0,0 UV-I 47 W/m 15,0 C 4,8 km/h (1 Bft)
29.08.2016 10:54 16,8 C 16,9 C 89 % 1017,8 hPa 0,0 mm 3,6 km/h (1 Bft) SW 222 0 min 0,000 mm 0,0 UV-I 46 W/m 15,0 C 6,4 km/h (2 Bft)
29.08.2016 10:55 16,8 C 16,8 C 89 % 1017,7 hPa 0,2 mm 2,2 km/h (1 Bft) S-SW 205 0 min 0,000 mm 0,0 UV-I 40 W/m 15,0 C 4,8 km/h (1 Bft)
29.08.2016 10:56 16,8 C 16,8 C 90 % 1017,8 hPa 0,0 mm 1,2 km/h (1 Bft) S-SW 200 0 min 0,000 mm 0,0 UV-I 26 W/m 15,1 C 3,2 km/h (1 Bft)
29.08.2016 10:57 16,7 C 16,8 C 90 % 1017,8 hPa 0,0 mm 2,0 km/h (1 Bft) S-SW 199 0 min 0,000 mm 0,0 UV-I 23 W/m 15,0 C 3,2 km/h (1 Bft)
29.08.2016 10:58 16,7 C 16,7 C 90 % 1017,8 hPa 0,2 mm 3,1 km/h (1 Bft) S-SW 194 0 min 0,000 mm 0,0 UV-I 21 W/m 15,0 C 4,8 km/h (1 Bft)
29.08.2016 10:59 16,7 C 16,7 C 90 % 1017,9 hPa 0,0 mm 0,3 km/h (0 Bft) S-SW 194 0 min 0,000 mm 0,0 UV-I 23 W/m 15,0 C 1,6 km/h (1 Bft)
29.08.2016 11:00 16,6 C 16,7 C 91 % 1017,9 hPa 0,0 mm 1,1 km/h (1 Bft) S-SW 195 0 min 0,000 mm 0,0 UV-I 25 W/m 15,1 C 1,6 km/h (1 Bft)
29.08.2016 11:01 16,6 C 16,6 C 91 % 1017,9 hPa 0,0 mm 0,7 km/h (0 Bft) S 184 0 min 0,000 mm 0,0 UV-I 23 W/m 15,1 C 4,8 km/h (1 Bft)
29.08.2016 11:02 16,6 C 16,6 C 91 % 1017,9 hPa 0,0 mm 2,8 km/h (1 Bft) S 184 0 min 0,000 mm 0,0 UV-I 26 W/m 15,1 C 4,8 km/h (1 Bft)
29.08.2016 11:03 16,6 C 16,6 C 91 % 1017,9 hPa 0,2 mm 4,0 km/h (1 Bft) W-SW 242 0 min 0,000 mm 0,0 UV-I 32 W/m 15,1 C 6,4 km/h (2 Bft)
29.08.2016 11:04 16,6 C 16,6 C 91 % 1017,9 hPa 0,0 mm 3,6 km/h (1 Bft) S 188 0 min 0,000 mm 0,0 UV-I 32 W/m 15,1 C 4,8 km/h (1 Bft)
29.08.2016 11:05 16,6 C 16,6 C 91 % 1018,0 hPa 0,0 mm 2,4 km/h (1 Bft) S 176 0 min 0,000 mm 0,0 UV-I 32 W/m 15,1 C 4,8 km/h (1 Bft)
29.08.2016 11:06 16,6 C 16,6 C 91 % 1018,0 hPa 0,2 mm 2,4 km/h (1 Bft) S 188 0 min 0,000 mm 0,0 UV-I 28 W/m 15,1 C 4,8 km/h (1 Bft)
29.08.2016 11:07 16,6 C 16,6 C 91 % 1018,0 hPa 0,0 mm 4,0 km/h (1 Bft) W-SW 246 0 min 0,000 mm 0,0 UV-I 30 W/m 15,1 C 9,7 km/h (2 Bft)
29.08.2016 11:08 16,6 C 16,6 C 91 % 1018,0 hPa 0,0 mm 5,5 km/h (1 Bft) W 264 0 min 0,000 mm 0,0 UV-I 32 W/m 15,1 C 8,0 km/h (2 Bft)
29.08.2016 11:09 16,5 C 16,6 C 91 % 1018,0 hPa 0,0 mm 4,4 km/h (1 Bft) W-SW 242 0 min 0,000 mm 0,0 UV-I 32 W/m 15,0 C 4,8 km/h (1 Bft)
29.08.2016 11:10 16,4 C 16,5 C 91 % 1018,1 hPa 0,0 mm 4,8 km/h (1 Bft) SW 236 0 min 0,000 mm 0,0 UV-I 32 W/m 14,9 C 6,4 km/h (2 Bft)
29.08.2016 11:11 16,4 C 16,5 C 91 % 1018,1 hPa 0,2 mm 1,9 km/h (1 Bft) W-SW 241 0 min 0,000 mm 0,0 UV-I 28 W/m 14,9 C 3,2 km/h (1 Bft)
29.08.2016 11:12 16,4 C 16,4 C 92 % 1018,2 hPa 0,0 mm 0,9 km/h (0 Bft) W-SW 241 0 min 0,000 mm 0,0 UV-I 23 W/m 15,1 C 1,6 km/h (1 Bft)
29.08.2016 11:13 16,4 C 16,4 C 92 % 1018,2 hPa 0,0 mm 1,2 km/h (1 Bft) W-SW 238 0 min 0,000 mm 0,0 UV-I 18 W/m 15,1 C 1,6 km/h (1 Bft)
29.08.2016 11:14 16,4 C 16,4 C 92 % 1018,2 hPa 0,0 mm 4,3 km/h (1 Bft) W 263 0 min 0,000 mm 0,0 UV-I 23 W/m 15,1 C 8,0 km/h (2 Bft)
29.08.2016 11:15 16,4 C 16,4 C 92 % 1018,2 hPa 0,0 mm 4,6 km/h (1 Bft) W-NW 297 0 min 0,000 mm 0,0 UV-I 26 W/m 15,1 C 4,8 km/h (1 Bft)
29.08.2016 11:16 16,4 C 16,4 C 92 % 1018,2 hPa 0,0 mm 5,1 km/h (1 Bft) SW 228 0 min 0,000 mm 0,0 UV-I 26 W/m 15,1 C 6,4 km/h (2 Bft)
29.08.2016 11:17 16,4 C 16,4 C 92 % 1018,2 hPa 0,2 mm 3,4 km/h (1 Bft) W 259 0 min 0,000 mm 0,0 UV-I 26 W/m 15,1 C 4,8 km/h (1 Bft)
29.08.2016 11:18 16,4 C 16,4 C 92 % 1018,2 hPa 0,0 mm 2,1 km/h (1 Bft) W-SW 249 0 min 0,000 mm 0,0 UV-I 28 W/m 15,1 C 3,2 km/h (1 Bft)
29.08.2016 11:19 16,4 C 16,4 C 92 % 1018,3 hPa 0,0 mm 4,4 km/h (1 Bft) SW 236 0 min 0,000 mm 0,0 UV-I 28 W/m 15,1 C 4,8 km/h (1 Bft)
29.08.2016 11:20 16,4 C 16,4 C 92 % 1018,3 hPa 0,0 mm 3,4 km/h (1 Bft) W-SW 254 0 min 0,000 mm 0,0 UV-I 26 W/m 15,1 C 4,8 km/h (1 Bft)
29.08.2016 11:21 16,4 C 16,4 C 92 % 1018,3 hPa 0,0 mm 2,7 km/h (1 Bft) SW 234 0 min 0,000 mm 0,0 UV-I 26 W/m 15,1 C 3,2 km/h (1 Bft)
29.08.2016 11:22 16,4 C 16,4 C 92 % 1018,4 hPa 0,2 mm 2,5 km/h (1 Bft) W-SW 248 0 min 0,000 mm 0,0 UV-I 25 W/m 15,1 C 4,8 km/h (1 Bft)
29.08.2016 11:23 16,4 C 16,4 C 92 % 1018,4 hPa 0,0 mm 2,8 km/h (1 Bft) W-SW 255 0 min 0,000 mm 0,0 UV-I 23 W/m 15,1 C 4,8 km/h (1 Bft)
29.08.2016 11:24 16,4 C 16,4 C 92 % 1018,4 hPa 0,0 mm 4,7 km/h (1 Bft) W-SW 238 0 min 0,000 mm 0,0 UV-I 23 W/m 15,1 C 8,0 km/h (2 Bft)
29.08.2016 11:25 16,4 C 16,4 C 92 % 1018,5 hPa 0,2 mm 3,1 km/h (1 Bft) W-SW 237 0 min 0,000 mm 0,0 UV-I 23 W/m 15,1 C 4,8 km/h (1 Bft)
29.08.2016 11:26 16,4 C 16,4 C 93 % 1018,4 hPa 0,0 mm 4,8 km/h (1 Bft) W-SW 238 0 min 0,000 mm 0,0 UV-I 21 W/m 15,3 C 8,0 km/h (2 Bft)
29.08.2016 11:27 16,4 C 16,4 C 93 % 1018,5 hPa 0,2 mm 4,2 km/h (1 Bft) S-SW 199 0 min 0,000 mm 0,0 UV-I 21 W/m 15,3 C 6,4 km/h (2 Bft)
29.08.2016 11:28 16,4 C 16,4 C 93 % 1018,5 hPa 0,0 mm 2,7 km/h (1 Bft) W-SW 248 0 min 0,000 mm 0,0 UV-I 21 W/m 15,3 C 4,8 km/h (1 Bft)
29.08.2016 11:29 16,4 C 16,4 C 93 % 1018,5 hPa 0,0 mm 2,2 km/h (1 Bft) W-SW 252 0 min 0,000 mm 0,0 UV-I 21 W/m 15,3 C 3,2 km/h (1 Bft)
29.08.2016 11:30 16,4 C 16,4 C 93 % 1018,5 hPa 0,2 mm 3,9 km/h (1 Bft) W-NW 282 0 min 0,000 mm 0,0 UV-I 21 W/m 15,3 C 4,8 km/h (1 Bft)
29.08.2016 11:31 16,4 C 16,4 C 93 % 1018,5 hPa 0,0 mm 1,4 km/h (1 Bft) W 261 0 min 0,000 mm 0,0 UV-I 21 W/m 15,3 C 3,2 km/h (1 Bft)
29.08.2016 11:32 16,3 C 16,4 C 93 % 1018,5 hPa 0,2 mm 2,4 km/h (1 Bft) W-NW 282 0 min 0,000 mm 0,0 UV-I 21 W/m 15,2 C 4,8 km/h (1 Bft)
29.08.2016 11:33 16,3 C 16,4 C 93 % 1018,5 hPa 0,0 mm 3,8 km/h (1 Bft) W-NW 290 0 min 0,000 mm 0,0 UV-I 21 W/m 15,2 C 4,8 km/h (1 Bft)
29.08.2016 11:34 16,4 C 16,4 C 93 % 1018,5 hPa 0,0 mm 3,2 km/h (1 Bft) SW 224 0 min 0,000 mm 0,0 UV-I 21 W/m 15,3 C 6,4 km/h (2 Bft)
29.08.2016 11:35 16,3 C 16,4 C 93 % 1018,5 hPa 0,0 mm 1,7 km/h (1 Bft) SW 221 0 min 0,000 mm 0,0 UV-I 23 W/m 15,2 C 3,2 km/h (1 Bft)
29.08.2016 11:36 16,3 C 16,4 C 93 % 1018,5 hPa 0,2 mm 6,2 km/h (2 Bft) W-NW 291 0 min 0,000 mm 0,0 UV-I 23 W/m 15,2 C 9,7 km/h (2 Bft)
29.08.2016 11:37 16,4 C 16,4 C 93 % 1018,5 hPa 0,0 mm 7,1 km/h (2 Bft) W-SW 249 0 min 0,000 mm 0,0 UV-I 25 W/m 15,3 C 11,3 km/h (2 Bft)
29.08.2016 11:38 16,3 C 16,4 C 93 % 1018,5 hPa 0,0 mm 5,4 km/h (1 Bft) W-SW 254 0 min 0,000 mm 0,0 UV-I 25 W/m 15,2 C 8,0 km/h (2 Bft)
29.08.2016 11:39 16,4 C 16,4 C 93 % 1018,5 hPa 0,0 mm 3,6 km/h (1 Bft) W-SW 252 0 min 0,000 mm 0,0 UV-I 26 W/m 15,3 C 6,4 km/h (2 Bft)
29.08.2016 11:40 16,3 C 16,4 C 93 % 1018,5 hPa 0,2 mm 2,4 km/h (1 Bft) W-SW 248 0 min 0,000 mm 0,0 UV-I 26 W/m 15,2 C 3,2 km/h (1 Bft)
29.08.2016 11:41 16,3 C 16,3 C 93 % 1018,5 hPa 0,0 mm 1,7 km/h (1 Bft) W 268 0 min 0,000 mm 0,0 UV-I 26 W/m 15,2 C 3,2 km/h (1 Bft)
29.08.2016 11:42 16,3 C 16,3 C 93 % 1018,4 hPa 0,0 mm 0,8 km/h (0 Bft) W 268 0 min 0,000 mm 0,0 UV-I 28 W/m 15,2 C 3,2 km/h (1 Bft)
29.08.2016 11:43 16,3 C 16,3 C 93 % 1018,4 hPa 0,0 mm 1,4 km/h (1 Bft) W 268 0 min 0,000 mm 0,0 UV-I 28 W/m 15,2 C 3,2 km/h (1 Bft)
29.08.2016 11:44 16,3 C 16,3 C 93 % 1018,3 hPa 0,2 mm 3,5 km/h (1 Bft) SW 233 0 min 0,000 mm 0,0 UV-I 28 W/m 15,2 C 4,8 km/h (1 Bft)
29.08.2016 11:45 16,3 C 16,3 C 93 % 1018,4 hPa 0,0 mm 1,4 km/h (1 Bft) SW 233 0 min 0,000 mm 0,0 UV-I 28 W/m 15,2 C 1,6 km/h (1 Bft)
29.08.2016 11:46 16,3 C 16,3 C 94 % 1018,3 hPa 0,2 mm 0,3 km/h (0 Bft) SW 233 0 min 0,000 mm 0,0 UV-I 28 W/m 15,3 C 1,6 km/h (1 Bft)
29.08.2016 11:47 16,2 C 16,3 C 94 % 1018,3 hPa 0,0 mm 2,1 km/h (1 Bft) SW 232 0 min 0,000 mm 0,0 UV-I 28 W/m 15,2 C 3,2 km/h (1 Bft)
29.08.2016 11:48 16,2 C 16,3 C 94 % 1018,3 hPa 0,0 mm 1,4 km/h (1 Bft) SW 232 0 min 0,000 mm 0,0 UV-I 28 W/m 15,2 C 3,2 km/h (1 Bft)
29.08.2016 11:49 16,2 C 16,2 C 94 % 1018,3 hPa 0,2 mm 2,7 km/h (1 Bft) S-SW 196 0 min 0,000 mm 0,0 UV-I 30 W/m 15,2 C 3,2 km/h (1 Bft)
29.08.2016 11:50 16,2 C 16,2 C 94 % 1018,2 hPa 0,0 mm 4,5 km/h (1 Bft) S 169 0 min 0,000 mm 0,0 UV-I 30 W/m 15,2 C 6,4 km/h (2 Bft)
29.08.2016 11:51 16,2 C 16,2 C 94 % 1018,2 hPa 0,2 mm 2,9 km/h (1 Bft) S 169 0 min 0,000 mm 0,0 UV-I 32 W/m 15,2 C 6,4 km/h (2 Bft)
29.08.2016 11:52 16,2 C 16,2 C 94 % 1018,1 hPa 0,0 mm 1,5 km/h (1 Bft) S 169 0 min 0,000 mm 0,0 UV-I 32 W/m 15,2 C 1,6 km/h (1 Bft)
29.08.2016 11:53 16,2 C 16,2 C 94 % 1018,1 hPa 0,2 mm 1,2 km/h (1 Bft) S 169 0 min 0,000 mm 0,0 UV-I 33 W/m 15,2 C 1,6 km/h (1 Bft)
29.08.2016 11:54 16,2 C 16,2 C 94 % 1018,0 hPa 0,0 mm 2,2 km/h (1 Bft) S-SO 167 0 min 0,000 mm 0,0 UV-I 33 W/m 15,2 C 4,8 km/h (1 Bft)
29.08.2016 11:55 16,2 C 16,2 C 94 % 1018,0 hPa 0,2 mm 1,7 km/h (1 Bft) S-SO 167 0 min 0,000 mm 0,0 UV-I 37 W/m 15,2 C 4,8 km/h (1 Bft)
29.08.2016 11:56 16,2 C 16,2 C 94 % 1017,9 hPa 0,0 mm 3,1 km/h (1 Bft) S-SO 167 0 min 0,000 mm 0,0 UV-I 39 W/m 15,2 C 4,8 km/h (1 Bft)
29.08.2016 11:57 16,2 C 16,2 C 94 % 1017,8 hPa 0,2 mm 4,6 km/h (1 Bft) S-SO 167 0 min 0,000 mm 0,0 UV-I 40 W/m 15,2 C 4,8 km/h (1 Bft)
29.08.2016 11:58 16,2 C 16,2 C 94 % 1017,8 hPa 0,0 mm 4,6 km/h (1 Bft) O-SO 111 0 min 0,000 mm 0,0 UV-I 42 W/m 15,2 C 4,8 km/h (1 Bft)
29.08.2016 11:59 16,2 C 16,2 C 94 % 1017,7 hPa 0,0 mm 2,8 km/h (1 Bft) O-SO 111 0 min 0,000 mm 0,0 UV-I 46 W/m 15,2 C 4,8 km/h (1 Bft)
29.08.2016 12:00 16,2 C 16,2 C 94 % 1017,7 hPa 0,0 mm 1,2 km/h (1 Bft) O-SO 111 0 min 0,000 mm 0,0 UV-I 49 W/m 15,2 C 3,2 km/h (1 Bft)
29.08.2016 12:01 16,2 C 16,2 C 94 % 1017,7 hPa 0,2 mm 0,1 km/h (0 Bft) O-SO 111 0 min 0,000 mm 0,0 UV-I 58 W/m 15,2 C 1,6 km/h (1 Bft)
29.08.2016 12:02 16,2 C 16,2 C 94 % 1017,7 hPa 0,0 mm 0,0 km/h (0 Bft) O-SO 111 0 min 0,000 mm 0,6 UV-I 63 W/m 15,2 C 0,0 km/h (0 Bft)
29.08.2016 12:03 16,2 C 16,2 C 94 % 1017,7 hPa 0,0 mm 1,6 km/h (1 Bft) O-SO 111 0 min 0,000 mm 0,7 UV-I 69 W/m 15,2 C 1,6 km/h (1 Bft)
29.08.2016 12:04 16,2 C 16,2 C 94 % 1017,7 hPa 0,0 mm 0,6 km/h (0 Bft) O-SO 111 0 min 0,000 mm 0,7 UV-I 72 W/m 15,2 C 1,6 km/h (1 Bft)
29.08.2016 12:05 16,2 C 16,2 C 94 % 1017,7 hPa 0,0 mm 0,9 km/h (0 Bft) O-SO 111 0 min 0,000 mm 0,7 UV-I 77 W/m 15,2 C 1,6 km/h (1 Bft)
29.08.2016 12:06 16,2 C 16,2 C 94 % 1017,7 hPa 0,0 mm 1,4 km/h (1 Bft) O-SO 111 0 min 0,000 mm 0,8 UV-I 81 W/m 15,2 C 3,2 km/h (1 Bft)
29.08.2016 12:07 16,3 C 16,3 C 94 % 1017,7 hPa 0,0 mm 2,9 km/h (1 Bft) O-SO 111 0 min 0,000 mm 0,8 UV-I 88 W/m 15,3 C 3,2 km/h (1 Bft)
29.08.2016 12:08 16,3 C 16,3 C 95 % 1017,7 hPa 0,0 mm 3,0 km/h (1 Bft) O-SO 102 0 min 0,000 mm 0,9 UV-I 91 W/m 15,5 C 4,8 km/h (1 Bft)
29.08.2016 12:09 16,3 C 16,3 C 94 % 1017,6 hPa 0,0 mm 3,4 km/h (1 Bft) O 94 0 min 0,000 mm 0,9 UV-I 97 W/m 15,3 C 4,8 km/h (1 Bft)
29.08.2016 12:10 16,3 C 16,3 C 94 % 1017,6 hPa 0,0 mm 2,4 km/h (1 Bft) O-NO 78 0 min 0,000 mm 1,0 UV-I 102 W/m 15,3 C 4,8 km/h (1 Bft)
29.08.2016 12:11 16,3 C 16,3 C 93 % 1017,7 hPa 0,2 mm 0,3 km/h (0 Bft) O-NO 78 0 min 0,000 mm 1,0 UV-I 109 W/m 15,2 C 1,6 km/h (1 Bft)
29.08.2016 12:12 16,3 C 16,4 C 93 % 1017,7 hPa 0,0 mm 0,7 km/h (0 Bft) O-NO 78 0 min 0,000 mm 1,1 UV-I 116 W/m 15,2 C 1,6 km/h (1 Bft)
29.08.2016 12:13 16,4 C 16,4 C 93 % 1017,8 hPa 0,0 mm 0,8 km/h (0 Bft) O-NO 78 0 min 0,000 mm 1,2 UV-I 134 W/m 15,3 C 1,6 km/h (1 Bft)
29.08.2016 12:14 16,6 C 16,6 C 93 % 1017,8 hPa 0,0 mm 1,1 km/h (1 Bft) O-NO 78 0 min 0,000 mm 1,3 UV-I 142 W/m 15,5 C 1,6 km/h (1 Bft)
29.08.2016 12:15 16,6 C 16,6 C 93 % 1017,8 hPa 0,0 mm 1,1 km/h (1 Bft) O-NO 78 0 min 0,000 mm 1,4 UV-I 151 W/m 15,5 C 1,6 km/h (1 Bft)
29.08.2016 12:16 16,7 C 16,7 C 94 % 1017,9 hPa 0,0 mm 1,1 km/h (1 Bft) O-NO 78 0 min 0,000 mm 1,5 UV-I 160 W/m 15,7 C 1,6 km/h (1 Bft)
29.08.2016 12:17 16,8 C 16,8 C 94 % 1017,9 hPa 0,0 mm 1,6 km/h (1 Bft) O 80 0 min 0,000 mm 1,5 UV-I 171 W/m 15,8 C 3,2 km/h (1 Bft)
29.08.2016 12:18 16,8 C 16,8 C 93 % 1017,9 hPa 0,0 mm 2,2 km/h (1 Bft) S 183 0 min 0,000 mm 1,6 UV-I 181 W/m 15,7 C 3,2 km/h (1 Bft)
29.08.2016 12:19 16,8 C 16,8 C 93 % 1017,9 hPa 0,0 mm 2,0 km/h (1 Bft) S 183 0 min 0,000 mm 1,6 UV-I 183 W/m 15,7 C 3,2 km/h (1 Bft)
29.08.2016 12:20 16,9 C 16,9 C 93 % 1018,0 hPa 0,0 mm 2,2 km/h (1 Bft) W-SW 257 0 min 0,000 mm 1,7 UV-I 181 W/m 15,8 C 4,8 km/h (1 Bft)
29.08.2016 12:21 16,9 C 16,9 C 93 % 1018,0 hPa 0,0 mm 2,1 km/h (1 Bft) W 269 0 min 0,000 mm 1,6 UV-I 179 W/m 15,8 C 3,2 km/h (1 Bft)
29.08.2016 12:22 16,9 C 16,9 C 92 % 1018,0 hPa 0,0 mm 2,2 km/h (1 Bft) W 279 0 min 0,000 mm 1,6 UV-I 178 W/m 15,6 C 4,8 km/h (1 Bft)
29.08.2016 12:23 16,9 C 16,9 C 92 % 1018,0 hPa 0,0 mm 0,8 km/h (0 Bft) W 279 0 min 0,000 mm 1,6 UV-I 174 W/m 15,6 C 1,6 km/h (1 Bft)
29.08.2016 12:24 16,9 C 16,9 C 92 % 1018,0 hPa 0,0 mm 1,1 km/h (1 Bft) W 279 0 min 0,000 mm 1,6 UV-I 171 W/m 15,6 C 1,6 km/h (1 Bft)
29.08.2016 12:25 16,9 C 16,9 C 92 % 1018,0 hPa 0,0 mm 2,0 km/h (1 Bft) W 279 0 min 0,000 mm 1,6 UV-I 172 W/m 15,6 C 3,2 km/h (1 Bft)
29.08.2016 12:26 16,9 C 16,9 C 92 % 1018,0 hPa 0,0 mm 0,6 km/h (0 Bft) W 279 0 min 0,000 mm 1,6 UV-I 171 W/m 15,6 C 1,6 km/h (1 Bft)
29.08.2016 12:27 16,9 C 16,9 C 92 % 1018,0 hPa 0,0 mm 0,7 km/h (0 Bft) W 279 0 min 0,000 mm 1,5 UV-I 171 W/m 15,6 C 1,6 km/h (1 Bft)
29.08.2016 12:28 16,9 C 17,0 C 92 % 1018,0 hPa 0,0 mm 0,5 km/h (0 Bft) W 279 0 min 0,000 mm 1,5 UV-I 167 W/m 15,6 C 1,6 km/h (1 Bft)
29.08.2016 12:29 17,0 C 17,0 C 92 % 1018,1 hPa 0,0 mm 0,5 km/h (0 Bft) W 279 0 min 0,000 mm 1,5 UV-I 165 W/m 15,7 C 1,6 km/h (1 Bft)
29.08.2016 12:30 17,0 C 17,0 C 91 % 1018,0 hPa 0,0 mm 0,1 km/h (0 Bft) W 279 0 min 0,000 mm 1,5 UV-I 162 W/m 15,5 C 1,6 km/h (1 Bft)
29.08.2016 12:31 17,0 C 17,0 C 91 % 1018,0 hPa 0,0 mm 1,4 km/h (1 Bft) W 279 0 min 0,000 mm 1,5 UV-I 163 W/m 15,5 C 3,2 km/h (1 Bft)
29.08.2016 12:32 16,9 C 17,0 C 90 % 1018,1 hPa 0,0 mm 0,0 km/h (0 Bft) W 278 0 min 0,000 mm 1,5 UV-I 163 W/m 15,2 C 0,0 km/h (0 Bft)
29.08.2016 12:33 16,9 C 16,9 C 90 % 1018,1 hPa 0,0 mm 0,9 km/h (0 Bft) W 279 0 min 0,000 mm 1,5 UV-I 162 W/m 15,2 C 1,6 km/h (1 Bft)
29.08.2016 12:34 16,9 C 16,9 C 91 % 1018,1 hPa 0,0 mm 1,2 km/h (1 Bft) W 279 0 min 0,000 mm 1,5 UV-I 163 W/m 15,4 C 3,2 km/h (1 Bft)
29.08.2016 12:35 17,0 C 17,0 C 92 % 1018,1 hPa 0,0 mm 0,7 km/h (0 Bft) W 279 0 min 0,000 mm 1,5 UV-I 165 W/m 15,7 C 1,6 km/h (1 Bft)
29.08.2016 12:36 17,1 C 17,1 C 91 % 1018,2 hPa 0,0 mm 0,5 km/h (0 Bft) W 279 0 min 0,000 mm 1,6 UV-I 171 W/m 15,6 C 1,6 km/h (1 Bft)
29.08.2016 12:37 17,1 C 17,1 C 91 % 1018,2 hPa 0,0 mm 1,5 km/h (1 Bft) W 279 0 min 0,000 mm 1,6 UV-I 172 W/m 15,6 C 3,2 km/h (1 Bft)
29.08.2016 12:38 17,1 C 17,1 C 91 % 1018,2 hPa 0,0 mm 0,7 km/h (0 Bft) W 279 0 min 0,000 mm 1,6 UV-I 174 W/m 15,6 C 1,6 km/h (1 Bft)
29.08.2016 12:39 17,1 C 17,2 C 91 % 1018,2 hPa 0,0 mm 1,6 km/h (1 Bft) W 279 0 min 0,000 mm 1,7 UV-I 179 W/m 15,6 C 3,2 km/h (1 Bft)
29.08.2016 12:40 17,2 C 17,2 C 91 % 1018,2 hPa 0,0 mm 0,8 km/h (0 Bft) W 279 0 min 0,000 mm 1,7 UV-I 179 W/m 15,7 C 1,6 km/h (1 Bft)
29.08.2016 12:41 17,1 C 17,2 C 90 % 1018,2 hPa 0,0 mm 0,8 km/h (0 Bft) W 279 0 min 0,000 mm 1,7 UV-I 172 W/m 15,4 C 1,6 km/h (1 Bft)
29.08.2016 12:42 17,2 C 17,2 C 90 % 1018,3 hPa 0,0 mm 0,0 km/h (0 Bft) W 278 0 min 0,000 mm 1,6 UV-I 172 W/m 15,5 C 0,0 km/h (0 Bft)
29.08.2016 12:43 17,2 C 17,2 C 90 % 1018,2 hPa 0,0 mm 0,0 km/h (0 Bft) W 279 0 min 0,000 mm 1,6 UV-I 167 W/m 15,5 C 0,0 km/h (0 Bft)
29.08.2016 12:44 17,2 C 17,2 C 90 % 1018,2 hPa 0,0 mm 0,0 km/h (0 Bft) W 279 0 min 0,000 mm 1,5 UV-I 165 W/m 15,5 C 0,0 km/h (0 Bft)
29.08.2016 12:45 17,2 C 17,2 C 91 % 1018,3 hPa 0,0 mm 0,0 km/h (0 Bft) W 278 0 min 0,000 mm 1,5 UV-I 162 W/m 15,7 C 0,0 km/h (0 Bft)
29.08.2016 12:46 17,3 C 17,3 C 90 % 1018,3 hPa 0,0 mm 0,1 km/h (0 Bft) W 279 0 min 0,000 mm 1,4 UV-I 158 W/m 15,6 C 1,6 km/h (1 Bft)
29.08.2016 12:47 17,3 C 17,3 C 91 % 1018,3 hPa 0,0 mm 0,3 km/h (0 Bft) W 279 0 min 0,000 mm 1,4 UV-I 160 W/m 15,8 C 1,6 km/h (1 Bft)
29.08.2016 12:48 17,3 C 17,3 C 90 % 1018,3 hPa 0,0 mm 0,0 km/h (0 Bft) W 279 0 min 0,000 mm 1,5 UV-I 165 W/m 15,6 C 0,0 km/h (0 Bft)
29.08.2016 12:49 17,3 C 17,3 C 90 % 1018,3 hPa 0,0 mm 0,0 km/h (0 Bft) W 278 0 min 0,000 mm 1,6 UV-I 171 W/m 15,6 C 0,0 km/h (0 Bft)
29.08.2016 12:50 17,4 C 17,4 C 91 % 1018,3 hPa 0,0 mm 0,1 km/h (0 Bft) W 279 0 min 0,000 mm 1,6 UV-I 178 W/m 15,9 C 1,6 km/h (1 Bft)
29.08.2016 12:51 17,3 C 17,4 C 91 % 1018,3 hPa 0,0 mm 0,2 km/h (0 Bft) W 279 0 min 0,000 mm 1,7 UV-I 183 W/m 15,8 C 1,6 km/h (1 Bft)
29.08.2016 12:52 17,3 C 17,4 C 90 % 1018,3 hPa 0,0 mm 0,3 km/h (0 Bft) W 279 0 min 0,000 mm 1,7 UV-I 192 W/m 15,6 C 1,6 km/h (1 Bft)
29.08.2016 12:53 17,4 C 17,4 C 92 % 1018,3 hPa 0,0 mm 1,3 km/h (1 Bft) W 279 0 min 0,000 mm 1,8 UV-I 200 W/m 16,1 C 1,6 km/h (1 Bft)
29.08.2016 12:54 17,3 C 17,4 C 91 % 1018,3 hPa 0,0 mm 0,0 km/h (0 Bft) W 279 0 min 0,000 mm 1,8 UV-I 204 W/m 15,8 C 0,0 km/h (0 Bft)
29.08.2016 12:55 17,4 C 17,4 C 90 % 1018,3 hPa 0,0 mm 0,1 km/h (0 Bft) W 279 0 min 0,000 mm 1,8 UV-I 193 W/m 15,7 C 1,6 km/h (1 Bft)
29.08.2016 12:56 17,4 C 17,4 C 91 % 1018,3 hPa 0,0 mm 0,2 km/h (0 Bft) W 279 0 min 0,000 mm 1,6 UV-I 193 W/m 15,9 C 1,6 km/h (1 Bft)
29.08.2016 12:57 17,3 C 17,4 C 93 % 1018,3 hPa 0,0 mm 0,0 km/h (0 Bft) W 278 0 min 0,000 mm 1,5 UV-I 167 W/m 16,2 C 0,0 km/h (0 Bft)
29.08.2016 12:58 17,3 C 17,4 C 92 % 1018,3 hPa 0,0 mm 0,6 km/h (0 Bft) W 279 0 min 0,000 mm 1,4 UV-I 155 W/m 16,0 C 1,6 km/h (1 Bft)
29.08.2016 12:59 17,2 C 17,3 C 92 % 1018,3 hPa 0,0 mm 0,0 km/h (0 Bft) W 279 0 min 0,000 mm 1,3 UV-I 139 W/m 15,9 C 0,0 km/h (0 Bft)
29.08.2016 13:00 17,2 C 17,2 C 91 % 1018,3 hPa 0,0 mm 0,0 km/h (0 Bft) W 278 0 min 0,000 mm 1,3 UV-I 139 W/m 15,7 C 0,0 km/h (0 Bft)
29.08.2016 13:01 17,2 C 17,2 C 91 % 1018,3 hPa 0,0 mm 0,0 km/h (0 Bft) W 279 0 min 0,000 mm 1,3 UV-I 142 W/m 15,7 C 0,0 km/h (0 Bft)
29.08.2016 13:02 17,3 C 17,3 C 92 % 1018,4 hPa 0,0 mm 0,0 km/h (0 Bft) W 279 0 min 0,000 mm 1,4 UV-I 148 W/m 16,0 C 0,0 km/h (0 Bft)
29.08.2016 13:03 17,3 C 17,3 C 92 % 1018,3 hPa 0,0 mm 0,0 km/h (0 Bft) W 279 0 min 0,000 mm 1,4 UV-I 153 W/m 16,0 C 0,0 km/h (0 Bft)
29.08.2016 13:04 17,3 C 17,3 C 91 % 1018,4 hPa 0,0 mm 0,0 km/h (0 Bft) W 279 0 min 0,000 mm 1,4 UV-I 155 W/m 15,8 C 0,0 km/h (0 Bft)
29.08.2016 13:05 17,3 C 17,3 C 91 % 1018,3 hPa 0,0 mm 0,0 km/h (0 Bft) W 279 0 min 0,000 mm 1,4 UV-I 153 W/m 15,8 C 0,0 km/h (0 Bft)
29.08.2016 13:06 17,3 C 17,3 C 91 % 1018,3 hPa 0,0 mm 0,0 km/h (0 Bft) W 279 0 min 0,000 mm 1,3 UV-I 148 W/m 15,8 C 0,0 km/h (0 Bft)
29.08.2016 13:07 17,3 C 17,3 C 92 % 1018,3 hPa 0,0 mm 0,1 km/h (0 Bft) W 278 0 min 0,000 mm 1,3 UV-I 142 W/m 16,0 C 1,6 km/h (1 Bft)
29.08.2016 13:08 17,2 C 17,3 C 92 % 1018,3 hPa 0,0 mm 0,1 km/h (0 Bft) W 279 0 min 0,000 mm 1,2 UV-I 137 W/m 15,9 C 1,6 km/h (1 Bft)
29.08.2016 13:09 17,2 C 17,2 C 92 % 1018,3 hPa 0,0 mm 0,0 km/h (0 Bft) W 279 0 min 0,000 mm 1,2 UV-I 135 W/m 15,9 C 0,0 km/h (0 Bft)
29.08.2016 13:10 17,2 C 17,2 C 92 % 1018,3 hPa 0,0 mm 0,2 km/h (0 Bft) W 279 0 min 0,000 mm 1,2 UV-I 135 W/m 15,9 C 1,6 km/h (1 Bft)
29.08.2016 13:11 17,2 C 17,2 C 92 % 1018,3 hPa 0,0 mm 0,5 km/h (0 Bft) W 278 0 min 0,000 mm 1,3 UV-I 142 W/m 15,9 C 1,6 km/h (1 Bft)
29.08.2016 13:12 17,2 C 17,2 C 92 % 1018,4 hPa 0,0 mm 0,1 km/h (0 Bft) W 279 0 min 0,000 mm 1,3 UV-I 146 W/m 15,9 C 1,6 km/h (1 Bft)
29.08.2016 13:13 17,2 C 17,2 C 92 % 1018,4 hPa 0,0 mm 0,1 km/h (0 Bft) W 279 0 min 0,000 mm 1,3 UV-I 149 W/m 15,9 C 1,6 km/h (1 Bft)
29.08.2016 13:14 17,1 C 17,2 C 92 % 1018,4 hPa 0,0 mm 0,9 km/h (0 Bft) W 279 0 min 0,000 mm 1,4 UV-I 149 W/m 15,8 C 1,6 km/h (1 Bft)
29.08.2016 13:15 17,1 C 17,1 C 90 % 1018,4 hPa 0,0 mm 0,0 km/h (0 Bft) W 278 0 min 0,000 mm 1,4 UV-I 156 W/m 15,4 C 0,0 km/h (0 Bft)
29.08.2016 13:16 17,2 C 17,2 C 92 % 1018,4 hPa 0,0 mm 0,1 km/h (0 Bft) W 278 0 min 0,000 mm 1,5 UV-I 160 W/m 15,9 C 1,6 km/h (1 Bft)
29.08.2016 13:17 17,1 C 17,2 C 92 % 1018,3 hPa 0,0 mm 0,0 km/h (0 Bft) W 279 0 min 0,000 mm 1,5 UV-I 160 W/m 15,8 C 0,0 km/h (0 Bft)
29.08.2016 13:18 17,2 C 17,2 C 92 % 1018,4 hPa 0,0 mm 0,6 km/h (0 Bft) W 278 0 min 0,000 mm 1,4 UV-I 156 W/m 15,9 C 1,6 km/h (1 Bft)
29.08.2016 13:19 17,2 C 17,2 C 92 % 1018,4 hPa 0,0 mm 0,9 km/h (0 Bft) W 279 0 min 0,000 mm 1,3 UV-I 149 W/m 15,9 C 1,6 km/h (1 Bft)
29.08.2016 13:20 17,1 C 17,2 C 92 % 1018,4 hPa 0,0 mm 1,5 km/h (1 Bft) W 278 0 min 0,000 mm 1,3 UV-I 142 W/m 15,8 C 3,2 km/h (1 Bft)
29.08.2016 13:21 17,1 C 17,1 C 92 % 1018,4 hPa 0,0 mm 0,5 km/h (0 Bft) W 278 0 min 0,000 mm 1,2 UV-I 135 W/m 15,8 C 1,6 km/h (1 Bft)
29.08.2016 13:22 17,1 C 17,1 C 91 % 1018,4 hPa 0,0 mm 0,2 km/h (0 Bft) W 278 0 min 0,000 mm 1,2 UV-I 128 W/m 15,6 C 1,6 km/h (1 Bft)
29.08.2016 13:24 17,2 C 17,2 C 92 % 1018,4 hPa 0,0 mm 2,2 km/h (1 Bft) W 267 0 min 0,000 mm 0,8 UV-I 95 W/m 15,9 C 4,8 km/h (1 Bft)
29.08.2016 13:25 17,2 C 17,2 C 91 % 1018,5 hPa 0,0 mm 2,5 km/h (1 Bft) W 267 0 min 0,000 mm 0,8 UV-I 86 W/m 15,7 C 3,2 km/h (1 Bft)
29.08.2016 13:26 17,2 C 17,2 C 91 % 1018,4 hPa 0,0 mm 0,7 km/h (0 Bft) W 267 0 min 0,000 mm 0,7 UV-I 79 W/m 15,7 C 1,6 km/h (1 Bft)
29.08.2016 13:27 17,2 C 17,2 C 91 % 1018,4 hPa 0,0 mm 0,1 km/h (0 Bft) W 267 0 min 0,000 mm 0,7 UV-I 74 W/m 15,7 C 1,6 km/h (1 Bft)
29.08.2016 13:28 17,2 C 17,2 C 91 % 1018,4 hPa 0,2 mm 0,6 km/h (0 Bft) W 267 0 min 0,000 mm 0,6 UV-I 69 W/m 15,7 C 1,6 km/h (1 Bft)
29.08.2016 13:29 17,2 C 17,2 C 90 % 1018,5 hPa 0,0 mm 0,7 km/h (0 Bft) W 267 0 min 0,000 mm 0,6 UV-I 63 W/m 15,5 C 1,6 km/h (1 Bft)
29.08.2016 13:30 17,1 C 17,2 C 91 % 1018,4 hPa 0,0 mm 0,3 km/h (0 Bft) W-SW 237 0 min 0,000 mm 0,6 UV-I 65 W/m 15,6 C 1,6 km/h (1 Bft)
29.08.2016 13:31 17,1 C 17,1 C 90 % 1018,4 hPa 0,0 mm 0,8 km/h (0 Bft) W-SW 237 0 min 0,000 mm 0,7 UV-I 67 W/m 15,4 C 1,6 km/h (1 Bft)
29.08.2016 13:32 17,0 C 17,1 C 91 % 1018,4 hPa 0,0 mm 0,7 km/h (0 Bft) SW 236 0 min 0,000 mm 0,7 UV-I 70 W/m 15,5 C 1,6 km/h (1 Bft)
29.08.2016 13:33 16,9 C 17,0 C 92 % 1018,4 hPa 0,0 mm 0,2 km/h (0 Bft) SW 236 0 min 0,000 mm 0,7 UV-I 72 W/m 15,6 C 1,6 km/h (1 Bft)
29.08.2016 13:34 16,8 C 16,9 C 92 % 1018,4 hPa 0,0 mm 0,0 km/h (0 Bft) SW 236 0 min 0,000 mm 0,7 UV-I 72 W/m 15,5 C 0,0 km/h (0 Bft)
29.08.2016 13:35 16,7 C 16,8 C 92 % 1018,4 hPa 0,0 mm 0,0 km/h (0 Bft) SW 236 0 min 0,000 mm 0,7 UV-I 70 W/m 15,4 C 0,0 km/h (0 Bft)
29.08.2016 13:36 16,7 C 16,7 C 92 % 1018,3 hPa 0,0 mm 0,0 km/h (0 Bft) SW 236 0 min 0,000 mm 0,7 UV-I 69 W/m 15,4 C 0,0 km/h (0 Bft)
29.08.2016 13:37 16,6 C 16,7 C 93 % 1018,4 hPa 0,0 mm 0,0 km/h (0 Bft) SW 236 0 min 0,000 mm 0,6 UV-I 67 W/m 15,5 C 0,0 km/h (0 Bft)
29.08.2016 13:38 16,6 C 16,6 C 93 % 1018,4 hPa 0,0 mm 0,0 km/h (0 Bft) SW 236 0 min 0,000 mm 0,6 UV-I 65 W/m 15,5 C 0,0 km/h (0 Bft)
29.08.2016 13:39 16,5 C 16,6 C 93 % 1018,4 hPa 0,0 mm 0,0 km/h (0 Bft) SW 236 0 min 0,000 mm 0,6 UV-I 65 W/m 15,4 C 0,0 km/h (0 Bft)
29.08.2016 13:40 16,5 C 16,5 C 93 % 1018,3 hPa 0,2 mm 0,0 km/h (0 Bft) SW 236 0 min 0,000 mm 0,6 UV-I 65 W/m 15,4 C 0,0 km/h (0 Bft)
29.08.2016 13:41 16,6 C 16,6 C 94 % 1018,3 hPa 0,0 mm 0,0 km/h (0 Bft) SW 236 0 min 0,000 mm 0,6 UV-I 65 W/m 15,6 C 0,0 km/h (0 Bft)
29.08.2016 13:42 16,5 C 16,6 C 94 % 1018,3 hPa 0,0 mm 0,8 km/h (0 Bft) SW 236 0 min 0,000 mm 0,6 UV-I 65 W/m 15,5 C 3,2 km/h (1 Bft)
29.08.2016 13:43 16,5 C 16,6 C 94 % 1018,2 hPa 0,0 mm 2,5 km/h (1 Bft) S-SW 212 0 min 0,000 mm 0,6 UV-I 65 W/m 15,5 C 3,2 km/h (1 Bft)
29.08.2016 13:44 16,4 C 16,5 C 94 % 1018,2 hPa 0,0 mm 2,3 km/h (1 Bft) S-SW 194 0 min 0,000 mm 0,6 UV-I 65 W/m 15,4 C 3,2 km/h (1 Bft)
29.08.2016 13:45 16,4 C 16,4 C 94 % 1018,2 hPa 0,0 mm 0,9 km/h (0 Bft) S-SW 194 0 min 0,000 mm 0,6 UV-I 63 W/m 15,4 C 1,6 km/h (1 Bft)
29.08.2016 13:46 16,4 C 16,4 C 94 % 1018,2 hPa 0,0 mm 0,0 km/h (0 Bft) S-SW 194 0 min 0,000 mm 0,6 UV-I 63 W/m 15,4 C 0,0 km/h (0 Bft)
29.08.2016 13:47 16,4 C 16,4 C 94 % 1018,1 hPa 0,0 mm 0,0 km/h (0 Bft) S-SW 194 0 min 0,000 mm 0,6 UV-I 63 W/m 15,4 C 0,0 km/h (0 Bft)
29.08.2016 13:48 16,6 C 16,6 C 95 % 1018,2 hPa 0,0 mm 0,0 km/h (0 Bft) S-SW 194 0 min 0,000 mm 0,6 UV-I 63 W/m 15,8 C 0,0 km/h (0 Bft)
29.08.2016 13:49 16,5 C 16,6 C 95 % 1018,2 hPa 0,0 mm 0,0 km/h (0 Bft) S-SW 194 0 min 0,000 mm 0,6 UV-I 63 W/m 15,7 C 0,0 km/h (0 Bft)
29.08.2016 13:50 16,6 C 16,6 C 94 % 1018,2 hPa 0,0 mm 0,5 km/h (0 Bft) S-SW 194 0 min 0,000 mm 0,6 UV-I 63 W/m 15,6 C 1,6 km/h (1 Bft)
29.08.2016 13:51 16,6 C 16,6 C 94 % 1018,2 hPa 0,0 mm 0,0 km/h (0 Bft) S-SW 194 0 min 0,000 mm 0,6 UV-I 63 W/m 15,6 C 0,0 km/h (0 Bft)
29.08.2016 13:52 16,6 C 16,6 C 94 % 1018,2 hPa 0,0 mm 0,1 km/h (0 Bft) S-SW 194 0 min 0,000 mm 0,6 UV-I 67 W/m 15,6 C 1,6 km/h (1 Bft)
29.08.2016 13:53 16,6 C 16,6 C 94 % 1018,2 hPa 0,2 mm 0,0 km/h (0 Bft) S-SW 194 0 min 0,000 mm 0,7 UV-I 70 W/m 15,6 C 0,0 km/h (0 Bft)
29.08.2016 13:54 16,7 C 16,7 C 94 % 1018,2 hPa 0,0 mm 0,0 km/h (0 Bft) S-SW 194 0 min 0,000 mm 0,7 UV-I 72 W/m 15,7 C 0,0 km/h (0 Bft)
29.08.2016 13:55 16,7 C 16,7 C 94 % 1018,2 hPa 0,0 mm 0,0 km/h (0 Bft) S-SW 194 0 min 0,000 mm 0,7 UV-I 76 W/m 15,7 C 0,0 km/h (0 Bft)
29.08.2016 13:56 16,7 C 16,7 C 94 % 1018,2 hPa 0,0 mm 0,0 km/h (0 Bft) S-SW 194 0 min 0,000 mm 0,8 UV-I 77 W/m 15,7 C 0,0 km/h (0 Bft)
29.08.2016 13:57 16,8 C 16,8 C 95 % 1018,2 hPa 0,0 mm 0,0 km/h (0 Bft) S-SW 194 0 min 0,000 mm 0,8 UV-I 81 W/m 16,0 C 0,0 km/h (0 Bft)
29.08.2016 13:58 16,8 C 16,8 C 95 % 1018,2 hPa 0,0 mm 0,0 km/h (0 Bft) S-SW 194 0 min 0,000 mm 0,8 UV-I 88 W/m 16,0 C 0,0 km/h (0 Bft)
29.08.2016 13:59 16,8 C 16,8 C 95 % 1018,2 hPa 0,0 mm 0,0 km/h (0 Bft) S-SW 194 0 min 0,000 mm 0,9 UV-I 90 W/m 16,0 C 0,0 km/h (0 Bft)
29.08.2016 14:00 16,8 C 16,8 C 94 % 1018,2 hPa 0,0 mm 0,0 km/h (0 Bft) S-SW 194 0 min 0,000 mm 0,9 UV-I 93 W/m 15,8 C 0,0 km/h (0 Bft)
29.08.2016 14:02 16,8 C 16,9 C 93 % 1018,1 hPa 0,0 mm 0,5 km/h (0 Bft) S-SW 194 0 min 0,000 mm 0,9 UV-I 97 W/m 15,7 C 1,6 km/h (1 Bft)
29.08.2016 14:03 16,8 C 16,8 C 93 % 1018,0 hPa 0,0 mm 0,0 km/h (0 Bft) S-SW 194 0 min 0,000 mm 0,9 UV-I 97 W/m 15,7 C 1,6 km/h (1 Bft)
29.08.2016 14:04 16,8 C 16,8 C 93 % 1018,1 hPa 0,0 mm 0,2 km/h (0 Bft) S-SW 194 0 min 0,000 mm 0,9 UV-I 97 W/m 15,7 C 1,6 km/h (1 Bft)
29.08.2016 14:05 16,8 C 16,8 C 92 % 1018,0 hPa 0,0 mm 0,0 km/h (0 Bft) S-SW 194 0 min 0,000 mm 0,9 UV-I 95 W/m 15,5 C 0,0 km/h (0 Bft)
29.08.2016 14:06 16,9 C 16,9 C 92 % 1018,0 hPa 0,0 mm 0,3 km/h (0 Bft) S-SW 194 0 min 0,000 mm 0,9 UV-I 95 W/m 15,6 C 1,6 km/h (1 Bft)
29.08.2016 14:07 16,9 C 16,9 C 93 % 1018,0 hPa 0,0 mm 0,4 km/h (0 Bft) S-SW 194 0 min 0,000 mm 0,9 UV-I 93 W/m 15,8 C 1,6 km/h (1 Bft)
29.08.2016 14:08 16,9 C 16,9 C 93 % 1018,0 hPa 0,0 mm 0,0 km/h (0 Bft) S-SW 194 0 min 0,000 mm 0,9 UV-I 91 W/m 15,8 C 0,0 km/h (0 Bft)
29.08.2016 14:09 17,0 C 17,0 C 93 % 1018,0 hPa 0,0 mm 0,0 km/h (0 Bft) S-SW 194 0 min 0,000 mm 0,8 UV-I 91 W/m 15,9 C 0,0 km/h (0 Bft)
29.08.2016 14:10 17,0 C 17,0 C 93 % 1018,0 hPa 0,2 mm 0,0 km/h (0 Bft) S-SW 194 0 min 0,000 mm 0,9 UV-I 91 W/m 15,9 C 0,0 km/h (0 Bft)
29.08.2016 14:11 17,0 C 17,1 C 92 % 1018,0 hPa 0,0 mm 0,0 km/h (0 Bft) S-SW 194 0 min 0,000 mm 0,9 UV-I 91 W/m 15,7 C 0,0 km/h (0 Bft)
29.08.2016 14:12 17,0 C 17,1 C 92 % 1018,1 hPa 0,0 mm 0,0 km/h (0 Bft) S-SW 194 0 min 0,000 mm 0,9 UV-I 91 W/m 15,7 C 0,0 km/h (0 Bft)
29.08.2016 14:13 17,1 C 17,1 C 92 % 1018,1 hPa 0,0 mm 0,0 km/h (0 Bft) S-SW 194 0 min 0,000 mm 0,9 UV-I 93 W/m 15,8 C 0,0 km/h (0 Bft)
29.08.2016 14:14 17,1 C 17,1 C 92 % 1018,1 hPa 0,2 mm 0,0 km/h (0 Bft) S-SW 194 0 min 0,000 mm 0,9 UV-I 97 W/m 15,8 C 0,0 km/h (0 Bft)
29.08.2016 14:15 17,1 C 17,1 C 92 % 1018,2 hPa 0,0 mm 0,0 km/h (0 Bft) S-SW 194 0 min 0,000 mm 1,0 UV-I 104 W/m 15,8 C 0,0 km/h (0 Bft)
29.08.2016 14:16 17,1 C 17,1 C 92 % 1018,1 hPa 0,0 mm 0,0 km/h (0 Bft) S-SW 194 0 min 0,000 mm 1,0 UV-I 107 W/m 15,8 C 0,0 km/h (0 Bft)
29.08.2016 14:17 17,1 C 17,1 C 92 % 1018,1 hPa 0,0 mm 0,0 km/h (0 Bft) S-SW 194 0 min 0,000 mm 1,1 UV-I 113 W/m 15,8 C 0,0 km/h (0 Bft)
29.08.2016 14:18 17,1 C 17,1 C 92 % 1018,1 hPa 0,0 mm 0,0 km/h (0 Bft) S-SW 194 0 min 0,000 mm 1,1 UV-I 118 W/m 15,8 C 0,0 km/h (0 Bft)
29.08.2016 14:19 17,1 C 17,1 C 92 % 1018,1 hPa 0,0 mm 0,0 km/h (0 Bft) S-SW 194 0 min 0,000 mm 1,2 UV-I 121 W/m 15,8 C 0,0 km/h (0 Bft)
29.08.2016 14:20 17,1 C 17,1 C 92 % 1018,0 hPa 0,0 mm 0,0 km/h (0 Bft) S-SW 194 0 min 0,000 mm 1,2 UV-I 125 W/m 15,8 C 0,0 km/h (0 Bft)
29.08.2016 14:21 17,1 C 17,1 C 91 % 1018,0 hPa 0,0 mm 0,0 km/h (0 Bft) S-SW 194 0 min 0,000 mm 1,2 UV-I 130 W/m 15,6 C 0,0 km/h (0 Bft)
29.08.2016 14:22 17,1 C 17,1 C 91 % 1018,0 hPa 0,2 mm 0,0 km/h (0 Bft) S-SW 194 0 min 0,000 mm 1,3 UV-I 132 W/m 15,6 C 0,0 km/h (0 Bft)
29.08.2016 14:23 17,1 C 17,1 C 91 % 1018,0 hPa 0,0 mm 0,0 km/h (0 Bft) S-SW 194 0 min 0,000 mm 1,3 UV-I 132 W/m 15,6 C 0,0 km/h (0 Bft)
29.08.2016 14:24 17,1 C 17,1 C 91 % 1018,0 hPa 0,0 mm 0,0 km/h (0 Bft) S-SW 194 0 min 0,000 mm 1,3 UV-I 134 W/m 15,6 C 0,0 km/h (0 Bft)
29.08.2016 14:25 17,1 C 17,1 C 92 % 1018,0 hPa 0,0 mm 0,0 km/h (0 Bft) S-SW 194 0 min 0,000 mm 1,3 UV-I 137 W/m 15,8 C 0,0 km/h (0 Bft)
29.08.2016 14:26 17,1 C 17,2 C 91 % 1018,0 hPa 0,0 mm 0,0 km/h (0 Bft) S-SW 194 0 min 0,000 mm 1,3 UV-I 139 W/m 15,6 C 0,0 km/h (0 Bft)
29.08.2016 14:27 17,1 C 17,1 C 91 % 1018,0 hPa 0,0 mm 0,0 km/h (0 Bft) S-SW 194 0 min 0,000 mm 1,4 UV-I 144 W/m 15,6 C 0,0 km/h (0 Bft)
29.08.2016 14:28 17,1 C 17,1 C 91 % 1018,1 hPa 0,0 mm 0,0 km/h (0 Bft) S-SW 194 0 min 0,000 mm 1,4 UV-I 146 W/m 15,6 C 0,0 km/h (0 Bft)
29.08.2016 14:29 17,1 C 17,1 C 92 % 1018,1 hPa 0,0 mm 0,0 km/h (0 Bft) S-SW 195 0 min 0,000 mm 1,4 UV-I 148 W/m 15,8 C 0,0 km/h (0 Bft)
29.08.2016 14:30 17,1 C 17,1 C 92 % 1018,1 hPa 0,0 mm 2,1 km/h (1 Bft) SW 228 0 min 0,000 mm 1,4 UV-I 149 W/m 15,8 C 3,2 km/h (1 Bft)
29.08.2016 14:31 17,2 C 17,2 C 93 % 1018,1 hPa 0,2 mm 2,2 km/h (1 Bft) W-SW 238 0 min 0,000 mm 1,4 UV-I 151 W/m 16,1 C 3,2 km/h (1 Bft)
29.08.2016 14:32 17,2 C 17,2 C 92 % 1018,1 hPa 0,0 mm 1,1 km/h (1 Bft) W-SW 238 0 min 0,000 mm 1,4 UV-I 151 W/m 15,9 C 1,6 km/h (1 Bft)
29.08.2016 14:33 17,3 C 17,3 C 93 % 1018,2 hPa 0,0 mm 1,9 km/h (1 Bft) W-NW 283 0 min 0,000 mm 1,4 UV-I 144 W/m 16,2 C 3,2 km/h (1 Bft)
29.08.2016 14:34 17,3 C 17,3 C 93 % 1018,1 hPa 0,0 mm 1,6 km/h (1 Bft) W-NW 283 0 min 0,000 mm 1,3 UV-I 139 W/m 16,2 C 1,6 km/h (1 Bft)
29.08.2016 14:35 17,3 C 17,3 C 93 % 1018,2 hPa 0,0 mm 3,1 km/h (1 Bft) W-NW 283 0 min 0,000 mm 1,2 UV-I 132 W/m 16,2 C 3,2 km/h (1 Bft)
29.08.2016 14:36 17,3 C 17,3 C 92 % 1018,2 hPa 0,0 mm 1,8 km/h (1 Bft) W-NW 283 0 min 0,000 mm 1,1 UV-I 125 W/m 16,0 C 3,2 km/h (1 Bft)
29.08.2016 14:37 17,3 C 17,3 C 92 % 1018,2 hPa 0,0 mm 0,8 km/h (0 Bft) W-NW 283 0 min 0,000 mm 1,0 UV-I 120 W/m 16,0 C 1,6 km/h (1 Bft)
29.08.2016 14:38 17,3 C 17,3 C 91 % 1018,2 hPa 0,0 mm 1,8 km/h (1 Bft) W-NW 284 0 min 0,000 mm 0,9 UV-I 113 W/m 15,8 C 3,2 km/h (1 Bft)
29.08.2016 14:39 17,3 C 17,3 C 91 % 1018,2 hPa 0,0 mm 1,9 km/h (1 Bft) W-NW 284 0 min 0,000 mm 0,8 UV-I 102 W/m 15,8 C 3,2 km/h (1 Bft)
29.08.2016 14:40 17,2 C 17,3 C 91 % 1018,2 hPa 0,0 mm 1,7 km/h (1 Bft) W-NW 284 0 min 0,000 mm 0,6 UV-I 83 W/m 15,7 C 3,2 km/h (1 Bft)
29.08.2016 14:41 17,2 C 17,2 C 91 % 1018,2 hPa 0,0 mm 4,1 km/h (1 Bft) W 269 0 min 0,000 mm 0,7 UV-I 83 W/m 15,7 C 6,4 km/h (2 Bft)
29.08.2016 14:42 17,2 C 17,2 C 92 % 1018,2 hPa 0,0 mm 5,1 km/h (1 Bft) W-NW 302 0 min 0,000 mm 0,8 UV-I 91 W/m 15,9 C 6,4 km/h (2 Bft)
29.08.2016 14:43 17,2 C 17,2 C 92 % 1018,2 hPa 0,0 mm 3,5 km/h (1 Bft) W-SW 241 0 min 0,000 mm 1,0 UV-I 116 W/m 15,9 C 6,4 km/h (2 Bft)
29.08.2016 14:44 17,1 C 17,2 C 91 % 1018,2 hPa 0,0 mm 6,4 km/h (2 Bft) W-SW 240 0 min 0,000 mm 1,3 UV-I 144 W/m 15,6 C 11,3 km/h (2 Bft)
29.08.2016 14:45 17,1 C 17,1 C 91 % 1018,2 hPa 0,0 mm 5,0 km/h (1 Bft) W 263 0 min 0,000 mm 1,5 UV-I 186 W/m 15,6 C 6,4 km/h (2 Bft)
29.08.2016 14:46 17,1 C 17,1 C 91 % 1018,2 hPa 0,0 mm 2,9 km/h (1 Bft) W-SW 243 0 min 0,000 mm 1,8 UV-I 202 W/m 15,6 C 4,8 km/h (1 Bft)
29.08.2016 14:47 17,2 C 17,2 C 92 % 1018,1 hPa 0,0 mm 5,0 km/h (1 Bft) W-SW 255 0 min 0,000 mm 1,9 UV-I 214 W/m 15,9 C 6,4 km/h (2 Bft)
29.08.2016 14:48 17,2 C 17,2 C 92 % 1018,1 hPa 0,0 mm 2,8 km/h (1 Bft) W-SW 244 0 min 0,000 mm 2,0 UV-I 229 W/m 15,9 C 4,8 km/h (1 Bft)
29.08.2016 14:49 17,2 C 17,2 C 92 % 1018,1 hPa 0,0 mm 1,8 km/h (1 Bft) S-SW 200 0 min 0,000 mm 2,1 UV-I 241 W/m 15,9 C 3,2 km/h (1 Bft)
29.08.2016 14:50 17,2 C 17,2 C 91 % 1018,1 hPa 0,0 mm 1,8 km/h (1 Bft) S 184 0 min 0,000 mm 2,2 UV-I 276 W/m 15,7 C 3,2 km/h (1 Bft)
29.08.2016 14:51 17,2 C 17,2 C 91 % 1018,0 hPa 0,0 mm 2,2 km/h (1 Bft) S-SW 192 0 min 0,000 mm 2,2 UV-I 285 W/m 15,7 C 3,2 km/h (1 Bft)
29.08.2016 14:52 17,2 C 17,2 C 91 % 1018,0 hPa 0,0 mm 1,3 km/h (1 Bft) SW 227 0 min 0,000 mm 2,5 UV-I 315 W/m 15,7 C 4,8 km/h (1 Bft)
29.08.2016 14:53 17,3 C 17,3 C 91 % 1017,9 hPa 0,0 mm 4,1 km/h (1 Bft) W-NW 291 0 min 0,000 mm 2,8 UV-I 378 W/m 15,8 C 4,8 km/h (1 Bft)
29.08.2016 14:54 17,3 C 17,3 C 91 % 1018,0 hPa 0,0 mm 3,0 km/h (1 Bft) W-NW 294 1 min 0,000 mm 3,0 UV-I 436 W/m 15,8 C 4,8 km/h (1 Bft)
29.08.2016 14:55 17,4 C 17,4 C 92 % 1018,0 hPa 0,0 mm 3,8 km/h (1 Bft) W 259 0 min 0,000 mm 2,8 UV-I 378 W/m 16,1 C 4,8 km/h (1 Bft)
29.08.2016 14:56 17,5 C 17,5 C 91 % 1018,0 hPa 0,0 mm 3,3 km/h (1 Bft) NW 306 0 min 0,000 mm 2,8 UV-I 383 W/m 16,0 C 6,4 km/h (2 Bft)
29.08.2016 14:57 17,6 C 17,6 C 91 % 1018,0 hPa 0,0 mm 5,3 km/h (1 Bft) W-NW 302 1 min 0,000 mm 3,0 UV-I 411 W/m 16,1 C 6,4 km/h (2 Bft)
29.08.2016 14:58 17,6 C 17,6 C 92 % 1018,0 hPa 0,0 mm 4,8 km/h (1 Bft) W-SW 257 1 min 0,000 mm 3,1 UV-I 422 W/m 16,3 C 4,8 km/h (1 Bft)
29.08.2016 14:59 17,6 C 17,6 C 91 % 1018,0 hPa 0,0 mm 4,2 km/h (1 Bft) W 261 0 min 0,000 mm 2,9 UV-I 355 W/m 16,1 C 6,4 km/h (2 Bft)
29.08.2016 15:00 17,7 C 17,7 C 90 % 1018,0 hPa 0,0 mm 5,3 km/h (1 Bft) W-SW 256 0 min 0,000 mm 2,8 UV-I 325 W/m 16,0 C 6,4 km/h (2 Bft)
29.08.2016 15:01 17,7 C 17,7 C 90 % 1018,0 hPa 0,0 mm 3,2 km/h (1 Bft) W 259 0 min 0,000 mm 2,7 UV-I 304 W/m 16,0 C 4,8 km/h (1 Bft)
29.08.2016 15:02 17,7 C 17,7 C 91 % 1018,0 hPa 0,0 mm 3,1 km/h (1 Bft) W 277 0 min 0,000 mm 2,6 UV-I 287 W/m 16,2 C 4,8 km/h (1 Bft)
29.08.2016 15:03 17,7 C 17,7 C 90 % 1017,9 hPa 0,0 mm 4,6 km/h (1 Bft) W 268 0 min 0,000 mm 2,7 UV-I 302 W/m 16,0 C 6,4 km/h (2 Bft)
29.08.2016 15:04 17,7 C 17,7 C 90 % 1018,0 hPa 0,0 mm 4,6 km/h (1 Bft) SW 227 0 min 0,000 mm 2,6 UV-I 302 W/m 16,0 C 9,7 km/h (2 Bft)
29.08.2016 15:05 17,7 C 17,7 C 90 % 1018,0 hPa 0,0 mm 1,9 km/h (1 Bft) SW 221 0 min 0,000 mm 2,6 UV-I 301 W/m 16,0 C 3,2 km/h (1 Bft)
29.08.2016 15:06 17,7 C 17,7 C 90 % 1017,9 hPa 0,0 mm 1,7 km/h (1 Bft) SW 219 0 min 0,000 mm 2,6 UV-I 294 W/m 16,0 C 3,2 km/h (1 Bft)
29.08.2016 15:07 17,7 C 17,7 C 90 % 1017,8 hPa 0,0 mm 2,1 km/h (1 Bft) SW 226 0 min 0,000 mm 2,6 UV-I 294 W/m 16,0 C 3,2 km/h (1 Bft)
29.08.2016 15:08 17,7 C 17,7 C 92 % 1017,8 hPa 0,0 mm 0,7 km/h (0 Bft) SW 226 0 min 0,000 mm 2,5 UV-I 299 W/m 16,4 C 1,6 km/h (1 Bft)
29.08.2016 15:09 17,7 C 17,7 C 90 % 1017,8 hPa 0,0 mm 1,4 km/h (1 Bft) SW 219 0 min 0,000 mm 2,7 UV-I 325 W/m 16,0 C 3,2 km/h (1 Bft)
29.08.2016 15:10 17,7 C 17,7 C 89 % 1017,8 hPa 0,0 mm 3,1 km/h (1 Bft) W 275 0 min 0,000 mm 2,7 UV-I 330 W/m 15,9 C 3,2 km/h (1 Bft)
29.08.2016 15:11 17,7 C 17,7 C 90 % 1017,8 hPa 0,0 mm 1,2 km/h (1 Bft) W 275 0 min 0,000 mm 2,8 UV-I 341 W/m 16,0 C 3,2 km/h (1 Bft)
29.08.2016 15:12 17,7 C 17,7 C 90 % 1017,7 hPa 0,0 mm 0,0 km/h (0 Bft) W 275 0 min 0,000 mm 2,8 UV-I 352 W/m 16,0 C 0,0 km/h (0 Bft)
29.08.2016 15:13 17,9 C 17,9 C 92 % 1017,7 hPa 0,0 mm 0,0 km/h (0 Bft) W 275 1 min 0,000 mm 3,0 UV-I 443 W/m 16,6 C 0,0 km/h (0 Bft)
29.08.2016 15:14 18,1 C 18,1 C 94 % 1017,7 hPa 0,0 mm 2,5 km/h (1 Bft) SW 229 0 min 0,000 mm 2,9 UV-I 371 W/m 17,1 C 4,8 km/h (1 Bft)
29.08.2016 15:15 18,2 C 18,2 C 93 % 1017,6 hPa 0,0 mm 3,6 km/h (1 Bft) W-SW 258 1 min 0,000 mm 3,0 UV-I 381 W/m 17,0 C 6,4 km/h (2 Bft)
29.08.2016 15:16 18,2 C 18,2 C 90 % 1017,6 hPa 0,0 mm 2,4 km/h (1 Bft) SW 229 1 min 0,000 mm 3,1 UV-I 390 W/m 16,5 C 4,8 km/h (1 Bft)
29.08.2016 15:17 18,2 C 18,2 C 90 % 1017,6 hPa 0,0 mm 1,9 km/h (1 Bft) S-SO 163 1 min 0,000 mm 3,1 UV-I 385 W/m 16,5 C 3,2 km/h (1 Bft)
29.08.2016 15:18 18,2 C 18,2 C 90 % 1017,6 hPa 0,0 mm 0,5 km/h (0 Bft) S-SO 163 1 min 0,000 mm 3,0 UV-I 404 W/m 16,5 C 1,6 km/h (1 Bft)
29.08.2016 15:19 18,3 C 18,3 C 91 % 1017,6 hPa 0,0 mm 3,0 km/h (1 Bft) W-NW 298 1 min 0,000 mm 2,9 UV-I 478 W/m 16,8 C 6,4 km/h (2 Bft)
29.08.2016 15:20 18,4 C 18,4 C 91 % 1017,7 hPa 0,0 mm 3,7 km/h (1 Bft) W-SW 257 0 min 0,000 mm 3,0 UV-I 330 W/m 16,9 C 4,8 km/h (1 Bft)
29.08.2016 15:21 18,4 C 18,4 C 89 % 1017,6 hPa 0,0 mm 3,0 km/h (1 Bft) W 263 0 min 0,000 mm 2,6 UV-I 316 W/m 16,6 C 4,8 km/h (1 Bft)
29.08.2016 15:22 18,4 C 18,4 C 90 % 1017,6 hPa 0,0 mm 1,4 km/h (1 Bft) W 274 0 min 0,000 mm 2,6 UV-I 316 W/m 16,7 C 3,2 km/h (1 Bft)
29.08.2016 15:23 18,4 C 18,4 C 90 % 1017,6 hPa 0,0 mm 0,9 km/h (0 Bft) W 274 0 min 0,000 mm 2,5 UV-I 315 W/m 16,7 C 3,2 km/h (1 Bft)
29.08.2016 15:24 18,4 C 18,4 C 90 % 1017,6 hPa 0,0 mm 0,7 km/h (0 Bft) W 274 1 min 0,000 mm 3,6 UV-I 383 W/m 16,7 C 1,6 km/h (1 Bft)
29.08.2016 15:25 18,6 C 18,6 C 91 % 1017,6 hPa 0,0 mm 0,1 km/h (0 Bft) W 274 0 min 0,000 mm 2,4 UV-I 290 W/m 17,1 C 1,6 km/h (1 Bft)
29.08.2016 15:26 18,6 C 18,6 C 89 % 1017,5 hPa 0,0 mm 0,0 km/h (0 Bft) W 274 0 min 0,000 mm 2,4 UV-I 287 W/m 16,7 C 0,0 km/h (0 Bft)
29.08.2016 15:27 18,6 C 18,6 C 90 % 1017,5 hPa 0,0 mm 0,8 km/h (0 Bft) W-SW 242 0 min 0,000 mm 2,3 UV-I 290 W/m 16,9 C 1,6 km/h (1 Bft)
29.08.2016 15:28 18,6 C 18,6 C 90 % 1017,5 hPa 0,0 mm 0,5 km/h (0 Bft) SW 217 0 min 0,000 mm 2,4 UV-I 297 W/m 16,9 C 1,6 km/h (1 Bft)
29.08.2016 15:29 18,7 C 18,7 C 92 % 1017,5 hPa 0,0 mm 1,1 km/h (1 Bft) SW 221 0 min 0,000 mm 2,5 UV-I 315 W/m 17,4 C 3,2 km/h (1 Bft)
29.08.2016 15:30 18,7 C 18,7 C 90 % 1017,5 hPa 0,0 mm 3,2 km/h (1 Bft) SW 220 0 min 0,000 mm 4,2 UV-I 315 W/m 17,0 C 6,4 km/h (2 Bft)
29.08.2016 15:31 18,8 C 18,8 C 89 % 1017,5 hPa 0,0 mm 4,1 km/h (1 Bft) W 269 1 min 0,000 mm 3,1 UV-I 438 W/m 16,9 C 6,4 km/h (2 Bft)
29.08.2016 15:32 18,8 C 18,8 C 89 % 1017,5 hPa 0,0 mm 4,0 km/h (1 Bft) W 275 1 min 0,000 mm 4,3 UV-I 721 W/m 16,9 C 6,4 km/h (2 Bft)
29.08.2016 15:33 18,9 C 18,9 C 88 % 1017,5 hPa 0,0 mm 4,4 km/h (1 Bft) W-NW 292 1 min 0,000 mm 3,1 UV-I 624 W/m 16,9 C 9,7 km/h (2 Bft)
29.08.2016 15:34 19,0 C 19,0 C 88 % 1017,5 hPa 0,0 mm 2,6 km/h (1 Bft) W 279 1 min 0,000 mm 2,5 UV-I 624 W/m 17,0 C 4,8 km/h (1 Bft)
29.08.2016 15:35 19,1 C 19,1 C 89 % 1017,5 hPa 0,0 mm 1,5 km/h (1 Bft) W-SW 238 0 min 0,000 mm 2,4 UV-I 272 W/m 17,2 C 6,4 km/h (2 Bft)
29.08.2016 15:36 19,1 C 19,1 C 88 % 1017,5 hPa 0,0 mm 4,5 km/h (1 Bft) W 277 0 min 0,000 mm 2,4 UV-I 267 W/m 17,1 C 6,4 km/h (2 Bft)
29.08.2016 15:37 18,9 C 19,1 C 86 % 1017,5 hPa 0,0 mm 2,7 km/h (1 Bft) W-NW 287 0 min 0,000 mm 2,4 UV-I 255 W/m 16,5 C 3,2 km/h (1 Bft)
29.08.2016 15:38 18,9 C 18,9 C 88 % 1017,5 hPa 0,0 mm 4,8 km/h (1 Bft) SW 226 0 min 0,000 mm 2,3 UV-I 258 W/m 16,9 C 8,0 km/h (2 Bft)
29.08.2016 15:39 18,8 C 18,9 C 87 % 1017,4 hPa 0,0 mm 3,1 km/h (1 Bft) SW 222 0 min 0,000 mm 2,2 UV-I 234 W/m 16,6 C 4,8 km/h (1 Bft)
29.08.2016 15:40 18,8 C 18,8 C 87 % 1017,5 hPa 0,0 mm 1,2 km/h (1 Bft) SW 236 0 min 0,000 mm 2,1 UV-I 221 W/m 16,6 C 4,8 km/h (1 Bft)
29.08.2016 15:41 18,7 C 18,8 C 88 % 1017,5 hPa 0,0 mm 2,8 km/h (1 Bft) W 281 0 min 0,000 mm 2,0 UV-I 209 W/m 16,7 C 4,8 km/h (1 Bft)
29.08.2016 15:42 18,8 C 18,8 C 89 % 1017,5 hPa 0,0 mm 3,8 km/h (1 Bft) W 277 0 min 0,000 mm 1,9 UV-I 192 W/m 16,9 C 4,8 km/h (1 Bft)
29.08.2016 15:43 18,7 C 18,8 C 87 % 1017,5 hPa 0,0 mm 4,6 km/h (1 Bft) W 277 0 min 0,000 mm 1,8 UV-I 160 W/m 16,5 C 6,4 km/h (2 Bft)
29.08.2016 15:44 18,7 C 18,7 C 87 % 1017,5 hPa 0,0 mm 5,6 km/h (1 Bft) W-SW 238 0 min 0,000 mm 1,6 UV-I 153 W/m 16,5 C 6,4 km/h (2 Bft)
29.08.2016 15:45 18,7 C 18,7 C 88 % 1017,5 hPa 0,0 mm 4,8 km/h (1 Bft) W 259 0 min 0,000 mm 1,6 UV-I 151 W/m 16,7 C 6,4 km/h (2 Bft)
29.08.2016 15:46 18,6 C 18,7 C 87 % 1017,5 hPa 0,0 mm 3,2 km/h (1 Bft) W 274 0 min 0,000 mm 1,6 UV-I 155 W/m 16,4 C 4,8 km/h (1 Bft)
29.08.2016 15:47 18,6 C 18,7 C 87 % 1017,5 hPa 0,0 mm 0,9 km/h (0 Bft) W 274 0 min 0,000 mm 1,6 UV-I 156 W/m 16,4 C 3,2 km/h (1 Bft)
29.08.2016 15:48 18,6 C 18,6 C 88 % 1017,5 hPa 0,0 mm 0,8 km/h (0 Bft) W 274 0 min 0,000 mm 1,6 UV-I 158 W/m 16,6 C 1,6 km/h (1 Bft)
29.08.2016 15:49 18,7 C 18,7 C 88 % 1017,5 hPa 0,0 mm 2,0 km/h (1 Bft) NW 326 0 min 0,000 mm 1,6 UV-I 158 W/m 16,7 C 3,2 km/h (1 Bft)
29.08.2016 15:50 18,7 C 18,7 C 88 % 1017,5 hPa 0,0 mm 0,4 km/h (0 Bft) NW 326 0 min 0,000 mm 1,6 UV-I 162 W/m 16,7 C 1,6 km/h (1 Bft)
29.08.2016 15:51 18,7 C 18,7 C 90 % 1017,5 hPa 0,0 mm 0,8 km/h (0 Bft) NW 326 0 min 0,000 mm 1,6 UV-I 167 W/m 17,0 C 1,6 km/h (1 Bft)
29.08.2016 15:52 18,7 C 18,7 C 90 % 1017,5 hPa 0,0 mm 0,9 km/h (0 Bft) NW 326 0 min 0,000 mm 1,7 UV-I 176 W/m 17,0 C 1,6 km/h (1 Bft)
29.08.2016 15:53 18,6 C 18,7 C 89 % 1017,5 hPa 0,0 mm 1,1 km/h (1 Bft) NW 326 0 min 0,000 mm 1,8 UV-I 186 W/m 16,7 C 1,6 km/h (1 Bft)
29.08.2016 15:54 18,6 C 18,7 C 88 % 1017,5 hPa 0,0 mm 1,7 km/h (1 Bft) NW 325 0 min 0,000 mm 1,8 UV-I 195 W/m 16,6 C 3,2 km/h (1 Bft)
29.08.2016 15:55 18,6 C 18,7 C 87 % 1017,5 hPa 0,0 mm 0,5 km/h (0 Bft) NW 325 0 min 0,000 mm 1,9 UV-I 204 W/m 16,4 C 1,6 km/h (1 Bft)
29.08.2016 15:56 18,6 C 18,7 C 90 % 1017,5 hPa 0,0 mm 0,7 km/h (0 Bft) NW 325 0 min 0,000 mm 1,9 UV-I 206 W/m 16,9 C 1,6 km/h (1 Bft)
29.08.2016 15:57 18,6 C 18,6 C 90 % 1017,5 hPa 0,0 mm 0,5 km/h (0 Bft) NW 325 0 min 0,000 mm 1,9 UV-I 209 W/m 16,9 C 1,6 km/h (1 Bft)
29.08.2016 15:58 18,6 C 18,6 C 88 % 1017,4 hPa 0,0 mm 1,0 km/h (0 Bft) NW 325 0 min 0,000 mm 1,9 UV-I 211 W/m 16,6 C 1,6 km/h (1 Bft)
29.08.2016 15:59 18,6 C 18,6 C 88 % 1017,4 hPa 0,0 mm 2,3 km/h (1 Bft) NW 324 0 min 0,000 mm 1,9 UV-I 211 W/m 16,6 C 3,2 km/h (1 Bft)
29.08.2016 16:00 18,6 C 18,6 C 87 % 1017,4 hPa 0,0 mm 0,9 km/h (0 Bft) NW 324 0 min 0,000 mm 1,9 UV-I 211 W/m 16,4 C 3,2 km/h (1 Bft)
29.08.2016 16:01 18,6 C 18,6 C 87 % 1017,3 hPa 0,0 mm 1,8 km/h (1 Bft) NW 322 0 min 0,000 mm 1,9 UV-I 211 W/m 16,4 C 3,2 km/h (1 Bft)
29.08.2016 16:02 18,6 C 18,6 C 87 % 1017,3 hPa 0,0 mm 0,0 km/h (0 Bft) NW 322 0 min 0,000 mm 1,9 UV-I 209 W/m 16,4 C 3,2 km/h (1 Bft)
29.08.2016 16:03 18,6 C 18,6 C 89 % 1017,2 hPa 0,0 mm 0,0 km/h (0 Bft) NW 322 0 min 0,000 mm 1,9 UV-I 207 W/m 16,7 C 0,0 km/h (0 Bft)
29.08.2016 16:04 18,5 C 18,6 C 90 % 1017,2 hPa 0,0 mm 0,1 km/h (0 Bft) NW 322 0 min 0,000 mm 1,9 UV-I 206 W/m 16,8 C 1,6 km/h (1 Bft)
29.08.2016 16:05 18,4 C 18,5 C 91 % 1017,2 hPa 0,0 mm 1,6 km/h (1 Bft) NW 322 0 min 0,000 mm 1,9 UV-I 206 W/m 16,9 C 3,2 km/h (1 Bft)
29.08.2016 16:06 18,4 C 18,4 C 89 % 1017,2 hPa 0,0 mm 0,7 km/h (0 Bft) NW 322 0 min 0,000 mm 1,9 UV-I 206 W/m 16,6 C 3,2 km/h (1 Bft)
29.08.2016 16:07 18,4 C 18,4 C 91 % 1017,1 hPa 0,0 mm 0,2 km/h (0 Bft) NW 322 0 min 0,000 mm 1,9 UV-I 213 W/m 16,9 C 1,6 km/h (1 Bft)
29.08.2016 16:08 18,4 C 18,4 C 90 % 1017,2 hPa 0,0 mm 0,9 km/h (0 Bft) NW 322 0 min 0,000 mm 1,9 UV-I 218 W/m 16,7 C 1,6 km/h (1 Bft)
29.08.2016 16:09 18,4 C 18,4 C 91 % 1017,1 hPa 0,0 mm 0,1 km/h (0 Bft) NW 322 0 min 0,000 mm 1,9 UV-I 221 W/m 16,9 C 1,6 km/h (1 Bft)
29.08.2016 16:10 18,5 C 18,5 C 92 % 1017,2 hPa 0,0 mm 0,0 km/h (0 Bft) NW 322 0 min 0,000 mm 2,0 UV-I 229 W/m 17,2 C 0,0 km/h (0 Bft)
29.08.2016 16:11 18,6 C 18,6 C 92 % 1017,2 hPa 0,0 mm 0,9 km/h (0 Bft) SW 219 0 min 0,000 mm 2,0 UV-I 236 W/m 17,3 C 3,2 km/h (1 Bft)
29.08.2016 16:12 18,6 C 18,6 C 91 % 1017,2 hPa 0,0 mm 1,1 km/h (1 Bft) SW 219 0 min 0,000 mm 2,0 UV-I 241 W/m 17,1 C 1,6 km/h (1 Bft)
29.08.2016 16:13 18,6 C 18,6 C 90 % 1017,2 hPa 0,2 mm 2,7 km/h (1 Bft) W-SW 258 0 min 0,000 mm 2,0 UV-I 234 W/m 16,9 C 3,2 km/h (1 Bft)
29.08.2016 16:14 18,6 C 18,6 C 91 % 1017,1 hPa 0,0 mm 1,5 km/h (1 Bft) W-SW 258 0 min 0,000 mm 2,0 UV-I 230 W/m 17,1 C 3,2 km/h (1 Bft)
29.08.2016 16:15 18,6 C 18,6 C 91 % 1017,2 hPa 0,0 mm 1,4 km/h (1 Bft) W 264 0 min 0,000 mm 2,0 UV-I 230 W/m 17,1 C 3,2 km/h (1 Bft)
29.08.2016 16:16 18,5 C 18,6 C 90 % 1017,2 hPa 0,0 mm 2,1 km/h (1 Bft) W 279 0 min 0,000 mm 2,0 UV-I 232 W/m 16,8 C 3,2 km/h (1 Bft)
29.08.2016 16:17 18,6 C 18,6 C 90 % 1017,2 hPa 0,0 mm 1,0 km/h (0 Bft) W 279 0 min 0,000 mm 2,0 UV-I 230 W/m 16,9 C 1,6 km/h (1 Bft)
29.08.2016 16:18 18,6 C 18,6 C 90 % 1017,2 hPa 0,0 mm 1,1 km/h (1 Bft) W 279 0 min 0,000 mm 2,0 UV-I 223 W/m 16,9 C 1,6 km/h (1 Bft)
29.08.2016 16:19 18,6 C 18,6 C 90 % 1017,2 hPa 0,0 mm 1,6 km/h (1 Bft) W 279 0 min 0,000 mm 2,0 UV-I 230 W/m 16,9 C 3,2 km/h (1 Bft)
29.08.2016 16:20 18,6 C 18,6 C 90 % 1017,2 hPa 0,0 mm 2,7 km/h (1 Bft) W 281 0 min 0,000 mm 2,0 UV-I 230 W/m 16,9 C 4,8 km/h (1 Bft)
29.08.2016 16:21 18,7 C 18,7 C 91 % 1017,2 hPa 0,0 mm 1,1 km/h (1 Bft) S-SW 205 0 min 0,000 mm 2,0 UV-I 243 W/m 17,2 C 3,2 km/h (1 Bft)
29.08.2016 16:22 18,6 C 18,7 C 90 % 1017,2 hPa 0,0 mm 1,4 km/h (1 Bft) S-SW 195 0 min 0,000 mm 2,1 UV-I 248 W/m 16,9 C 3,2 km/h (1 Bft)
29.08.2016 16:23 18,7 C 18,7 C 90 % 1017,2 hPa 0,0 mm 0,5 km/h (0 Bft) S-SW 195 0 min 0,000 mm 2,1 UV-I 251 W/m 17,0 C 1,6 km/h (1 Bft)
29.08.2016 16:24 18,7 C 18,7 C 91 % 1017,2 hPa 0,0 mm 0,0 km/h (0 Bft) S-SW 195 0 min 0,000 mm 2,1 UV-I 258 W/m 17,2 C 0,0 km/h (0 Bft)
29.08.2016 16:25 18,8 C 18,8 C 91 % 1017,2 hPa 0,0 mm 0,1 km/h (0 Bft) S-SW 195 0 min 0,000 mm 2,1 UV-I 251 W/m 17,3 C 1,6 km/h (1 Bft)
29.08.2016 16:26 18,8 C 18,8 C 92 % 1017,2 hPa 0,0 mm 0,3 km/h (0 Bft) S-SW 195 0 min 0,000 mm 2,1 UV-I 243 W/m 17,5 C 1,6 km/h (1 Bft)
29.08.2016 16:27 18,9 C 18,9 C 91 % 1017,3 hPa 0,0 mm 0,3 km/h (0 Bft) S-SW 196 0 min 0,000 mm 2,0 UV-I 236 W/m 17,4 C 1,6 km/h (1 Bft)
29.08.2016 16:28 18,8 C 18,9 C 92 % 1017,2 hPa 0,0 mm 0,3 km/h (0 Bft) S-SW 196 0 min 0,000 mm 2,0 UV-I 229 W/m 17,5 C 1,6 km/h (1 Bft)
29.08.2016 16:29 18,8 C 18,8 C 91 % 1017,3 hPa 0,0 mm 0,0 km/h (0 Bft) S-SW 196 0 min 0,000 mm 2,0 UV-I 223 W/m 17,3 C 0,0 km/h (0 Bft)
29.08.2016 16:30 18,8 C 18,8 C 91 % 1017,3 hPa 0,0 mm 1,2 km/h (1 Bft) S-SW 196 0 min 0,000 mm 2,0 UV-I 220 W/m 17,3 C 1,6 km/h (1 Bft)
29.08.2016 16:31 18,8 C 18,8 C 90 % 1017,3 hPa 0,0 mm 0,8 km/h (0 Bft) S-SW 196 0 min 0,000 mm 2,0 UV-I 221 W/m 17,1 C 1,6 km/h (1 Bft)
29.08.2016 16:32 18,8 C 18,8 C 89 % 1017,2 hPa 0,0 mm 2,9 km/h (1 Bft) W-SW 256 0 min 0,000 mm 2,0 UV-I 221 W/m 16,9 C 4,8 km/h (1 Bft)
29.08.2016 16:33 18,9 C 18,9 C 88 % 1017,2 hPa 0,0 mm 1,0 km/h (0 Bft) W-SW 256 0 min 0,000 mm 2,0 UV-I 221 W/m 16,9 C 1,6 km/h (1 Bft)
29.08.2016 16:34 18,9 C 18,9 C 87 % 1017,3 hPa 0,0 mm 4,3 km/h (1 Bft) W-NW 303 0 min 0,000 mm 2,0 UV-I 214 W/m 16,7 C 4,8 km/h (1 Bft)
29.08.2016 16:35 18,9 C 18,9 C 87 % 1017,3 hPa 0,0 mm 1,9 km/h (1 Bft) W-NW 303 0 min 0,000 mm 1,9 UV-I 207 W/m 16,7 C 4,8 km/h (1 Bft)
29.08.2016 16:36 18,9 C 18,9 C 86 % 1017,3 hPa 0,0 mm 2,8 km/h (1 Bft) NW 308 0 min 0,000 mm 1,9 UV-I 186 W/m 16,5 C 3,2 km/h (1 Bft)
29.08.2016 16:37 19,0 C 19,0 C 86 % 1017,3 hPa 0,0 mm 3,2 km/h (1 Bft) NW 319 0 min 0,000 mm 1,9 UV-I 174 W/m 16,6 C 4,8 km/h (1 Bft)
29.08.2016 16:39 19,1 C 19,1 C 86 % 1017,3 hPa 0,0 mm 1,8 km/h (1 Bft) NW 319 0 min 0,000 mm 1,7 UV-I 169 W/m 16,7 C 3,2 km/h (1 Bft)
29.08.2016 16:40 19,1 C 19,1 C 86 % 1017,4 hPa 0,0 mm 2,1 km/h (1 Bft) NW 319 0 min 0,000 mm 1,7 UV-I 186 W/m 16,7 C 3,2 km/h (1 Bft)
29.08.2016 16:41 19,0 C 19,1 C 86 % 1017,3 hPa 0,0 mm 1,6 km/h (1 Bft) NW 319 0 min 0,000 mm 1,8 UV-I 200 W/m 16,6 C 3,2 km/h (1 Bft)
29.08.2016 16:42 19,1 C 19,1 C 86 % 1017,3 hPa 0,0 mm 0,3 km/h (0 Bft) NW 319 0 min 0,000 mm 1,8 UV-I 197 W/m 16,7 C 1,6 km/h (1 Bft)
29.08.2016 16:43 19,1 C 19,1 C 85 % 1017,3 hPa 0,0 mm 1,6 km/h (1 Bft) S-SW 206 0 min 0,000 mm 1,8 UV-I 193 W/m 16,5 C 3,2 km/h (1 Bft)
29.08.2016 16:44 19,1 C 19,1 C 87 % 1017,3 hPa 0,0 mm 0,0 km/h (0 Bft) S-SW 206 0 min 0,000 mm 1,9 UV-I 186 W/m 16,9 C 0,0 km/h (0 Bft)
29.08.2016 16:45 19,1 C 19,1 C 86 % 1017,3 hPa 0,0 mm 1,8 km/h (1 Bft) S-SW 207 0 min 0,000 mm 1,9 UV-I 183 W/m 16,7 C 3,2 km/h (1 Bft)
29.08.2016 16:47 19,0 C 19,1 C 85 % 1017,3 hPa 0,0 mm 0,5 km/h (0 Bft) S-SW 207 0 min 0,000 mm 1,9 UV-I 183 W/m 16,4 C 1,6 km/h (1 Bft)
29.08.2016 16:48 19,0 C 19,1 C 85 % 1017,2 hPa 0,0 mm 0,0 km/h (0 Bft) S-SW 207 0 min 0,000 mm 1,9 UV-I 169 W/m 16,4 C 0,0 km/h (0 Bft)
29.08.2016 16:49 19,1 C 19,1 C 86 % 1017,2 hPa 0,0 mm 0,0 km/h (0 Bft) S-SW 207 0 min 0,000 mm 1,8 UV-I 162 W/m 16,7 C 0,0 km/h (0 Bft)
29.08.2016 16:50 19,2 C 19,2 C 87 % 1017,3 hPa 0,0 mm 1,6 km/h (1 Bft) S-SW 207 0 min 0,000 mm 1,8 UV-I 155 W/m 17,0 C 3,2 km/h (1 Bft)
29.08.2016 16:51 19,2 C 19,2 C 86 % 1017,2 hPa 0,0 mm 2,9 km/h (1 Bft) W-NW 286 0 min 0,000 mm 1,7 UV-I 155 W/m 16,8 C 4,8 km/h (1 Bft)
29.08.2016 16:52 19,2 C 19,2 C 85 % 1017,3 hPa 0,0 mm 1,4 km/h (1 Bft) W-NW 286 0 min 0,000 mm 1,7 UV-I 146 W/m 16,6 C 1,6 km/h (1 Bft)
29.08.2016 16:53 19,2 C 19,3 C 84 % 1017,3 hPa 0,0 mm 2,1 km/h (1 Bft) SW 228 0 min 0,000 mm 1,7 UV-I 146 W/m 16,4 C 4,8 km/h (1 Bft)
29.08.2016 16:54 19,2 C 19,2 C 83 % 1017,3 hPa 0,0 mm 0,7 km/h (0 Bft) SW 228 0 min 0,000 mm 1,7 UV-I 151 W/m 16,2 C 1,6 km/h (1 Bft)
29.08.2016 16:55 19,2 C 19,2 C 84 % 1017,2 hPa 0,0 mm 0,4 km/h (0 Bft) S-SW 208 0 min 0,000 mm 1,6 UV-I 144 W/m 16,4 C 1,6 km/h (1 Bft)
29.08.2016 16:56 19,2 C 19,2 C 84 % 1017,3 hPa 0,0 mm 1,4 km/h (1 Bft) S-SW 207 0 min 0,000 mm 1,6 UV-I 130 W/m 16,4 C 1,6 km/h (1 Bft)
29.08.2016 16:57 19,2 C 19,2 C 85 % 1017,3 hPa 0,0 mm 2,9 km/h (1 Bft) W-SW 253 0 min 0,000 mm 1,6 UV-I 125 W/m 16,6 C 6,4 km/h (2 Bft)
29.08.2016 16:58 19,2 C 19,2 C 85 % 1017,2 hPa 0,0 mm 2,7 km/h (1 Bft) W 269 0 min 0,000 mm 1,5 UV-I 123 W/m 16,6 C 3,2 km/h (1 Bft)
29.08.2016 16:59 19,2 C 19,2 C 84 % 1017,2 hPa 0,0 mm 2,5 km/h (1 Bft) W 269 0 min 0,000 mm 1,5 UV-I 127 W/m 16,4 C 3,2 km/h (1 Bft)
29.08.2016 17:00 19,2 C 19,2 C 85 % 1017,2 hPa 0,0 mm 1,6 km/h (1 Bft) W 265 0 min 0,000 mm 1,5 UV-I 139 W/m 16,6 C 3,2 km/h (1 Bft)
29.08.2016 17:02 19,2 C 19,2 C 85 % 1017,2 hPa 0,0 mm 2,0 km/h (1 Bft) W 265 0 min 0,000 mm 1,6 UV-I 142 W/m 16,6 C 3,2 km/h (1 Bft)
29.08.2016 17:03 19,2 C 19,2 C 85 % 1017,2 hPa 0,0 mm 1,6 km/h (1 Bft) W 265 0 min 0,000 mm 1,6 UV-I 137 W/m 16,6 C 1,6 km/h (1 Bft)
29.08.2016 17:04 19,3 C 19,3 C 86 % 1017,2 hPa 0,0 mm 3,2 km/h (1 Bft) W 265 0 min 0,000 mm 1,5 UV-I 130 W/m 16,9 C 3,2 km/h (1 Bft)
29.08.2016 17:05 19,2 C 19,3 C 85 % 1017,3 hPa 0,0 mm 3,2 km/h (1 Bft) W 265 0 min 0,000 mm 1,4 UV-I 118 W/m 16,6 C 3,2 km/h (1 Bft)
29.08.2016 17:06 19,2 C 19,3 C 84 % 1017,3 hPa 0,0 mm 2,7 km/h (1 Bft) W 280 0 min 0,000 mm 1,4 UV-I 111 W/m 16,4 C 4,8 km/h (1 Bft)
29.08.2016 17:07 19,2 C 19,2 C 85 % 1017,3 hPa 0,0 mm 2,1 km/h (1 Bft) W 281 0 min 0,000 mm 1,3 UV-I 111 W/m 16,6 C 3,2 km/h (1 Bft)
29.08.2016 17:08 19,2 C 19,2 C 84 % 1017,3 hPa 0,0 mm 2,4 km/h (1 Bft) NW 304 0 min 0,000 mm 1,3 UV-I 111 W/m 16,4 C 4,8 km/h (1 Bft)
29.08.2016 17:09 19,2 C 19,2 C 87 % 1017,4 hPa 0,0 mm 1,0 km/h (0 Bft) NW 304 0 min 0,000 mm 1,3 UV-I 109 W/m 17,0 C 3,2 km/h (1 Bft)
29.08.2016 17:11 19,1 C 19,2 C 87 % 1017,4 hPa 0,0 mm 0,8 km/h (0 Bft) NW 304 0 min 0,000 mm 1,3 UV-I 109 W/m 16,9 C 1,6 km/h (1 Bft)
29.08.2016 17:12 19,0 C 19,1 C 88 % 1017,3 hPa 0,0 mm 3,2 km/h (1 Bft) SW 225 0 min 0,000 mm 1,1 UV-I 135 W/m 17,0 C 4,8 km/h (1 Bft)
29.08.2016 17:13 19,0 C 19,0 C 90 % 1017,3 hPa 0,0 mm 1,6 km/h (1 Bft) W-SW 247 0 min 0,000 mm 1,1 UV-I 142 W/m 17,3 C 3,2 km/h (1 Bft)
29.08.2016 17:14 19,0 C 19,0 C 89 % 1017,4 hPa 0,0 mm 1,6 km/h (1 Bft) W-SW 247 0 min 0,000 mm 1,1 UV-I 144 W/m 17,1 C 4,8 km/h (1 Bft)
29.08.2016 17:15 19,1 C 19,1 C 87 % 1017,4 hPa 0,0 mm 3,2 km/h (1 Bft) W-SW 247 0 min 0,000 mm 1,1 UV-I 146 W/m 16,9 C 6,4 km/h (2 Bft)
29.08.2016 17:16 19,1 C 19,1 C 87 % 1017,4 hPa 0,0 mm 4,8 km/h (1 Bft) W 270 0 min 0,000 mm 1,1 UV-I 149 W/m 16,9 C 6,4 km/h (2 Bft)
29.08.2016 17:17 19,1 C 19,1 C 87 % 1017,4 hPa 0,0 mm 4,8 km/h (1 Bft) W 270 0 min 0,000 mm 1,1 UV-I 155 W/m 16,9 C 6,4 km/h (2 Bft)
29.08.2016 17:18 19,2 C 19,2 C 87 % 1017,4 hPa 0,0 mm 3,2 km/h (1 Bft) W 270 0 min 0,000 mm 1,1 UV-I 160 W/m 17,0 C 6,4 km/h (2 Bft)
29.08.2016 17:19 19,1 C 19,2 C 85 % 1017,3 hPa 0,0 mm 4,8 km/h (1 Bft) W-NW 292 0 min 0,000 mm 1,1 UV-I 165 W/m 16,5 C 8,0 km/h (2 Bft)
29.08.2016 17:20 19,2 C 19,2 C 87 % 1017,3 hPa 0,0 mm 6,4 km/h (2 Bft) W-NW 292 0 min 0,000 mm 1,1 UV-I 158 W/m 17,0 C 11,3 km/h (2 Bft)
29.08.2016 17:21 19,1 C 19,2 C 85 % 1017,3 hPa 0,0 mm 3,2 km/h (1 Bft) W-NW 292 0 min 0,000 mm 1,1 UV-I 142 W/m 16,5 C 4,8 km/h (1 Bft)
29.08.2016 17:22 19,1 C 19,1 C 84 % 1017,3 hPa 0,0 mm 4,8 km/h (1 Bft) W 270 0 min 0,000 mm 1,0 UV-I 111 W/m 16,3 C 9,7 km/h (2 Bft)
29.08.2016 17:23 19,1 C 19,1 C 85 % 1017,3 hPa 0,0 mm 4,8 km/h (1 Bft) W 270 0 min 0,000 mm 0,9 UV-I 102 W/m 16,5 C 6,4 km/h (2 Bft)
29.08.2016 17:24 19,0 C 19,1 C 84 % 1017,3 hPa 0,0 mm 3,2 km/h (1 Bft) W 270 0 min 0,000 mm 0,8 UV-I 97 W/m 16,2 C 4,8 km/h (1 Bft)
29.08.2016 17:25 18,9 C 18,9 C 85 % 1017,3 hPa 0,0 mm 3,2 km/h (1 Bft) W 270 0 min 0,000 mm 0,8 UV-I 91 W/m 16,3 C 9,7 km/h (2 Bft)
29.08.2016 17:26 18,8 C 18,9 C 84 % 1017,3 hPa 0,0 mm 4,8 km/h (1 Bft) W-SW 247 0 min 0,000 mm 0,7 UV-I 88 W/m 16,0 C 9,7 km/h (2 Bft)
29.08.2016 17:27 18,8 C 18,8 C 83 % 1017,3 hPa 0,0 mm 1,6 km/h (1 Bft) W-SW 247 0 min 0,000 mm 0,7 UV-I 86 W/m 15,8 C 3,2 km/h (1 Bft)
29.08.2016 17:28 18,7 C 18,8 C 85 % 1017,3 hPa 0,0 mm 1,6 km/h (1 Bft) SW 225 0 min 0,000 mm 0,7 UV-I 83 W/m 16,1 C 3,2 km/h (1 Bft)
29.08.2016 17:29 18,6 C 18,7 C 85 % 1017,3 hPa 0,0 mm 3,2 km/h (1 Bft) S-SW 202 0 min 0,000 mm 0,6 UV-I 81 W/m 16,0 C 3,2 km/h (1 Bft)
29.08.2016 17:30 18,5 C 18,6 C 84 % 1017,4 hPa 0,0 mm 1,6 km/h (1 Bft) S-SW 202 0 min 0,000 mm 0,6 UV-I 81 W/m 15,7 C 4,8 km/h (1 Bft)
29.08.2016 17:31 18,4 C 18,5 C 85 % 1017,4 hPa 0,0 mm 1,6 km/h (1 Bft) S-SW 202 0 min 0,000 mm 0,6 UV-I 83 W/m 15,8 C 3,2 km/h (1 Bft)
29.08.2016 17:32 18,3 C 18,4 C 87 % 1017,4 hPa 0,0 mm 1,6 km/h (1 Bft) S-SW 202 0 min 0,000 mm 0,6 UV-I 84 W/m 16,1 C 3,2 km/h (1 Bft)
29.08.2016 17:33 18,2 C 18,3 C 87 % 1017,4 hPa 0,0 mm 1,6 km/h (1 Bft) S-SW 202 0 min 0,000 mm 0,6 UV-I 93 W/m 16,0 C 3,2 km/h (1 Bft)
29.08.2016 17:34 18,1 C 18,2 C 87 % 1017,4 hPa 0,0 mm 1,6 km/h (1 Bft) S 180 0 min 0,000 mm 0,7 UV-I 100 W/m 15,9 C 4,8 km/h (1 Bft)
29.08.2016 17:35 18,1 C 18,1 C 88 % 1017,4 hPa 0,0 mm 0,0 km/h (0 Bft) S 180 0 min 0,000 mm 0,7 UV-I 107 W/m 16,1 C 1,6 km/h (1 Bft)
29.08.2016 17:36 17,9 C 18,1 C 89 % 1017,4 hPa 0,0 mm 1,6 km/h (1 Bft) S 180 0 min 0,000 mm 0,8 UV-I 114 W/m 16,1 C 3,2 km/h (1 Bft)
29.08.2016 17:37 17,9 C 17,9 C 89 % 1017,3 hPa 0,0 mm 1,6 km/h (1 Bft) S 180 0 min 0,000 mm 0,8 UV-I 123 W/m 16,1 C 3,2 km/h (1 Bft)
29.08.2016 17:38 17,9 C 17,9 C 90 % 1017,3 hPa 0,0 mm 0,0 km/h (0 Bft) S 180 0 min 0,000 mm 0,9 UV-I 135 W/m 16,2 C 1,6 km/h (1 Bft)
29.08.2016 17:39 17,9 C 17,9 C 90 % 1017,3 hPa 0,0 mm 1,6 km/h (1 Bft) S 180 0 min 0,000 mm 1,0 UV-I 156 W/m 16,2 C 1,6 km/h (1 Bft)
29.08.2016 17:40 17,9 C 17,9 C 91 % 1017,4 hPa 0,0 mm 1,6 km/h (1 Bft) S 180 0 min 0,000 mm 1,0 UV-I 149 W/m 16,4 C 1,6 km/h (1 Bft)
29.08.2016 17:41 17,9 C 17,9 C 91 % 1017,3 hPa 0,0 mm 0,0 km/h (0 Bft) S 180 0 min 0,000 mm 1,0 UV-I 141 W/m 16,4 C 1,6 km/h (1 Bft)
29.08.2016 17:42 18,0 C 18,0 C 90 % 1017,3 hPa 0,0 mm 1,6 km/h (1 Bft) S 180 0 min 0,000 mm 1,0 UV-I 135 W/m 16,3 C 1,6 km/h (1 Bft)
29.08.2016 17:43 18,0 C 18,0 C 90 % 1017,3 hPa 0,0 mm 1,6 km/h (1 Bft) S 180 0 min 0,000 mm 1,0 UV-I 134 W/m 16,3 C 1,6 km/h (1 Bft)
29.08.2016 17:44 18,1 C 18,1 C 90 % 1017,3 hPa 0,0 mm 0,0 km/h (0 Bft) S 180 0 min 0,000 mm 1,0 UV-I 130 W/m 16,4 C 1,6 km/h (1 Bft)
29.08.2016 17:45 18,1 C 18,1 C 91 % 1017,3 hPa 0,0 mm 0,0 km/h (0 Bft) S 180 0 min 0,000 mm 1,0 UV-I 123 W/m 16,6 C 1,6 km/h (1 Bft)
29.08.2016 17:46 18,1 C 18,1 C 90 % 1017,3 hPa 0,0 mm 0,0 km/h (0 Bft) S 180 0 min 0,000 mm 1,0 UV-I 107 W/m 16,4 C 1,6 km/h (1 Bft)
29.08.2016 17:47 18,2 C 18,2 C 90 % 1017,3 hPa 0,0 mm 1,6 km/h (1 Bft) S 180 0 min 0,000 mm 0,9 UV-I 104 W/m 16,5 C 1,6 km/h (1 Bft)
29.08.2016 17:48 18,3 C 18,3 C 86 % 1017,3 hPa 0,0 mm 1,6 km/h (1 Bft) S-SW 202 0 min 0,000 mm 0,9 UV-I 98 W/m 15,9 C 3,2 km/h (1 Bft)
29.08.2016 17:49 18,4 C 18,4 C 86 % 1017,3 hPa 0,0 mm 3,2 km/h (1 Bft) SW 225 0 min 0,000 mm 0,9 UV-I 93 W/m 16,0 C 4,8 km/h (1 Bft)
29.08.2016 17:50 18,4 C 18,4 C 87 % 1017,3 hPa 0,0 mm 4,8 km/h (1 Bft) W-SW 247 0 min 0,000 mm 0,8 UV-I 90 W/m 16,2 C 6,4 km/h (2 Bft)
29.08.2016 17:51 18,4 C 18,4 C 86 % 1017,4 hPa 0,0 mm 1,6 km/h (1 Bft) W-SW 247 0 min 0,000 mm 0,8 UV-I 86 W/m 16,0 C 3,2 km/h (1 Bft)
29.08.2016 17:52 18,4 C 18,4 C 86 % 1017,4 hPa 0,0 mm 1,6 km/h (1 Bft) W-SW 247 0 min 0,000 mm 0,7 UV-I 86 W/m 16,0 C 4,8 km/h (1 Bft)
29.08.2016 17:53 18,4 C 18,4 C 86 % 1017,4 hPa 0,0 mm 3,2 km/h (1 Bft) W-SW 247 0 min 0,000 mm 0,6 UV-I 84 W/m 16,0 C 3,2 km/h (1 Bft)
29.08.2016 17:54 18,4 C 18,5 C 86 % 1017,4 hPa 0,0 mm 1,6 km/h (1 Bft) W-SW 247 0 min 0,000 mm 0,6 UV-I 81 W/m 16,0 C 1,6 km/h (1 Bft)
29.08.2016 17:55 18,4 C 18,4 C 88 % 1017,5 hPa 0,0 mm 0,0 km/h (0 Bft) W-SW 247 0 min 0,000 mm 0,5 UV-I 77 W/m 16,4 C 1,6 km/h (1 Bft)
29.08.2016 17:56 18,4 C 18,4 C 85 % 1017,5 hPa 0,0 mm 0,0 km/h (0 Bft) N 0 0 min 0,000 mm 0,5 UV-I 72 W/m 15,8 C 0,0 km/h (0 Bft)
29.08.2016 17:57 18,4 C 18,4 C 86 % 1017,5 hPa 0,0 mm 0,0 km/h (0 Bft) N 0 0 min 0,000 mm 0,5 UV-I 67 W/m 16,0 C 0,0 km/h (0 Bft)
29.08.2016 17:58 18,3 C 18,4 C 87 % 1017,5 hPa 0,0 mm 0,0 km/h (0 Bft) N 0 0 min 0,000 mm 0,0 UV-I 63 W/m 16,1 C 0,0 km/h (0 Bft)
29.08.2016 17:59 18,4 C 18,4 C 85 % 1017,5 hPa 0,0 mm 1,6 km/h (1 Bft) W-SW 247 0 min 0,000 mm 0,0 UV-I 60 W/m 15,8 C 3,2 km/h (1 Bft)
29.08.2016 18:00 18,3 C 18,3 C 87 % 1017,5 hPa 0,0 mm 1,6 km/h (1 Bft) W-SW 247 0 min 0,076 mm 0,0 UV-I 56 W/m 16,1 C 1,6 km/h (1 Bft)
29.08.2016 18:01 18,2 C 18,3 C 87 % 1017,5 hPa 0,0 mm 1,6 km/h (1 Bft) W-SW 247 0 min 0,000 mm 0,0 UV-I 54 W/m 16,0 C 1,6 km/h (1 Bft)
29.08.2016 18:02 18,2 C 18,2 C 88 % 1017,5 hPa 0,0 mm 1,6 km/h (1 Bft) W-SW 247 0 min 0,000 mm 0,0 UV-I 54 W/m 16,2 C 3,2 km/h (1 Bft)
29.08.2016 18:03 18,1 C 18,2 C 88 % 1017,6 hPa 0,0 mm 1,6 km/h (1 Bft) W-SW 247 0 min 0,000 mm 0,0 UV-I 56 W/m 16,1 C 3,2 km/h (1 Bft)
29.08.2016 18:04 18,1 C 18,1 C 88 % 1017,6 hPa 0,0 mm 1,6 km/h (1 Bft) S 180 0 min 0,000 mm 0,0 UV-I 58 W/m 16,1 C 3,2 km/h (1 Bft)
29.08.2016 18:05 17,9 C 18,0 C 88 % 1017,5 hPa 0,0 mm 1,6 km/h (1 Bft) S 180 0 min 0,000 mm 0,0 UV-I 62 W/m 15,9 C 3,2 km/h (1 Bft)
29.08.2016 18:06 17,8 C 17,9 C 90 % 1017,6 hPa 0,0 mm 1,6 km/h (1 Bft) S 180 0 min 0,000 mm 0,0 UV-I 63 W/m 16,1 C 1,6 km/h (1 Bft)
29.08.2016 18:07 17,7 C 17,8 C 90 % 1017,6 hPa 0,0 mm 1,6 km/h (1 Bft) S 180 0 min 0,000 mm 0,0 UV-I 63 W/m 16,0 C 3,2 km/h (1 Bft)
29.08.2016 18:08 17,7 C 17,8 C 90 % 1017,6 hPa 0,0 mm 1,6 km/h (1 Bft) S 180 0 min 0,000 mm 0,0 UV-I 63 W/m 16,0 C 1,6 km/h (1 Bft)
29.08.2016 18:09 17,7 C 17,7 C 90 % 1017,6 hPa 0,0 mm 0,0 km/h (0 Bft) S 180 0 min 0,000 mm 0,0 UV-I 60 W/m 16,0 C 1,6 km/h (1 Bft)
29.08.2016 18:10 17,7 C 17,7 C 89 % 1017,6 hPa 0,0 mm 1,6 km/h (1 Bft) S 180 0 min 0,000 mm 0,0 UV-I 56 W/m 15,9 C 3,2 km/h (1 Bft)
29.08.2016 18:11 17,7 C 17,7 C 90 % 1017,6 hPa 0,0 mm 1,6 km/h (1 Bft) S 180 0 min 0,000 mm 0,0 UV-I 53 W/m 16,0 C 3,2 km/h (1 Bft)
29.08.2016 18:12 17,7 C 17,7 C 90 % 1017,6 hPa 0,0 mm 3,2 km/h (1 Bft) S 180 0 min 0,000 mm 0,0 UV-I 49 W/m 16,0 C 3,2 km/h (1 Bft)
29.08.2016 18:13 17,7 C 17,7 C 90 % 1017,6 hPa 0,0 mm 1,6 km/h (1 Bft) S 180 0 min 0,000 mm 0,0 UV-I 47 W/m 16,0 C 4,8 km/h (1 Bft)
29.08.2016 18:14 17,7 C 17,7 C 90 % 1017,7 hPa 0,0 mm 1,6 km/h (1 Bft) S 180 0 min 0,000 mm 0,0 UV-I 46 W/m 16,0 C 3,2 km/h (1 Bft)
29.08.2016 18:15 17,7 C 17,7 C 90 % 1017,7 hPa 0,0 mm 1,6 km/h (1 Bft) S 180 0 min 0,000 mm 0,0 UV-I 42 W/m 16,0 C 3,2 km/h (1 Bft)
29.08.2016 18:16 17,7 C 17,7 C 90 % 1017,6 hPa 0,0 mm 1,6 km/h (1 Bft) S 180 0 min 0,000 mm 0,0 UV-I 42 W/m 16,0 C 4,8 km/h (1 Bft)
29.08.2016 18:17 17,7 C 17,7 C 90 % 1017,7 hPa 0,0 mm 1,6 km/h (1 Bft) S 180 0 min 0,000 mm 0,0 UV-I 42 W/m 16,0 C 3,2 km/h (1 Bft)
29.08.2016 18:18 17,7 C 17,7 C 89 % 1017,7 hPa 0,0 mm 1,6 km/h (1 Bft) S 180 0 min 0,000 mm 0,0 UV-I 42 W/m 15,9 C 4,8 km/h (1 Bft)
29.08.2016 18:19 17,8 C 17,8 C 89 % 1017,6 hPa 0,0 mm 3,2 km/h (1 Bft) S 180 0 min 0,000 mm 0,0 UV-I 39 W/m 16,0 C 6,4 km/h (2 Bft)
29.08.2016 18:20 17,9 C 17,9 C 89 % 1017,7 hPa 0,0 mm 3,2 km/h (1 Bft) S 180 0 min 0,000 mm 0,0 UV-I 35 W/m 16,1 C 6,4 km/h (2 Bft)
29.08.2016 18:21 17,9 C 17,9 C 88 % 1017,7 hPa 0,0 mm 3,2 km/h (1 Bft) S 180 0 min 0,000 mm 0,0 UV-I 28 W/m 15,9 C 3,2 km/h (1 Bft)
29.08.2016 18:22 17,9 C 17,9 C 88 % 1017,7 hPa 0,0 mm 3,2 km/h (1 Bft) S 180 0 min 0,000 mm 0,0 UV-I 26 W/m 15,9 C 4,8 km/h (1 Bft)
29.08.2016 18:23 18,0 C 18,0 C 88 % 1017,7 hPa 0,0 mm 3,2 km/h (1 Bft) S-SW 202 0 min 0,000 mm 0,0 UV-I 25 W/m 16,0 C 4,8 km/h (1 Bft)
29.08.2016 18:24 17,9 C 18,0 C 89 % 1017,7 hPa 0,0 mm 3,2 km/h (1 Bft) S-SW 202 0 min 0,000 mm 0,0 UV-I 25 W/m 16,1 C 4,8 km/h (1 Bft)
29.08.2016 18:25 17,9 C 17,9 C 88 % 1017,8 hPa 0,0 mm 4,8 km/h (1 Bft) S 180 0 min 0,000 mm 0,0 UV-I 26 W/m 15,9 C 6,4 km/h (2 Bft)
29.08.2016 18:26 17,9 C 18,0 C 87 % 1017,8 hPa 0,0 mm 3,2 km/h (1 Bft) S 180 0 min 0,000 mm 0,0 UV-I 28 W/m 15,7 C 4,8 km/h (1 Bft)
29.08.2016 18:27 17,9 C 18,0 C 88 % 1017,7 hPa 0,0 mm 1,6 km/h (1 Bft) S 180 0 min 0,000 mm 0,0 UV-I 28 W/m 15,9 C 4,8 km/h (1 Bft)
29.08.2016 18:28 17,9 C 17,9 C 88 % 1017,7 hPa 0,0 mm 4,8 km/h (1 Bft) S-SW 202 0 min 0,000 mm 0,0 UV-I 28 W/m 15,9 C 6,4 km/h (2 Bft)
29.08.2016 18:29 17,9 C 17,9 C 87 % 1017,8 hPa 0,0 mm 1,6 km/h (1 Bft) S-SW 202 0 min 0,000 mm 0,0 UV-I 28 W/m 15,7 C 3,2 km/h (1 Bft)
29.08.2016 18:30 17,9 C 17,9 C 88 % 1017,7 hPa 0,0 mm 3,2 km/h (1 Bft) S 180 0 min 0,000 mm 0,0 UV-I 26 W/m 15,9 C 6,4 km/h (2 Bft)
29.08.2016 18:31 17,8 C 17,9 C 87 % 1017,7 hPa 0,0 mm 3,2 km/h (1 Bft) S-SW 202 0 min 0,000 mm 0,0 UV-I 30 W/m 15,6 C 4,8 km/h (1 Bft)
29.08.2016 18:32 17,8 C 17,8 C 87 % 1017,7 hPa 0,0 mm 3,2 km/h (1 Bft) S 180 0 min 0,000 mm 0,0 UV-I 30 W/m 15,6 C 4,8 km/h (1 Bft)
29.08.2016 18:33 17,9 C 17,9 C 87 % 1017,7 hPa 0,0 mm 3,2 km/h (1 Bft) S 180 0 min 0,000 mm 0,0 UV-I 30 W/m 15,7 C 4,8 km/h (1 Bft)
29.08.2016 18:34 17,9 C 17,9 C 87 % 1017,7 hPa 0,0 mm 3,2 km/h (1 Bft) S-SW 202 0 min 0,000 mm 0,0 UV-I 28 W/m 15,7 C 4,8 km/h (1 Bft)
29.08.2016 18:35 17,9 C 17,9 C 87 % 1017,7 hPa 0,0 mm 1,6 km/h (1 Bft) S-SW 202 0 min 0,000 mm 0,0 UV-I 28 W/m 15,7 C 4,8 km/h (1 Bft)
29.08.2016 18:36 17,9 C 17,9 C 88 % 1017,7 hPa 0,0 mm 3,2 km/h (1 Bft) S-SW 202 0 min 0,000 mm 0,0 UV-I 26 W/m 15,9 C 4,8 km/h (1 Bft)
29.08.2016 18:37 17,9 C 17,9 C 88 % 1017,7 hPa 0,0 mm 3,2 km/h (1 Bft) S-SW 202 0 min 0,000 mm 0,0 UV-I 25 W/m 15,9 C 4,8 km/h (1 Bft)
29.08.2016 18:38 17,8 C 17,8 C 89 % 1017,6 hPa 0,0 mm 3,2 km/h (1 Bft) S 180 0 min 0,000 mm 0,0 UV-I 21 W/m 16,0 C 4,8 km/h (1 Bft)
29.08.2016 18:39 17,7 C 17,8 C 89 % 1017,7 hPa 0,0 mm 1,6 km/h (1 Bft) S 180 0 min 0,000 mm 0,0 UV-I 19 W/m 15,9 C 3,2 km/h (1 Bft)
29.08.2016 18:40 17,7 C 17,7 C 89 % 1017,7 hPa 0,0 mm 1,6 km/h (1 Bft) S-SW 202 0 min 0,000 mm 0,0 UV-I 18 W/m 15,9 C 3,2 km/h (1 Bft)
29.08.2016 18:41 17,7 C 17,7 C 89 % 1017,7 hPa 0,0 mm 3,2 km/h (1 Bft) S-SW 202 0 min 0,000 mm 0,0 UV-I 16 W/m 15,9 C 6,4 km/h (2 Bft)
29.08.2016 18:42 17,6 C 17,7 C 89 % 1017,7 hPa 0,0 mm 1,6 km/h (1 Bft) S-SW 202 0 min 0,000 mm 0,0 UV-I 16 W/m 15,8 C 3,2 km/h (1 Bft)
29.08.2016 18:43 17,6 C 17,6 C 89 % 1017,7 hPa 0,0 mm 1,6 km/h (1 Bft) S 180 0 min 0,000 mm 0,0 UV-I 16 W/m 15,8 C 3,2 km/h (1 Bft)
29.08.2016 18:44 17,6 C 17,6 C 89 % 1017,7 hPa 0,0 mm 1,6 km/h (1 Bft) S 180 0 min 0,000 mm 0,0 UV-I 14 W/m 15,8 C 1,6 km/h (1 Bft)
29.08.2016 18:45 17,6 C 17,6 C 88 % 1017,7 hPa 0,0 mm 1,6 km/h (1 Bft) S 180 0 min 0,000 mm 0,0 UV-I 14 W/m 15,6 C 3,2 km/h (1 Bft)
29.08.2016 18:46 17,6 C 17,6 C 88 % 1017,7 hPa 0,0 mm 1,6 km/h (1 Bft) S 180 0 min 0,000 mm 0,0 UV-I 14 W/m 15,6 C 3,2 km/h (1 Bft)
29.08.2016 18:47 17,6 C 17,6 C 90 % 1017,8 hPa 0,0 mm 1,6 km/h (1 Bft) S 180 0 min 0,000 mm 0,0 UV-I 14 W/m 15,9 C 3,2 km/h (1 Bft)
29.08.2016 18:48 17,5 C 17,5 C 90 % 1017,7 hPa 0,0 mm 1,6 km/h (1 Bft) S 180 0 min 0,000 mm 0,0 UV-I 14 W/m 15,8 C 3,2 km/h (1 Bft)
29.08.2016 18:49 17,4 C 17,5 C 90 % 1017,7 hPa 0,0 mm 1,6 km/h (1 Bft) S 180 0 min 0,000 mm 0,0 UV-I 16 W/m 15,7 C 1,6 km/h (1 Bft)
29.08.2016 18:50 17,4 C 17,4 C 90 % 1017,8 hPa 0,0 mm 1,6 km/h (1 Bft) S 180 0 min 0,000 mm 0,0 UV-I 16 W/m 15,7 C 3,2 km/h (1 Bft)
29.08.2016 18:51 17,3 C 17,4 C 90 % 1017,7 hPa 0,0 mm 1,6 km/h (1 Bft) S 180 0 min 0,000 mm 0,0 UV-I 18 W/m 15,6 C 1,6 km/h (1 Bft)
29.08.2016 18:52 17,3 C 17,3 C 90 % 1017,8 hPa 0,0 mm 1,6 km/h (1 Bft) S 180 0 min 0,000 mm 0,0 UV-I 16 W/m 15,6 C 3,2 km/h (1 Bft)
29.08.2016 18:53 17,3 C 17,3 C 91 % 1017,8 hPa 0,0 mm 1,6 km/h (1 Bft) S 180 0 min 0,000 mm 0,0 UV-I 16 W/m 15,8 C 3,2 km/h (1 Bft)
29.08.2016 18:54 17,2 C 17,3 C 91 % 1017,8 hPa 0,0 mm 3,2 km/h (1 Bft) S 180 0 min 0,000 mm 0,0 UV-I 16 W/m 15,7 C 3,2 km/h (1 Bft)
29.08.2016 18:55 17,2 C 17,3 C 91 % 1017,8 hPa 0,0 mm 3,2 km/h (1 Bft) S 180 0 min 0,000 mm 0,0 UV-I 14 W/m 15,7 C 3,2 km/h (1 Bft)
29.08.2016 18:56 17,2 C 17,2 C 91 % 1017,8 hPa 0,0 mm 3,2 km/h (1 Bft) S 180 0 min 0,000 mm 0,0 UV-I 12 W/m 15,7 C 3,2 km/h (1 Bft)
29.08.2016 18:57 17,1 C 17,2 C 91 % 1017,8 hPa 0,0 mm 3,2 km/h (1 Bft) S 180 0 min 0,000 mm 0,0 UV-I 12 W/m 15,6 C 4,8 km/h (1 Bft)
29.08.2016 18:58 17,1 C 17,1 C 92 % 1017,8 hPa 0,0 mm 1,6 km/h (1 Bft) S 180 0 min 0,000 mm 0,0 UV-I 11 W/m 15,8 C 3,2 km/h (1 Bft)
29.08.2016 18:59 17,1 C 17,1 C 92 % 1017,8 hPa 0,0 mm 3,2 km/h (1 Bft) S 180 0 min 0,000 mm 0,0 UV-I 11 W/m 15,8 C 3,2 km/h (1 Bft)
29.08.2016 19:00 17,0 C 17,1 C 92 % 1017,8 hPa 0,0 mm 1,6 km/h (1 Bft) S 180 0 min 0,025 mm 0,0 UV-I 11 W/m 15,7 C 3,2 km/h (1 Bft)
29.08.2016 19:01 17,0 C 17,0 C 92 % 1017,8 hPa 0,0 mm 3,2 km/h (1 Bft) S 180 0 min 0,000 mm 0,0 UV-I 11 W/m 15,7 C 3,2 km/h (1 Bft)
29.08.2016 19:02 17,0 C 17,0 C 92 % 1017,8 hPa 0,0 mm 1,6 km/h (1 Bft) S 180 0 min 0,000 mm 0,0 UV-I 11 W/m 15,7 C 3,2 km/h (1 Bft)
29.08.2016 19:03 17,0 C 17,0 C 92 % 1017,8 hPa 0,0 mm 1,6 km/h (1 Bft) S 180 0 min 0,000 mm 0,0 UV-I 11 W/m 15,7 C 3,2 km/h (1 Bft)
29.08.2016 19:04 17,0 C 17,0 C 92 % 1017,7 hPa 0,0 mm 1,6 km/h (1 Bft) S 180 0 min 0,000 mm 0,0 UV-I 11 W/m 15,7 C 3,2 km/h (1 Bft)
29.08.2016 19:05 17,1 C 17,1 C 92 % 1017,7 hPa 0,0 mm 3,2 km/h (1 Bft) S 180 0 min 0,000 mm 0,0 UV-I 11 W/m 15,8 C 3,2 km/h (1 Bft)
29.08.2016 19:06 17,1 C 17,1 C 92 % 1017,8 hPa 0,0 mm 3,2 km/h (1 Bft) S 180 0 min 0,000 mm 0,0 UV-I 11 W/m 15,8 C 4,8 km/h (1 Bft)
29.08.2016 19:07 17,1 C 17,1 C 92 % 1017,8 hPa 0,0 mm 4,8 km/h (1 Bft) S 180 0 min 0,000 mm 0,0 UV-I 11 W/m 15,8 C 6,4 km/h (2 Bft)
29.08.2016 19:08 17,1 C 17,1 C 92 % 1017,7 hPa 0,0 mm 3,2 km/h (1 Bft) S 180 0 min 0,000 mm 0,0 UV-I 9 W/m 15,8 C 6,4 km/h (2 Bft)
29.08.2016 19:09 17,1 C 17,1 C 92 % 1017,7 hPa 0,0 mm 1,6 km/h (1 Bft) S 180 0 min 0,000 mm 0,0 UV-I 9 W/m 15,8 C 3,2 km/h (1 Bft)
29.08.2016 19:10 17,1 C 17,1 C 93 % 1017,7 hPa 0,0 mm 1,6 km/h (1 Bft) S 180 0 min 0,000 mm 0,0 UV-I 9 W/m 16,0 C 3,2 km/h (1 Bft)
29.08.2016 19:11 17,0 C 17,1 C 93 % 1017,7 hPa 0,0 mm 1,6 km/h (1 Bft) S 180 0 min 0,000 mm 0,0 UV-I 9 W/m 15,9 C 3,2 km/h (1 Bft)
29.08.2016 19:12 17,0 C 17,0 C 93 % 1017,8 hPa 0,0 mm 1,6 km/h (1 Bft) S 180 0 min 0,000 mm 0,0 UV-I 9 W/m 15,9 C 3,2 km/h (1 Bft)
29.08.2016 19:13 16,9 C 17,0 C 93 % 1017,8 hPa 0,0 mm 1,6 km/h (1 Bft) S 180 0 min 0,000 mm 0,0 UV-I 7 W/m 15,8 C 3,2 km/h (1 Bft)
29.08.2016 19:14 16,9 C 17,0 C 93 % 1017,8 hPa 0,0 mm 0,0 km/h (0 Bft) S 180 0 min 0,000 mm 0,0 UV-I 7 W/m 15,8 C 1,6 km/h (1 Bft)
29.08.2016 19:15 16,9 C 16,9 C 93 % 1017,8 hPa 0,0 mm 1,6 km/h (1 Bft) S 180 0 min 0,000 mm 0,0 UV-I 7 W/m 15,8 C 1,6 km/h (1 Bft)
29.08.2016 19:16 17,0 C 17,0 C 93 % 1017,8 hPa 0,0 mm 1,6 km/h (1 Bft) S 180 0 min 0,000 mm 0,0 UV-I 9 W/m 15,9 C 3,2 km/h (1 Bft)
29.08.2016 19:17 16,9 C 17,0 C 93 % 1017,8 hPa 0,0 mm 0,0 km/h (0 Bft) S 180 0 min 0,000 mm 0,0 UV-I 9 W/m 15,8 C 3,2 km/h (1 Bft)
29.08.2016 19:18 16,9 C 17,0 C 93 % 1017,9 hPa 0,0 mm 0,0 km/h (0 Bft) S 180 0 min 0,000 mm 0,0 UV-I 9 W/m 15,8 C 1,6 km/h (1 Bft)
29.08.2016 19:19 16,9 C 17,0 C 93 % 1017,8 hPa 0,0 mm 0,0 km/h (0 Bft) N 0 0 min 0,000 mm 0,0 UV-I 9 W/m 15,8 C 0,0 km/h (0 Bft)
29.08.2016 19:20 16,9 C 16,9 C 93 % 1017,9 hPa 0,0 mm 0,0 km/h (0 Bft) N 0 0 min 0,000 mm 0,0 UV-I 9 W/m 15,8 C 0,0 km/h (0 Bft)
29.08.2016 19:21 16,9 C 16,9 C 93 % 1017,9 hPa 0,0 mm 0,0 km/h (0 Bft) N 0 0 min 0,000 mm 0,0 UV-I 9 W/m 15,8 C 0,0 km/h (0 Bft)
29.08.2016 19:22 16,9 C 16,9 C 93 % 1017,9 hPa 0,0 mm 0,0 km/h (0 Bft) N 0 0 min 0,000 mm 0,0 UV-I 9 W/m 15,8 C 0,0 km/h (0 Bft)
29.08.2016 19:23 16,9 C 16,9 C 93 % 1017,9 hPa 0,0 mm 0,0 km/h (0 Bft) N 0 0 min 0,000 mm 0,0 UV-I 9 W/m 15,8 C 0,0 km/h (0 Bft)
29.08.2016 19:24 16,8 C 16,9 C 93 % 1017,9 hPa 0,0 mm 0,0 km/h (0 Bft) S 180 0 min 0,000 mm 0,0 UV-I 9 W/m 15,7 C 1,6 km/h (1 Bft)
29.08.2016 19:25 16,9 C 16,9 C 93 % 1017,9 hPa 0,0 mm 0,0 km/h (0 Bft) S 180 0 min 0,000 mm 0,0 UV-I 7 W/m 15,8 C 1,6 km/h (1 Bft)
29.08.2016 19:33 16,8 C 16,9 C 93 % 1017,9 hPa 0,0 mm 0,0 km/h (0 Bft) N 0 0 min 0,000 mm 0,0 UV-I 9 W/m 15,7 C 0,0 km/h (0 Bft)
29.08.2016 19:34 16,8 C 16,8 C 93 % 1017,9 hPa 0,0 mm 0,0 km/h (0 Bft) N 0 0 min 0,000 mm 0,0 UV-I 9 W/m 15,7 C 0,0 km/h (0 Bft)
29.08.2016 19:35 16,8 C 16,8 C 93 % 1018,0 hPa 0,0 mm 0,0 km/h (0 Bft) N 0 0 min 0,000 mm 0,0 UV-I 9 W/m 15,7 C 0,0 km/h (0 Bft)
29.08.2016 19:36 16,8 C 16,8 C 93 % 1018,0 hPa 0,0 mm 0,0 km/h (0 Bft) N 0 0 min 0,000 mm 0,0 UV-I 9 W/m 15,7 C 0,0 km/h (0 Bft)
29.08.2016 19:37 16,8 C 16,8 C 93 % 1018,1 hPa 0,0 mm 0,0 km/h (0 Bft) N 0 0 min 0,000 mm 0,0 UV-I 9 W/m 15,7 C 0,0 km/h (0 Bft)
29.08.2016 19:38 16,8 C 16,8 C 93 % 1018,1 hPa 0,0 mm 0,0 km/h (0 Bft) N 0 0 min 0,000 mm 0,0 UV-I 9 W/m 15,7 C 0,0 km/h (0 Bft)
29.08.2016 19:39 16,8 C 16,8 C 93 % 1018,0 hPa 0,0 mm 0,0 km/h (0 Bft) S 180 0 min 0,000 mm 0,0 UV-I 9 W/m 15,7 C 1,6 km/h (1 Bft)
29.08.2016 19:40 16,8 C 16,8 C 93 % 1018,0 hPa 0,0 mm 0,0 km/h (0 Bft) S 180 0 min 0,000 mm 0,0 UV-I 9 W/m 15,7 C 1,6 km/h (1 Bft)
29.08.2016 19:41 16,8 C 16,8 C 93 % 1018,0 hPa 0,0 mm 1,6 km/h (1 Bft) S 180 0 min 0,000 mm 0,0 UV-I 7 W/m 15,7 C 1,6 km/h (1 Bft)
29.08.2016 19:42 16,8 C 16,8 C 93 % 1018,0 hPa 0,0 mm 1,6 km/h (1 Bft) S 180 0 min 0,000 mm 0,0 UV-I 9 W/m 15,7 C 1,6 km/h (1 Bft)
29.08.2016 19:43 16,8 C 16,8 C 93 % 1018,0 hPa 0,0 mm 1,6 km/h (1 Bft) S 180 0 min 0,000 mm 0,0 UV-I 9 W/m 15,7 C 1,6 km/h (1 Bft)
29.08.2016 19:44 16,7 C 16,8 C 93 % 1018,0 hPa 0,0 mm 0,0 km/h (0 Bft) S 180 0 min 0,000 mm 0,0 UV-I 11 W/m 15,6 C 1,6 km/h (1 Bft)
29.08.2016 19:45 16,7 C 16,7 C 93 % 1018,1 hPa 0,0 mm 0,0 km/h (0 Bft) S 180 0 min 0,000 mm 0,0 UV-I 11 W/m 15,6 C 1,6 km/h (1 Bft)
29.08.2016 19:46 16,7 C 16,7 C 93 % 1018,0 hPa 0,0 mm 1,6 km/h (1 Bft) S 180 0 min 0,000 mm 0,0 UV-I 12 W/m 15,6 C 1,6 km/h (1 Bft)
29.08.2016 19:47 16,7 C 16,7 C 93 % 1018,0 hPa 0,0 mm 1,6 km/h (1 Bft) S 180 0 min 0,000 mm 0,0 UV-I 12 W/m 15,6 C 1,6 km/h (1 Bft)
29.08.2016 19:48 16,7 C 16,7 C 93 % 1018,0 hPa 0,0 mm 1,6 km/h (1 Bft) S 180 0 min 0,000 mm 0,0 UV-I 11 W/m 15,6 C 3,2 km/h (1 Bft)
29.08.2016 19:49 16,7 C 16,7 C 93 % 1018,0 hPa 0,0 mm 1,6 km/h (1 Bft) S 180 0 min 0,000 mm 0,0 UV-I 11 W/m 15,6 C 1,6 km/h (1 Bft)
29.08.2016 19:50 16,8 C 16,8 C 93 % 1018,1 hPa 0,0 mm 0,0 km/h (0 Bft) S 180 0 min 0,000 mm 0,0 UV-I 7 W/m 15,7 C 1,6 km/h (1 Bft)
29.08.2016 19:51 16,8 C 16,8 C 93 % 1018,1 hPa 0,0 mm 0,0 km/h (0 Bft) S 180 0 min 0,000 mm 0,0 UV-I 7 W/m 15,7 C 1,6 km/h (1 Bft)
29.08.2016 19:52 16,8 C 16,8 C 93 % 1018,1 hPa 0,0 mm 0,0 km/h (0 Bft) S 180 0 min 0,000 mm 0,0 UV-I 7 W/m 15,7 C 1,6 km/h (1 Bft)
29.08.2016 19:53 16,8 C 16,8 C 93 % 1018,0 hPa 0,0 mm 1,6 km/h (1 Bft) S 180 0 min 0,000 mm 0,0 UV-I 7 W/m 15,7 C 1,6 km/h (1 Bft)
29.08.2016 19:54 16,8 C 16,8 C 93 % 1018,1 hPa 0,0 mm 0,0 km/h (0 Bft) S 180 0 min 0,000 mm 0,0 UV-I 5 W/m 15,7 C 1,6 km/h (1 Bft)
29.08.2016 19:55 16,8 C 16,8 C 93 % 1018,1 hPa 0,0 mm 0,0 km/h (0 Bft) S 180 0 min 0,000 mm 0,0 UV-I 5 W/m 15,7 C 1,6 km/h (1 Bft)
29.08.2016 19:56 16,8 C 16,8 C 93 % 1018,1 hPa 0,0 mm 1,6 km/h (1 Bft) S 180 0 min 0,000 mm 0,0 UV-I 5 W/m 15,7 C 1,6 km/h (1 Bft)
29.08.2016 19:57 16,8 C 16,8 C 93 % 1018,1 hPa 0,0 mm 0,0 km/h (0 Bft) S 180 0 min 0,000 mm 0,0 UV-I 0 W/m 15,7 C 1,6 km/h (1 Bft)
29.08.2016 19:58 16,7 C 16,8 C 93 % 1018,1 hPa 0,0 mm 1,6 km/h (1 Bft) S 180 0 min 0,000 mm 0,0 UV-I 0 W/m 15,6 C 1,6 km/h (1 Bft)
29.08.2016 19:59 16,7 C 16,8 C 93 % 1018,1 hPa 0,0 mm 0,0 km/h (0 Bft) S 180 0 min 0,000 mm 0,0 UV-I 0 W/m 15,6 C 1,6 km/h (1 Bft)
29.08.2016 20:00 16,7 C 16,7 C 93 % 1018,2 hPa 0,0 mm 0,0 km/h (0 Bft) S 180 0 min 0,000 mm 0,0 UV-I 0 W/m 15,6 C 1,6 km/h (1 Bft)
29.08.2016 20:01 16,7 C 16,7 C 93 % 1018,2 hPa 0,0 mm 1,6 km/h (1 Bft) S 180 0 min 0,000 mm 0,0 UV-I 0 W/m 15,6 C 3,2 km/h (1 Bft)
29.08.2016 20:02 16,7 C 16,7 C 93 % 1018,3 hPa 0,0 mm 0,0 km/h (0 Bft) S 180 0 min 0,000 mm 0,0 UV-I 0 W/m 15,6 C 1,6 km/h (1 Bft)
29.08.2016 20:03 16,6 C 16,7 C 93 % 1018,3 hPa 0,0 mm 0,0 km/h (0 Bft) N 0 0 min 0,000 mm 0,0 UV-I 0 W/m 15,5 C 0,0 km/h (0 Bft)
29.08.2016 20:04 16,6 C 16,6 C 93 % 1018,3 hPa 0,0 mm 1,6 km/h (1 Bft) S 180 0 min 0,000 mm 0,0 UV-I 0 W/m 15,5 C 3,2 km/h (1 Bft)
29.08.2016 20:05 16,6 C 16,6 C 93 % 1018,3 hPa 0,0 mm 1,6 km/h (1 Bft) S 180 0 min 0,000 mm 0,0 UV-I 0 W/m 15,5 C 3,2 km/h (1 Bft)
29.08.2016 20:06 16,6 C 16,6 C 93 % 1018,3 hPa 0,0 mm 1,6 km/h (1 Bft) S 180 0 min 0,000 mm 0,0 UV-I 0 W/m 15,5 C 3,2 km/h (1 Bft)
29.08.2016 20:07 16,6 C 16,6 C 93 % 1018,3 hPa 0,0 mm 1,6 km/h (1 Bft) S 180 0 min 0,000 mm 0,0 UV-I 0 W/m 15,5 C 3,2 km/h (1 Bft)
29.08.2016 20:08 16,6 C 16,6 C 93 % 1018,3 hPa 0,0 mm 3,2 km/h (1 Bft) S 180 0 min 0,000 mm 0,0 UV-I 0 W/m 15,5 C 3,2 km/h (1 Bft)
29.08.2016 20:09 16,6 C 16,6 C 94 % 1018,3 hPa 0,0 mm 3,2 km/h (1 Bft) S 180 0 min 0,000 mm 0,0 UV-I 0 W/m 15,6 C 6,4 km/h (2 Bft)
29.08.2016 20:10 16,6 C 16,6 C 93 % 1018,3 hPa 0,0 mm 1,6 km/h (1 Bft) S 180 0 min 0,000 mm 0,0 UV-I 0 W/m 15,5 C 3,2 km/h (1 Bft)
29.08.2016 20:11 16,5 C 16,6 C 94 % 1018,3 hPa 0,0 mm 3,2 km/h (1 Bft) S 180 0 min 0,000 mm 0,0 UV-I 0 W/m 15,5 C 6,4 km/h (2 Bft)
29.08.2016 20:12 16,4 C 16,5 C 94 % 1018,3 hPa 0,0 mm 1,6 km/h (1 Bft) S-SO 157 0 min 0,000 mm 0,0 UV-I 0 W/m 15,4 C 3,2 km/h (1 Bft)
29.08.2016 20:13 16,4 C 16,5 C 94 % 1018,3 hPa 0,0 mm 1,6 km/h (1 Bft) S-SO 157 0 min 0,000 mm 0,0 UV-I 0 W/m 15,4 C 3,2 km/h (1 Bft)
29.08.2016 20:14 16,4 C 16,4 C 94 % 1018,4 hPa 0,0 mm 1,6 km/h (1 Bft) S-SO 157 0 min 0,000 mm 0,0 UV-I 0 W/m 15,4 C 1,6 km/h (1 Bft)
29.08.2016 20:15 16,3 C 16,4 C 93 % 1018,4 hPa 0,0 mm 1,6 km/h (1 Bft) S-SO 157 0 min 0,000 mm 0,0 UV-I 0 W/m 15,2 C 3,2 km/h (1 Bft)
29.08.2016 20:16 16,3 C 16,3 C 93 % 1018,4 hPa 0,0 mm 1,6 km/h (1 Bft) S-SO 157 0 min 0,000 mm 0,0 UV-I 0 W/m 15,2 C 3,2 km/h (1 Bft)
29.08.2016 20:17 16,3 C 16,3 C 93 % 1018,4 hPa 0,0 mm 1,6 km/h (1 Bft) S-SO 157 0 min 0,000 mm 0,0 UV-I 0 W/m 15,2 C 1,6 km/h (1 Bft)
29.08.2016 20:18 16,3 C 16,3 C 93 % 1018,4 hPa 0,0 mm 1,6 km/h (1 Bft) S-SO 157 0 min 0,000 mm 0,0 UV-I 0 W/m 15,2 C 1,6 km/h (1 Bft)
29.08.2016 20:19 16,3 C 16,3 C 94 % 1018,4 hPa 0,0 mm 1,6 km/h (1 Bft) S-SO 157 0 min 0,000 mm 0,0 UV-I 0 W/m 15,3 C 3,2 km/h (1 Bft)
29.08.2016 20:20 16,2 C 16,3 C 93 % 1018,4 hPa 0,0 mm 1,6 km/h (1 Bft) S-SO 157 0 min 0,000 mm 0,0 UV-I 0 W/m 15,1 C 1,6 km/h (1 Bft)
29.08.2016 20:21 16,2 C 16,2 C 94 % 1018,4 hPa 0,0 mm 1,6 km/h (1 Bft) S-SO 157 0 min 0,000 mm 0,0 UV-I 0 W/m 15,2 C 3,2 km/h (1 Bft)
29.08.2016 20:22 16,2 C 16,2 C 94 % 1018,4 hPa 0,0 mm 1,6 km/h (1 Bft) S-SO 157 0 min 0,000 mm 0,0 UV-I 0 W/m 15,2 C 3,2 km/h (1 Bft)
29.08.2016 20:23 16,2 C 16,2 C 94 % 1018,4 hPa 0,0 mm 1,6 km/h (1 Bft) S-SO 157 0 min 0,000 mm 0,0 UV-I 0 W/m 15,2 C 3,2 km/h (1 Bft)
29.08.2016 20:24 16,1 C 16,2 C 93 % 1018,4 hPa 0,0 mm 1,6 km/h (1 Bft) S-SO 157 0 min 0,000 mm 0,0 UV-I 0 W/m 15,0 C 3,2 km/h (1 Bft)
29.08.2016 20:25 16,1 C 16,2 C 93 % 1018,5 hPa 0,0 mm 1,6 km/h (1 Bft) S-SO 157 0 min 0,000 mm 0,0 UV-I 0 W/m 15,0 C 3,2 km/h (1 Bft)
29.08.2016 20:26 16,1 C 16,2 C 93 % 1018,5 hPa 0,0 mm 1,6 km/h (1 Bft) S-SO 157 0 min 0,000 mm 0,0 UV-I 0 W/m 15,0 C 1,6 km/h (1 Bft)
29.08.2016 20:27 16,1 C 16,2 C 93 % 1018,5 hPa 0,0 mm 1,6 km/h (1 Bft) S-SO 157 0 min 0,000 mm 0,0 UV-I 0 W/m 15,0 C 1,6 km/h (1 Bft)
29.08.2016 20:28 16,1 C 16,1 C 93 % 1018,5 hPa 0,0 mm 0,0 km/h (0 Bft) S-SO 157 0 min 0,000 mm 0,0 UV-I 0 W/m 15,0 C 1,6 km/h (1 Bft)
29.08.2016 20:29 16,1 C 16,2 C 93 % 1018,5 hPa 0,0 mm 0,0 km/h (0 Bft) S-SO 157 0 min 0,000 mm 0,0 UV-I 0 W/m 15,0 C 1,6 km/h (1 Bft)
29.08.2016 20:30 16,1 C 16,1 C 93 % 1018,5 hPa 0,0 mm 0,0 km/h (0 Bft) S-SO 157 0 min 0,000 mm 0,0 UV-I 0 W/m 15,0 C 1,6 km/h (1 Bft)
29.08.2016 20:31 16,1 C 16,1 C 94 % 1018,5 hPa 0,0 mm 0,0 km/h (0 Bft) N 0 0 min 0,000 mm 0,0 UV-I 0 W/m 15,1 C 0,0 km/h (0 Bft)
29.08.2016 20:32 16,1 C 16,1 C 94 % 1018,5 hPa 0,0 mm 0,0 km/h (0 Bft) S-SO 157 0 min 0,000 mm 0,0 UV-I 0 W/m 15,1 C 1,6 km/h (1 Bft)
29.08.2016 20:33 16,1 C 16,1 C 94 % 1018,5 hPa 0,0 mm 0,0 km/h (0 Bft) S-SO 157 0 min 0,000 mm 0,0 UV-I 0 W/m 15,1 C 1,6 km/h (1 Bft)
29.08.2016 20:34 16,1 C 16,1 C 94 % 1018,5 hPa 0,0 mm 1,6 km/h (1 Bft) S-SO 157 0 min 0,000 mm 0,0 UV-I 0 W/m 15,1 C 3,2 km/h (1 Bft)
29.08.2016 20:35 16,1 C 16,1 C 94 % 1018,5 hPa 0,0 mm 1,6 km/h (1 Bft) S-SO 157 0 min 0,000 mm 0,0 UV-I 0 W/m 15,1 C 3,2 km/h (1 Bft)
29.08.2016 20:36 16,1 C 16,1 C 94 % 1018,5 hPa 0,0 mm 1,6 km/h (1 Bft) S-SO 157 0 min 0,000 mm 0,0 UV-I 0 W/m 15,1 C 1,6 km/h (1 Bft)
29.08.2016 20:37 16,1 C 16,1 C 94 % 1018,6 hPa 0,0 mm 0,0 km/h (0 Bft) S-SO 157 0 min 0,000 mm 0,0 UV-I 0 W/m 15,1 C 1,6 km/h (1 Bft)
29.08.2016 20:38 16,0 C 16,1 C 94 % 1018,6 hPa 0,0 mm 0,0 km/h (0 Bft) S-SO 157 0 min 0,000 mm 0,0 UV-I 0 W/m 15,0 C 1,6 km/h (1 Bft)
29.08.2016 20:39 16,0 C 16,1 C 94 % 1018,6 hPa 0,0 mm 0,0 km/h (0 Bft) N 0 0 min 0,000 mm 0,0 UV-I 0 W/m 15,0 C 0,0 km/h (0 Bft)
29.08.2016 20:40 16,0 C 16,1 C 94 % 1018,7 hPa 0,0 mm 0,0 km/h (0 Bft) N 0 0 min 0,000 mm 0,0 UV-I 0 W/m 15,0 C 0,0 km/h (0 Bft)
29.08.2016 20:41 16,0 C 16,0 C 94 % 1018,7 hPa 0,0 mm 0,0 km/h (0 Bft) N 0 0 min 0,000 mm 0,0 UV-I 0 W/m 15,0 C 0,0 km/h (0 Bft)
29.08.2016 20:42 16,0 C 16,0 C 95 % 1018,7 hPa 0,0 mm 1,6 km/h (1 Bft) S-SO 157 0 min 0,000 mm 0,0 UV-I 0 W/m 15,2 C 1,6 km/h (1 Bft)
29.08.2016 20:43 16,0 C 16,0 C 94 % 1018,7 hPa 0,0 mm 0,0 km/h (0 Bft) S-SO 157 0 min 0,000 mm 0,0 UV-I 0 W/m 15,0 C 1,6 km/h (1 Bft)
29.08.2016 20:44 16,1 C 16,1 C 95 % 1018,8 hPa 0,0 mm 1,6 km/h (1 Bft) S-SO 157 0 min 0,000 mm 0,0 UV-I 0 W/m 15,3 C 1,6 km/h (1 Bft)
29.08.2016 20:45 16,0 C 16,1 C 95 % 1018,8 hPa 0,0 mm 1,6 km/h (1 Bft) S-SO 157 0 min 0,000 mm 0,0 UV-I 0 W/m 15,2 C 3,2 km/h (1 Bft)
29.08.2016 20:46 16,1 C 16,1 C 94 % 1018,8 hPa 0,0 mm 1,6 km/h (1 Bft) S-SO 157 0 min 0,000 mm 0,0 UV-I 0 W/m 15,1 C 3,2 km/h (1 Bft)
29.08.2016 20:47 16,1 C 16,1 C 94 % 1018,8 hPa 0,0 mm 1,6 km/h (1 Bft) S-SO 157 0 min 0,000 mm 0,0 UV-I 0 W/m 15,1 C 3,2 km/h (1 Bft)
29.08.2016 20:48 16,1 C 16,1 C 94 % 1018,8 hPa 0,0 mm 1,6 km/h (1 Bft) S-SO 157 0 min 0,000 mm 0,0 UV-I 0 W/m 15,1 C 1,6 km/h (1 Bft)
29.08.2016 20:49 16,1 C 16,1 C 94 % 1018,8 hPa 0,0 mm 1,6 km/h (1 Bft) S-SO 157 0 min 0,000 mm 0,0 UV-I 0 W/m 15,1 C 3,2 km/h (1 Bft)
29.08.2016 20:50 16,1 C 16,1 C 94 % 1018,9 hPa 0,0 mm 1,6 km/h (1 Bft) S-SO 157 0 min 0,000 mm 0,0 UV-I 0 W/m 15,1 C 6,4 km/h (2 Bft)
29.08.2016 20:51 16,1 C 16,1 C 93 % 1018,9 hPa 0,0 mm 1,6 km/h (1 Bft) S 180 0 min 0,000 mm 0,0 UV-I 0 W/m 15,0 C 3,2 km/h (1 Bft)
29.08.2016 20:52 16,1 C 16,1 C 93 % 1018,9 hPa 0,0 mm 1,6 km/h (1 Bft) S 180 0 min 0,000 mm 0,0 UV-I 0 W/m 15,0 C 1,6 km/h (1 Bft)
29.08.2016 20:53 16,1 C 16,2 C 93 % 1018,9 hPa 0,0 mm 0,0 km/h (0 Bft) S 180 0 min 0,000 mm 0,0 UV-I 0 W/m 15,0 C 1,6 km/h (1 Bft)
29.08.2016 20:54 16,1 C 16,1 C 93 % 1018,9 hPa 0,0 mm 1,6 km/h (1 Bft) S 180 0 min 0,000 mm 0,0 UV-I 0 W/m 15,0 C 3,2 km/h (1 Bft)
29.08.2016 20:55 16,1 C 16,2 C 93 % 1019,0 hPa 0,0 mm 1,6 km/h (1 Bft) S 180 0 min 0,000 mm 0,0 UV-I 0 W/m 15,0 C 3,2 km/h (1 Bft)
29.08.2016 20:56 16,1 C 16,1 C 93 % 1019,0 hPa 0,0 mm 1,6 km/h (1 Bft) S 180 0 min 0,000 mm 0,0 UV-I 0 W/m 15,0 C 3,2 km/h (1 Bft)
29.08.2016 20:57 16,1 C 16,1 C 94 % 1019,0 hPa 0,0 mm 1,6 km/h (1 Bft) S 180 0 min 0,000 mm 0,0 UV-I 0 W/m 15,1 C 1,6 km/h (1 Bft)
29.08.2016 20:58 16,1 C 16,1 C 94 % 1019,0 hPa 0,0 mm 1,6 km/h (1 Bft) S 180 0 min 0,000 mm 0,0 UV-I 0 W/m 15,1 C 3,2 km/h (1 Bft)
29.08.2016 20:59 16,1 C 16,1 C 94 % 1019,0 hPa 0,0 mm 1,6 km/h (1 Bft) S 180 0 min 0,000 mm 0,0 UV-I 0 W/m 15,1 C 3,2 km/h (1 Bft)
29.08.2016 21:00 16,1 C 16,1 C 94 % 1019,1 hPa 0,0 mm 0,0 km/h (0 Bft) S 180 0 min 0,000 mm 0,0 UV-I 0 W/m 15,1 C 1,6 km/h (1 Bft)
29.08.2016 21:01 16,1 C 16,1 C 94 % 1019,0 hPa 0,0 mm 3,2 km/h (1 Bft) S-SW 202 0 min 0,000 mm 0,0 UV-I 0 W/m 15,1 C 4,8 km/h (1 Bft)
29.08.2016 21:02 16,1 C 16,1 C 94 % 1019,1 hPa 0,0 mm 1,6 km/h (1 Bft) S-SW 202 0 min 0,000 mm 0,0 UV-I 0 W/m 15,1 C 3,2 km/h (1 Bft)
29.08.2016 21:03 16,1 C 16,1 C 94 % 1019,1 hPa 0,0 mm 1,6 km/h (1 Bft) S-SW 202 0 min 0,000 mm 0,0 UV-I 0 W/m 15,1 C 3,2 km/h (1 Bft)
29.08.2016 21:04 16,1 C 16,1 C 94 % 1019,1 hPa 0,0 mm 0,0 km/h (0 Bft) S-SW 202 0 min 0,000 mm 0,0 UV-I 0 W/m 15,1 C 3,2 km/h (1 Bft)
29.08.2016 21:05 16,1 C 16,1 C 94 % 1019,1 hPa 0,0 mm 0,0 km/h (0 Bft) S-SW 202 0 min 0,000 mm 0,0 UV-I 0 W/m 15,1 C 1,6 km/h (1 Bft)
29.08.2016 21:06 16,2 C 16,2 C 93 % 1019,1 hPa 0,0 mm 0,0 km/h (0 Bft) S-SW 202 0 min 0,000 mm 0,0 UV-I 0 W/m 15,1 C 1,6 km/h (1 Bft)
29.08.2016 21:07 16,2 C 16,2 C 93 % 1019,1 hPa 0,0 mm 1,6 km/h (1 Bft) S-SW 202 0 min 0,000 mm 0,0 UV-I 0 W/m 15,1 C 3,2 km/h (1 Bft)
29.08.2016 21:08 16,2 C 16,2 C 93 % 1019,1 hPa 0,0 mm 1,6 km/h (1 Bft) S-SW 202 0 min 0,000 mm 0,0 UV-I 0 W/m 15,1 C 3,2 km/h (1 Bft)
29.08.2016 21:09 16,2 C 16,2 C 93 % 1019,1 hPa 0,0 mm 0,0 km/h (0 Bft) S-SW 202 0 min 0,000 mm 0,0 UV-I 0 W/m 15,1 C 3,2 km/h (1 Bft)
29.08.2016 21:10 16,2 C 16,2 C 93 % 1019,1 hPa 0,0 mm 1,6 km/h (1 Bft) S-SW 202 0 min 0,000 mm 0,0 UV-I 0 W/m 15,1 C 3,2 km/h (1 Bft)
29.08.2016 21:11 16,2 C 16,2 C 93 % 1019,1 hPa 0,0 mm 0,0 km/h (0 Bft) S-SW 202 0 min 0,000 mm 0,0 UV-I 0 W/m 15,1 C 1,6 km/h (1 Bft)
29.08.2016 21:12 16,2 C 16,2 C 93 % 1019,2 hPa 0,0 mm 1,6 km/h (1 Bft) S-SW 202 0 min 0,000 mm 0,0 UV-I 0 W/m 15,1 C 3,2 km/h (1 Bft)
29.08.2016 21:13 16,2 C 16,2 C 93 % 1019,2 hPa 0,0 mm 1,6 km/h (1 Bft) S-SW 202 0 min 0,000 mm 0,0 UV-I 0 W/m 15,1 C 3,2 km/h (1 Bft)
29.08.2016 21:14 16,2 C 16,2 C 93 % 1019,2 hPa 0,0 mm 1,6 km/h (1 Bft) S-SW 202 0 min 0,000 mm 0,0 UV-I 0 W/m 15,1 C 3,2 km/h (1 Bft)
29.08.2016 21:15 16,2 C 16,2 C 93 % 1019,2 hPa 0,0 mm 1,6 km/h (1 Bft) S-SW 202 0 min 0,000 mm 0,0 UV-I 0 W/m 15,1 C 3,2 km/h (1 Bft)
29.08.2016 21:16 16,2 C 16,2 C 93 % 1019,2 hPa 0,0 mm 3,2 km/h (1 Bft) S-SW 202 0 min 0,000 mm 0,0 UV-I 0 W/m 15,1 C 4,8 km/h (1 Bft)
29.08.2016 21:17 16,2 C 16,2 C 93 % 1019,2 hPa 0,0 mm 1,6 km/h (1 Bft) S-SW 202 0 min 0,000 mm 0,0 UV-I 0 W/m 15,1 C 4,8 km/h (1 Bft)
29.08.2016 21:18 16,2 C 16,3 C 93 % 1019,2 hPa 0,0 mm 3,2 km/h (1 Bft) S-SO 157 0 min 0,000 mm 0,0 UV-I 0 W/m 15,1 C 6,4 km/h (2 Bft)
29.08.2016 21:19 16,3 C 16,3 C 93 % 1019,3 hPa 0,0 mm 1,6 km/h (1 Bft) S-SO 157 0 min 0,000 mm 0,0 UV-I 0 W/m 15,2 C 3,2 km/h (1 Bft)
29.08.2016 21:20 16,3 C 16,3 C 93 % 1019,3 hPa 0,0 mm 1,6 km/h (1 Bft) S-SO 157 0 min 0,000 mm 0,0 UV-I 0 W/m 15,2 C 3,2 km/h (1 Bft)
29.08.2016 21:21 16,2 C 16,2 C 93 % 1019,3 hPa 0,0 mm 1,6 km/h (1 Bft) S-SO 157 0 min 0,000 mm 0,0 UV-I 0 W/m 15,1 C 4,8 km/h (1 Bft)
29.08.2016 21:22 16,3 C 16,3 C 93 % 1019,3 hPa 0,0 mm 4,8 km/h (1 Bft) S 180 0 min 0,000 mm 0,0 UV-I 0 W/m 15,2 C 8,0 km/h (2 Bft)
29.08.2016 21:23 16,3 C 16,3 C 93 % 1019,3 hPa 0,0 mm 4,8 km/h (1 Bft) S-SW 202 0 min 0,000 mm 0,0 UV-I 0 W/m 15,2 C 6,4 km/h (2 Bft)
29.08.2016 21:24 16,3 C 16,3 C 93 % 1019,3 hPa 0,0 mm 1,6 km/h (1 Bft) S-SW 202 0 min 0,000 mm 0,0 UV-I 0 W/m 15,2 C 3,2 km/h (1 Bft)
29.08.2016 21:25 16,3 C 16,3 C 93 % 1019,3 hPa 0,0 mm 3,2 km/h (1 Bft) S 180 0 min 0,000 mm 0,0 UV-I 0 W/m 15,2 C 4,8 km/h (1 Bft)
29.08.2016 21:26 16,3 C 16,3 C 92 % 1019,3 hPa 0,0 mm 1,6 km/h (1 Bft) S 180 0 min 0,000 mm 0,0 UV-I 0 W/m 15,0 C 3,2 km/h (1 Bft)
29.08.2016 21:27 16,3 C 16,3 C 93 % 1019,3 hPa 0,0 mm 0,0 km/h (0 Bft) S 180 0 min 0,000 mm 0,0 UV-I 0 W/m 15,2 C 1,6 km/h (1 Bft)
29.08.2016 21:28 16,3 C 16,3 C 93 % 1019,4 hPa 0,0 mm 0,0 km/h (0 Bft) S 180 0 min 0,000 mm 0,0 UV-I 0 W/m 15,2 C 1,6 km/h (1 Bft)
29.08.2016 21:29 16,3 C 16,3 C 93 % 1019,4 hPa 0,0 mm 0,0 km/h (0 Bft) S 180 0 min 0,000 mm 0,0 UV-I 0 W/m 15,2 C 1,6 km/h (1 Bft)
29.08.2016 21:30 16,3 C 16,3 C 93 % 1019,4 hPa 0,0 mm 1,6 km/h (1 Bft) S 180 0 min 0,000 mm 0,0 UV-I 0 W/m 15,2 C 3,2 km/h (1 Bft)
29.08.2016 21:31 16,3 C 16,3 C 93 % 1019,4 hPa 0,0 mm 0,0 km/h (0 Bft) S 180 0 min 0,000 mm 0,0 UV-I 0 W/m 15,2 C 3,2 km/h (1 Bft)
29.08.2016 21:32 16,3 C 16,3 C 92 % 1019,5 hPa 0,0 mm 1,6 km/h (1 Bft) S 180 0 min 0,000 mm 0,0 UV-I 0 W/m 15,0 C 3,2 km/h (1 Bft)
29.08.2016 21:33 16,3 C 16,3 C 92 % 1019,4 hPa 0,0 mm 1,6 km/h (1 Bft) S 180 0 min 0,000 mm 0,0 UV-I 0 W/m 15,0 C 3,2 km/h (1 Bft)
29.08.2016 21:34 16,3 C 16,3 C 93 % 1019,4 hPa 0,0 mm 1,6 km/h (1 Bft) S 180 0 min 0,000 mm 0,0 UV-I 0 W/m 15,2 C 3,2 km/h (1 Bft)
29.08.2016 21:35 16,3 C 16,3 C 93 % 1019,5 hPa 0,0 mm 1,6 km/h (1 Bft) S 180 0 min 0,000 mm 0,0 UV-I 0 W/m 15,2 C 4,8 km/h (1 Bft)
29.08.2016 21:36 16,3 C 16,3 C 92 % 1019,5 hPa 0,0 mm 3,2 km/h (1 Bft) S 180 0 min 0,000 mm 0,0 UV-I 0 W/m 15,0 C 4,8 km/h (1 Bft)
29.08.2016 21:37 16,3 C 16,3 C 92 % 1019,4 hPa 0,0 mm 1,6 km/h (1 Bft) S 180 0 min 0,000 mm 0,0 UV-I 0 W/m 15,0 C 3,2 km/h (1 Bft)
29.08.2016 21:38 16,3 C 16,3 C 93 % 1019,5 hPa 0,0 mm 1,6 km/h (1 Bft) S 180 0 min 0,000 mm 0,0 UV-I 0 W/m 15,2 C 3,2 km/h (1 Bft)
29.08.2016 21:39 16,3 C 16,3 C 93 % 1019,5 hPa 0,0 mm 1,6 km/h (1 Bft) S 180 0 min 0,000 mm 0,0 UV-I 0 W/m 15,2 C 1,6 km/h (1 Bft)
29.08.2016 21:40 16,3 C 16,3 C 93 % 1019,5 hPa 0,0 mm 1,6 km/h (1 Bft) S 180 0 min 0,000 mm 0,0 UV-I 0 W/m 15,2 C 1,6 km/h (1 Bft)
29.08.2016 21:41 16,3 C 16,3 C 92 % 1019,5 hPa 0,0 mm 0,0 km/h (0 Bft) N 0 0 min 0,000 mm 0,0 UV-I 0 W/m 15,0 C 0,0 km/h (0 Bft)
29.08.2016 21:42 16,3 C 16,3 C 93 % 1019,5 hPa 0,0 mm 0,0 km/h (0 Bft) N 0 0 min 0,000 mm 0,0 UV-I 0 W/m 15,2 C 0,0 km/h (0 Bft)
29.08.2016 21:43 16,3 C 16,3 C 93 % 1019,5 hPa 0,0 mm 0,0 km/h (0 Bft) S 180 0 min 0,000 mm 0,0 UV-I 0 W/m 15,2 C 1,6 km/h (1 Bft)
29.08.2016 21:44 16,3 C 16,3 C 93 % 1019,6 hPa 0,0 mm 0,0 km/h (0 Bft) S 180 0 min 0,000 mm 0,0 UV-I 0 W/m 15,2 C 1,6 km/h (1 Bft)
29.08.2016 21:45 16,3 C 16,3 C 93 % 1019,6 hPa 0,0 mm 0,0 km/h (0 Bft) N 0 0 min 0,000 mm 0,0 UV-I 0 W/m 15,2 C 0,0 km/h (0 Bft)
29.08.2016 21:46 16,3 C 16,3 C 93 % 1019,7 hPa 0,0 mm 0,0 km/h (0 Bft) N 0 0 min 0,000 mm 0,0 UV-I 0 W/m 15,2 C 0,0 km/h (0 Bft)
29.08.2016 21:47 16,2 C 16,2 C 93 % 1019,6 hPa 0,0 mm 0,0 km/h (0 Bft) N 0 0 min 0,000 mm 0,0 UV-I 0 W/m 15,1 C 0,0 km/h (0 Bft)
29.08.2016 21:48 16,2 C 16,2 C 93 % 1019,6 hPa 0,0 mm 0,0 km/h (0 Bft) N 0 0 min 0,000 mm 0,0 UV-I 0 W/m 15,1 C 0,0 km/h (0 Bft)
29.08.2016 21:49 16,2 C 16,2 C 93 % 1019,7 hPa 0,0 mm 0,0 km/h (0 Bft) N 0 0 min 0,000 mm 0,0 UV-I 0 W/m 15,1 C 0,0 km/h (0 Bft)
29.08.2016 21:50 16,1 C 16,2 C 94 % 1019,6 hPa 0,0 mm 0,0 km/h (0 Bft) N 0 0 min 0,000 mm 0,0 UV-I 0 W/m 15,1 C 0,0 km/h (0 Bft)
29.08.2016 21:51 16,1 C 16,2 C 93 % 1019,7 hPa 0,0 mm 0,0 km/h (0 Bft) N 0 0 min 0,000 mm 0,0 UV-I 0 W/m 15,0 C 0,0 km/h (0 Bft)
29.08.2016 21:52 16,1 C 16,1 C 93 % 1019,6 hPa 0,0 mm 0,0 km/h (0 Bft) N 0 0 min 0,000 mm 0,0 UV-I 0 W/m 15,0 C 0,0 km/h (0 Bft)
29.08.2016 21:53 16,1 C 16,1 C 93 % 1019,7 hPa 0,0 mm 0,0 km/h (0 Bft) N 0 0 min 0,000 mm 0,0 UV-I 0 W/m 15,0 C 0,0 km/h (0 Bft)
29.08.2016 21:54 16,1 C 16,1 C 93 % 1019,7 hPa 0,0 mm 0,0 km/h (0 Bft) S 180 0 min 0,000 mm 0,0 UV-I 0 W/m 15,0 C 3,2 km/h (1 Bft)
29.08.2016 21:55 16,1 C 16,1 C 94 % 1019,7 hPa 0,0 mm 1,6 km/h (1 Bft) S 180 0 min 0,000 mm 0,0 UV-I 0 W/m 15,1 C 3,2 km/h (1 Bft)
29.08.2016 21:56 16,1 C 16,1 C 94 % 1019,7 hPa 0,0 mm 1,6 km/h (1 Bft) S 180 0 min 0,000 mm 0,0 UV-I 0 W/m 15,1 C 1,6 km/h (1 Bft)
29.08.2016 21:57 16,1 C 16,1 C 94 % 1019,7 hPa 0,0 mm 0,0 km/h (0 Bft) S 180 0 min 0,000 mm 0,0 UV-I 0 W/m 15,1 C 1,6 km/h (1 Bft)
29.08.2016 21:58 16,1 C 16,1 C 94 % 1019,7 hPa 0,0 mm 0,0 km/h (0 Bft) S 180 0 min 0,000 mm 0,0 UV-I 0 W/m 15,1 C 1,6 km/h (1 Bft)
29.08.2016 21:59 16,1 C 16,1 C 94 % 1019,7 hPa 0,0 mm 0,0 km/h (0 Bft) S 180 0 min 0,000 mm 0,0 UV-I 0 W/m 15,1 C 1,6 km/h (1 Bft)
29.08.2016 22:00 16,1 C 16,1 C 94 % 1019,7 hPa 0,0 mm 1,6 km/h (1 Bft) S 180 0 min 0,000 mm 0,0 UV-I 0 W/m 15,1 C 3,2 km/h (1 Bft)
29.08.2016 22:01 16,1 C 16,1 C 94 % 1019,6 hPa 0,0 mm 1,6 km/h (1 Bft) S 180 0 min 0,000 mm 0,0 UV-I 0 W/m 15,1 C 3,2 km/h (1 Bft)
29.08.2016 22:02 16,1 C 16,1 C 94 % 1019,7 hPa 0,0 mm 1,6 km/h (1 Bft) S 180 0 min 0,000 mm 0,0 UV-I 0 W/m 15,1 C 3,2 km/h (1 Bft)
29.08.2016 22:03 16,1 C 16,1 C 94 % 1019,7 hPa 0,0 mm 1,6 km/h (1 Bft) S 180 0 min 0,000 mm 0,0 UV-I 0 W/m 15,1 C 3,2 km/h (1 Bft)
29.08.2016 22:04 16,1 C 16,1 C 94 % 1019,6 hPa 0,0 mm 1,6 km/h (1 Bft) S 180 0 min 0,000 mm 0,0 UV-I 0 W/m 15,1 C 3,2 km/h (1 Bft)
29.08.2016 22:05 16,1 C 16,1 C 94 % 1019,6 hPa 0,0 mm 1,6 km/h (1 Bft) S 180 0 min 0,000 mm 0,0 UV-I 0 W/m 15,1 C 3,2 km/h (1 Bft)
29.08.2016 22:06 16,1 C 16,1 C 93 % 1019,7 hPa 0,0 mm 1,6 km/h (1 Bft) S 180 0 min 0,000 mm 0,0 UV-I 0 W/m 15,0 C 3,2 km/h (1 Bft)
29.08.2016 22:07 16,2 C 16,2 C 93 % 1019,6 hPa 0,0 mm 3,2 km/h (1 Bft) S 180 0 min 0,000 mm 0,0 UV-I 0 W/m 15,1 C 4,8 km/h (1 Bft)
29.08.2016 22:08 16,2 C 16,2 C 93 % 1019,7 hPa 0,0 mm 3,2 km/h (1 Bft) S 180 0 min 0,000 mm 0,0 UV-I 0 W/m 15,1 C 3,2 km/h (1 Bft)
29.08.2016 22:09 16,2 C 16,2 C 93 % 1019,7 hPa 0,0 mm 1,6 km/h (1 Bft) S 180 0 min 0,000 mm 0,0 UV-I 0 W/m 15,1 C 3,2 km/h (1 Bft)
29.08.2016 22:10 16,2 C 16,2 C 93 % 1019,7 hPa 0,0 mm 1,6 km/h (1 Bft) S 180 0 min 0,000 mm 0,0 UV-I 0 W/m 15,1 C 3,2 km/h (1 Bft)
29.08.2016 22:11 16,2 C 16,2 C 93 % 1019,7 hPa 0,0 mm 1,6 km/h (1 Bft) S 180 0 min 0,000 mm 0,0 UV-I 0 W/m 15,1 C 4,8 km/h (1 Bft)
29.08.2016 22:12 16,3 C 16,3 C 93 % 1019,7 hPa 0,0 mm 1,6 km/h (1 Bft) S 180 0 min 0,000 mm 0,0 UV-I 0 W/m 15,2 C 3,2 km/h (1 Bft)
29.08.2016 22:13 16,3 C 16,3 C 93 % 1019,7 hPa 0,0 mm 1,6 km/h (1 Bft) S 180 0 min 0,000 mm 0,0 UV-I 0 W/m 15,2 C 3,2 km/h (1 Bft)
29.08.2016 22:14 16,3 C 16,3 C 93 % 1019,7 hPa 0,0 mm 1,6 km/h (1 Bft) S 180 0 min 0,000 mm 0,0 UV-I 0 W/m 15,2 C 1,6 km/h (1 Bft)
29.08.2016 22:15 16,3 C 16,3 C 93 % 1019,7 hPa 0,0 mm 1,6 km/h (1 Bft) S 180 0 min 0,000 mm 0,0 UV-I 0 W/m 15,2 C 3,2 km/h (1 Bft)
29.08.2016 22:16 16,3 C 16,3 C 92 % 1019,7 hPa 0,0 mm 3,2 km/h (1 Bft) S 180 0 min 0,000 mm 0,0 UV-I 0 W/m 15,0 C 6,4 km/h (2 Bft)
29.08.2016 22:17 16,3 C 16,3 C 92 % 1019,8 hPa 0,0 mm 3,2 km/h (1 Bft) S 180 0 min 0,000 mm 0,0 UV-I 0 W/m 15,0 C 3,2 km/h (1 Bft)
29.08.2016 22:18 16,3 C 16,3 C 92 % 1019,8 hPa 0,0 mm 3,2 km/h (1 Bft) S 180 0 min 0,000 mm 0,0 UV-I 0 W/m 15,0 C 4,8 km/h (1 Bft)
29.08.2016 22:19 16,3 C 16,3 C 92 % 1019,8 hPa 0,0 mm 1,6 km/h (1 Bft) S 180 0 min 0,000 mm 0,0 UV-I 0 W/m 15,0 C 3,2 km/h (1 Bft)
29.08.2016 22:20 16,3 C 16,3 C 92 % 1019,7 hPa 0,0 mm 3,2 km/h (1 Bft) S 180 0 min 0,000 mm 0,0 UV-I 0 W/m 15,0 C 3,2 km/h (1 Bft)
29.08.2016 22:21 16,3 C 16,3 C 92 % 1019,8 hPa 0,0 mm 3,2 km/h (1 Bft) S 180 0 min 0,000 mm 0,0 UV-I 0 W/m 15,0 C 3,2 km/h (1 Bft)
29.08.2016 22:22 16,3 C 16,3 C 92 % 1019,8 hPa 0,0 mm 3,2 km/h (1 Bft) S 180 0 min 0,000 mm 0,0 UV-I 0 W/m 15,0 C 4,8 km/h (1 Bft)
29.08.2016 22:23 16,3 C 16,3 C 92 % 1019,7 hPa 0,0 mm 1,6 km/h (1 Bft) S 180 0 min 0,000 mm 0,0 UV-I 0 W/m 15,0 C 3,2 km/h (1 Bft)
29.08.2016 22:24 16,3 C 16,4 C 92 % 1019,8 hPa 0,0 mm 1,6 km/h (1 Bft) S 180 0 min 0,000 mm 0,0 UV-I 0 W/m 15,0 C 3,2 km/h (1 Bft)
29.08.2016 22:25 16,3 C 16,3 C 92 % 1019,8 hPa 0,0 mm 1,6 km/h (1 Bft) S 180 0 min 0,000 mm 0,0 UV-I 0 W/m 15,0 C 3,2 km/h (1 Bft)
29.08.2016 22:26 16,3 C 16,3 C 92 % 1019,8 hPa 0,0 mm 0,0 km/h (0 Bft) S 180 0 min 0,000 mm 0,0 UV-I 0 W/m 15,0 C 1,6 km/h (1 Bft)
29.08.2016 22:27 16,3 C 16,3 C 93 % 1019,8 hPa 0,0 mm 3,2 km/h (1 Bft) S 180 0 min 0,000 mm 0,0 UV-I 0 W/m 15,2 C 8,0 km/h (2 Bft)
29.08.2016 22:28 16,3 C 16,3 C 93 % 1019,9 hPa 0,0 mm 6,4 km/h (2 Bft) N-NW 337 0 min 0,000 mm 0,0 UV-I 0 W/m 15,2 C 8,0 km/h (2 Bft)
29.08.2016 22:29 16,3 C 16,3 C 93 % 1019,9 hPa 0,0 mm 3,2 km/h (1 Bft) N-NO 22 0 min 0,000 mm 0,0 UV-I 0 W/m 15,2 C 6,4 km/h (2 Bft)
29.08.2016 22:30 16,3 C 16,3 C 93 % 1019,9 hPa 0,0 mm 6,4 km/h (2 Bft) N 360 0 min 0,000 mm 0,0 UV-I 0 W/m 15,2 C 8,0 km/h (2 Bft)
29.08.2016 22:31 16,3 C 16,3 C 93 % 1019,9 hPa 0,0 mm 1,6 km/h (1 Bft) N 360 0 min 0,000 mm 0,0 UV-I 0 W/m 15,2 C 3,2 km/h (1 Bft)
29.08.2016 22:32 16,3 C 16,3 C 92 % 1019,9 hPa 0,0 mm 1,6 km/h (1 Bft) N 360 0 min 0,000 mm 0,0 UV-I 0 W/m 15,0 C 3,2 km/h (1 Bft)
29.08.2016 22:33 16,3 C 16,3 C 92 % 1019,9 hPa 0,0 mm 4,8 km/h (1 Bft) NO 45 0 min 0,000 mm 0,0 UV-I 0 W/m 15,0 C 8,0 km/h (2 Bft)
29.08.2016 22:34 16,4 C 16,4 C 92 % 1019,9 hPa 0,0 mm 4,8 km/h (1 Bft) N 360 0 min 0,000 mm 0,0 UV-I 0 W/m 15,1 C 6,4 km/h (2 Bft)
29.08.2016 22:35 16,3 C 16,4 C 91 % 1019,9 hPa 0,0 mm 4,8 km/h (1 Bft) N 360 0 min 0,000 mm 0,0 UV-I 0 W/m 14,8 C 6,4 km/h (2 Bft)
29.08.2016 22:36 16,4 C 16,4 C 91 % 1019,9 hPa 0,0 mm 4,8 km/h (1 Bft) N 360 0 min 0,000 mm 0,0 UV-I 0 W/m 14,9 C 9,7 km/h (2 Bft)
29.08.2016 22:37 16,4 C 16,4 C 91 % 1020,0 hPa 0,0 mm 4,8 km/h (1 Bft) O-NO 67 0 min 0,000 mm 0,0 UV-I 0 W/m 14,9 C 9,7 km/h (2 Bft)
29.08.2016 22:38 16,3 C 16,4 C 91 % 1019,9 hPa 0,2 mm 4,8 km/h (1 Bft) O-NO 67 0 min 0,000 mm 0,0 UV-I 0 W/m 14,8 C 6,4 km/h (2 Bft)
29.08.2016 22:39 16,3 C 16,3 C 91 % 1019,9 hPa 0,4 mm 3,2 km/h (1 Bft) O-NO 67 0 min 0,000 mm 0,0 UV-I 0 W/m 14,8 C 4,8 km/h (1 Bft)
29.08.2016 22:40 16,3 C 16,3 C 91 % 1019,9 hPa 0,6 mm 3,2 km/h (1 Bft) O-NO 67 0 min 0,000 mm 0,0 UV-I 0 W/m 14,8 C 4,8 km/h (1 Bft)
29.08.2016 22:41 16,2 C 16,3 C 92 % 1019,9 hPa 0,2 mm 3,2 km/h (1 Bft) O-NO 67 0 min 0,000 mm 0,0 UV-I 0 W/m 14,9 C 4,8 km/h (1 Bft)
29.08.2016 22:42 16,1 C 16,2 C 92 % 1019,9 hPa 0,6 mm 1,6 km/h (1 Bft) SO 135 0 min 0,000 mm 0,0 UV-I 0 W/m 14,8 C 3,2 km/h (1 Bft)
29.08.2016 22:43 16,1 C 16,1 C 92 % 1020,0 hPa 0,8 mm 3,2 km/h (1 Bft) SO 135 0 min 0,000 mm 0,0 UV-I 0 W/m 14,8 C 6,4 km/h (2 Bft)
29.08.2016 22:44 15,9 C 16,1 C 92 % 1020,0 hPa 0,8 mm 3,2 km/h (1 Bft) SO 135 0 min 0,000 mm 0,0 UV-I 0 W/m 14,6 C 4,8 km/h (1 Bft)
29.08.2016 22:45 15,9 C 15,9 C 92 % 1020,0 hPa 0,8 mm 3,2 km/h (1 Bft) SO 135 0 min 0,000 mm 0,0 UV-I 0 W/m 14,6 C 4,8 km/h (1 Bft)
29.08.2016 22:46 15,8 C 15,9 C 92 % 1020,0 hPa 1,6 mm 1,6 km/h (1 Bft) O-SO 112 0 min 0,000 mm 0,0 UV-I 0 W/m 14,5 C 3,2 km/h (1 Bft)
29.08.2016 22:47 15,8 C 15,8 C 93 % 1020,0 hPa 1,8 mm 4,8 km/h (1 Bft) O-SO 112 0 min 0,000 mm 0,0 UV-I 0 W/m 14,7 C 11,3 km/h (2 Bft)
29.08.2016 22:48 15,7 C 15,8 C 93 % 1019,8 hPa 1,6 mm 9,7 km/h (2 Bft) O 90 0 min 0,000 mm 0,0 UV-I 0 W/m 14,6 C 14,5 km/h (3 Bft)
29.08.2016 22:49 15,7 C 15,7 C 93 % 1019,8 hPa 0,6 mm 8,0 km/h (2 Bft) O-SO 112 0 min 0,000 mm 0,0 UV-I 0 W/m 14,6 C 11,3 km/h (2 Bft)
29.08.2016 22:50 15,6 C 15,6 C 93 % 1019,9 hPa 0,4 mm 3,2 km/h (1 Bft) SO 135 0 min 0,000 mm 0,0 UV-I 0 W/m 14,5 C 8,0 km/h (2 Bft)
29.08.2016 22:51 15,6 C 15,6 C 93 % 1019,9 hPa 0,0 mm 3,2 km/h (1 Bft) S-SW 202 0 min 0,000 mm 0,0 UV-I 0 W/m 14,5 C 6,4 km/h (2 Bft)
29.08.2016 22:52 15,5 C 15,5 C 94 % 1020,0 hPa 0,2 mm 1,6 km/h (1 Bft) W-SW 247 0 min 0,000 mm 0,0 UV-I 0 W/m 14,5 C 3,2 km/h (1 Bft)
29.08.2016 22:53 15,4 C 15,4 C 94 % 1020,0 hPa 0,2 mm 1,6 km/h (1 Bft) S-SW 202 0 min 0,000 mm 0,0 UV-I 0 W/m 14,4 C 4,8 km/h (1 Bft)
29.08.2016 22:54 15,4 C 15,4 C 94 % 1020,0 hPa 0,0 mm 3,2 km/h (1 Bft) S 180 0 min 0,000 mm 0,0 UV-I 0 W/m 14,4 C 3,2 km/h (1 Bft)
29.08.2016 22:55 15,4 C 15,4 C 94 % 1020,0 hPa 0,0 mm 3,2 km/h (1 Bft) S 180 0 min 0,000 mm 0,0 UV-I 0 W/m 14,4 C 4,8 km/h (1 Bft)
29.08.2016 22:56 15,4 C 15,4 C 94 % 1020,0 hPa 0,0 mm 3,2 km/h (1 Bft) SO 135 0 min 0,000 mm 0,0 UV-I 0 W/m 14,4 C 4,8 km/h (1 Bft)
29.08.2016 22:57 15,4 C 15,4 C 94 % 1020,0 hPa 0,0 mm 3,2 km/h (1 Bft) O-SO 112 0 min 0,000 mm 0,0 UV-I 0 W/m 14,4 C 4,8 km/h (1 Bft)
29.08.2016 22:58 15,3 C 15,3 C 94 % 1020,0 hPa 0,0 mm 4,8 km/h (1 Bft) O-SO 112 0 min 0,000 mm 0,0 UV-I 0 W/m 14,3 C 4,8 km/h (1 Bft)
29.08.2016 23:00 15,3 C 15,3 C 95 % 1020,0 hPa 0,0 mm 2,3 km/h (1 Bft) O-SO 119 0 min 0,000 mm 0,0 UV-I 0 W/m 14,5 C 3,2 km/h (1 Bft)
29.08.2016 23:01 15,3 C 15,3 C 95 % 1020,0 hPa 0,0 mm 2,3 km/h (1 Bft) O-SO 119 0 min 0,000 mm 0,0 UV-I 0 W/m 14,5 C 3,2 km/h (1 Bft)
29.08.2016 23:02 15,3 C 15,3 C 95 % 1020,0 hPa 0,0 mm 2,1 km/h (1 Bft) O-SO 119 0 min 0,000 mm 0,0 UV-I 0 W/m 14,5 C 3,2 km/h (1 Bft)
29.08.2016 23:03 15,3 C 15,3 C 95 % 1020,0 hPa 0,0 mm 2,0 km/h (1 Bft) O-SO 119 0 min 0,000 mm 0,0 UV-I 0 W/m 14,5 C 3,2 km/h (1 Bft)
29.08.2016 23:04 15,3 C 15,3 C 95 % 1020,0 hPa 0,0 mm 1,3 km/h (1 Bft) O-SO 119 0 min 0,000 mm 0,0 UV-I 0 W/m 14,5 C 3,2 km/h (1 Bft)
29.08.2016 23:05 15,3 C 15,3 C 95 % 1020,1 hPa 0,2 mm 2,2 km/h (1 Bft) O-SO 119 0 min 0,000 mm 0,0 UV-I 0 W/m 14,5 C 3,2 km/h (1 Bft)
29.08.2016 23:06 15,3 C 15,3 C 95 % 1020,1 hPa 0,2 mm 2,3 km/h (1 Bft) O-SO 119 0 min 0,000 mm 0,0 UV-I 0 W/m 14,5 C 3,2 km/h (1 Bft)
29.08.2016 23:07 15,3 C 15,3 C 95 % 1020,1 hPa 0,2 mm 2,7 km/h (1 Bft) O-SO 119 0 min 0,000 mm 0,0 UV-I 0 W/m 14,5 C 3,2 km/h (1 Bft)
29.08.2016 23:08 15,3 C 15,3 C 95 % 1020,2 hPa 0,2 mm 2,6 km/h (1 Bft) O-SO 119 0 min 0,000 mm 0,0 UV-I 0 W/m 14,5 C 3,2 km/h (1 Bft)
29.08.2016 23:09 15,3 C 15,3 C 95 % 1020,3 hPa 0,0 mm 1,9 km/h (1 Bft) O-SO 119 0 min 0,000 mm 0,0 UV-I 0 W/m 14,5 C 3,2 km/h (1 Bft)
29.08.2016 23:10 15,3 C 15,3 C 95 % 1020,3 hPa 0,2 mm 2,3 km/h (1 Bft) O-SO 119 0 min 0,000 mm 0,0 UV-I 0 W/m 14,5 C 3,2 km/h (1 Bft)
29.08.2016 23:11 15,3 C 15,3 C 95 % 1020,3 hPa 0,2 mm 1,1 km/h (1 Bft) O-SO 119 0 min 0,000 mm 0,0 UV-I 0 W/m 14,5 C 1,6 km/h (1 Bft)
29.08.2016 23:12 15,3 C 15,3 C 95 % 1020,3 hPa 0,0 mm 1,7 km/h (1 Bft) O-SO 119 0 min 0,000 mm 0,0 UV-I 0 W/m 14,5 C 3,2 km/h (1 Bft)
29.08.2016 23:13 15,3 C 15,3 C 95 % 1020,3 hPa 0,0 mm 0,5 km/h (0 Bft) O-SO 119 0 min 0,000 mm 0,0 UV-I 0 W/m 14,5 C 1,6 km/h (1 Bft)
29.08.2016 23:14 15,3 C 15,3 C 95 % 1020,5 hPa 0,4 mm 1,6 km/h (1 Bft) O-SO 119 0 min 0,000 mm 0,0 UV-I 0 W/m 14,5 C 3,2 km/h (1 Bft)
29.08.2016 23:15 15,3 C 15,3 C 95 % 1020,4 hPa 0,6 mm 0,0 km/h (0 Bft) O-SO 119 0 min 0,000 mm 0,0 UV-I 0 W/m 14,5 C 0,0 km/h (0 Bft)
29.08.2016 23:16 15,3 C 15,3 C 95 % 1020,5 hPa 0,4 mm 1,1 km/h (1 Bft) O-SO 119 0 min 0,000 mm 0,0 UV-I 0 W/m 14,5 C 4,8 km/h (1 Bft)
29.08.2016 23:17 15,3 C 15,3 C 95 % 1020,5 hPa 0,4 mm 4,2 km/h (1 Bft) S-SO 150 0 min 0,000 mm 0,0 UV-I 0 W/m 14,5 C 4,8 km/h (1 Bft)
29.08.2016 23:18 15,3 C 15,3 C 95 % 1020,4 hPa 0,2 mm 3,0 km/h (1 Bft) S-SO 150 0 min 0,000 mm 0,0 UV-I 0 W/m 14,5 C 4,8 km/h (1 Bft)
29.08.2016 23:19 15,3 C 15,3 C 95 % 1020,5 hPa 0,0 mm 3,0 km/h (1 Bft) SO 128 0 min 0,000 mm 0,0 UV-I 0 W/m 14,5 C 4,8 km/h (1 Bft)
29.08.2016 23:20 15,3 C 15,3 C 95 % 1020,5 hPa 0,0 mm 0,6 km/h (0 Bft) SO 128 0 min 0,000 mm 0,0 UV-I 0 W/m 14,5 C 1,6 km/h (1 Bft)
29.08.2016 23:21 15,3 C 15,3 C 95 % 1020,5 hPa 0,0 mm 1,1 km/h (1 Bft) SO 128 0 min 0,000 mm 0,0 UV-I 0 W/m 14,5 C 3,2 km/h (1 Bft)
29.08.2016 23:22 15,3 C 15,3 C 95 % 1020,5 hPa 0,0 mm 1,5 km/h (1 Bft) NO 42 0 min 0,000 mm 0,0 UV-I 0 W/m 14,5 C 3,2 km/h (1 Bft)
29.08.2016 23:23 15,3 C 15,3 C 95 % 1020,5 hPa 0,0 mm 6,8 km/h (2 Bft) N-NW 340 0 min 0,000 mm 0,0 UV-I 0 W/m 14,5 C 9,7 km/h (2 Bft)
29.08.2016 23:24 15,3 C 15,3 C 95 % 1020,5 hPa 0,2 mm 4,0 km/h (1 Bft) O 89 0 min 0,000 mm 0,0 UV-I 0 W/m 14,5 C 8,0 km/h (2 Bft)
29.08.2016 23:25 15,3 C 15,4 C 95 % 1020,5 hPa 0,0 mm 4,2 km/h (1 Bft) NO 42 0 min 0,000 mm 0,0 UV-I 0 W/m 14,5 C 6,4 km/h (2 Bft)
29.08.2016 23:26 15,4 C 15,4 C 95 % 1020,5 hPa 0,0 mm 2,6 km/h (1 Bft) N-NO 29 0 min 0,000 mm 0,0 UV-I 0 W/m 14,6 C 6,4 km/h (2 Bft)
29.08.2016 23:27 15,3 C 15,4 C 95 % 1020,5 hPa 0,0 mm 3,1 km/h (1 Bft) O 86 0 min 0,000 mm 0,0 UV-I 0 W/m 14,5 C 4,8 km/h (1 Bft)
29.08.2016 23:28 15,3 C 15,4 C 95 % 1020,4 hPa 0,2 mm 3,6 km/h (1 Bft) O-NO 72 0 min 0,000 mm 0,0 UV-I 0 W/m 14,5 C 6,4 km/h (2 Bft)
29.08.2016 23:29 15,3 C 15,3 C 95 % 1020,4 hPa 0,0 mm 2,7 km/h (1 Bft) O-SO 121 0 min 0,000 mm 0,0 UV-I 0 W/m 14,5 C 3,2 km/h (1 Bft)
29.08.2016 23:30 15,3 C 15,4 C 94 % 1020,4 hPa 0,2 mm 3,8 km/h (1 Bft) S-SO 155 0 min 0,000 mm 0,0 UV-I 0 W/m 14,3 C 4,8 km/h (1 Bft)
29.08.2016 23:31 15,3 C 15,4 C 94 % 1020,4 hPa 0,2 mm 3,5 km/h (1 Bft) S-SO 155 0 min 0,000 mm 0,0 UV-I 0 W/m 14,3 C 4,8 km/h (1 Bft)
29.08.2016 23:32 15,3 C 15,3 C 94 % 1020,4 hPa 0,0 mm 2,5 km/h (1 Bft) S-SO 155 0 min 0,000 mm 0,0 UV-I 0 W/m 14,3 C 3,2 km/h (1 Bft)
29.08.2016 23:33 15,4 C 15,4 C 94 % 1020,4 hPa 0,4 mm 1,7 km/h (1 Bft) S-SO 155 0 min 0,000 mm 0,0 UV-I 0 W/m 14,4 C 3,2 km/h (1 Bft)
29.08.2016 23:34 15,3 C 15,4 C 95 % 1020,4 hPa 0,2 mm 2,0 km/h (1 Bft) O-SO 113 0 min 0,000 mm 0,0 UV-I 0 W/m 14,5 C 3,2 km/h (1 Bft)
29.08.2016 23:35 15,3 C 15,3 C 95 % 1020,4 hPa 0,4 mm 1,9 km/h (1 Bft) O-SO 113 0 min 0,000 mm 0,0 UV-I 0 W/m 14,5 C 3,2 km/h (1 Bft)
29.08.2016 23:36 15,3 C 15,3 C 95 % 1020,4 hPa 0,2 mm 0,5 km/h (0 Bft) O-SO 113 0 min 0,000 mm 0,0 UV-I 0 W/m 14,5 C 1,6 km/h (1 Bft)
29.08.2016 23:37 15,3 C 15,3 C 95 % 1020,4 hPa 0,2 mm 0,0 km/h (0 Bft) O-SO 113 0 min 0,000 mm 0,0 UV-I 0 W/m 14,5 C 0,0 km/h (0 Bft)
29.08.2016 23:38 15,3 C 15,3 C 95 % 1020,5 hPa 0,2 mm 0,0 km/h (0 Bft) O-SO 113 0 min 0,000 mm 0,0 UV-I 0 W/m 14,5 C 0,0 km/h (0 Bft)
29.08.2016 23:39 15,3 C 15,3 C 95 % 1020,5 hPa 0,2 mm 1,1 km/h (1 Bft) O-SO 114 0 min 0,000 mm 0,0 UV-I 0 W/m 14,5 C 1,6 km/h (1 Bft)
29.08.2016 23:40 15,3 C 15,3 C 95 % 1020,5 hPa 0,2 mm 1,5 km/h (1 Bft) O-SO 114 0 min 0,000 mm 0,0 UV-I 0 W/m 14,5 C 1,6 km/h (1 Bft)
29.08.2016 23:41 15,2 C 15,3 C 95 % 1020,5 hPa 0,0 mm 2,2 km/h (1 Bft) S-SW 205 0 min 0,000 mm 0,0 UV-I 0 W/m 14,4 C 3,2 km/h (1 Bft)
29.08.2016 23:42 15,3 C 15,3 C 95 % 1020,5 hPa 0,2 mm 3,8 km/h (1 Bft) SW 217 0 min 0,000 mm 0,0 UV-I 0 W/m 14,5 C 4,8 km/h (1 Bft)
29.08.2016 23:43 15,3 C 15,3 C 95 % 1020,5 hPa 0,2 mm 2,5 km/h (1 Bft) SW 217 0 min 0,000 mm 0,0 UV-I 0 W/m 14,5 C 4,8 km/h (1 Bft)
29.08.2016 23:44 15,3 C 15,3 C 95 % 1020,5 hPa 0,0 mm 1,8 km/h (1 Bft) SW 217 0 min 0,000 mm 0,0 UV-I 0 W/m 14,5 C 3,2 km/h (1 Bft)
29.08.2016 23:45 15,2 C 15,3 C 95 % 1020,5 hPa 0,2 mm 0,5 km/h (0 Bft) SW 217 0 min 0,000 mm 0,0 UV-I 0 W/m 14,4 C 1,6 km/h (1 Bft)
29.08.2016 23:46 15,3 C 15,3 C 95 % 1020,5 hPa 0,0 mm 0,8 km/h (0 Bft) SW 217 0 min 0,000 mm 0,0 UV-I 0 W/m 14,5 C 1,6 km/h (1 Bft)
29.08.2016 23:47 15,2 C 15,3 C 95 % 1020,5 hPa 0,2 mm 0,5 km/h (0 Bft) SW 217 0 min 0,000 mm 0,0 UV-I 0 W/m 14,4 C 1,6 km/h (1 Bft)
29.08.2016 23:48 15,2 C 15,3 C 95 % 1020,5 hPa 0,0 mm 0,0 km/h (0 Bft) SW 217 0 min 0,000 mm 0,0 UV-I 0 W/m 14,4 C 0,0 km/h (0 Bft)
29.08.2016 23:49 15,2 C 15,2 C 95 % 1020,5 hPa 0,0 mm 0,9 km/h (0 Bft) SW 217 0 min 0,000 mm 0,0 UV-I 0 W/m 14,4 C 1,6 km/h (1 Bft)
29.08.2016 23:50 15,2 C 15,3 C 95 % 1020,4 hPa 0,2 mm 1,6 km/h (1 Bft) SW 217 0 min 0,000 mm 0,0 UV-I 0 W/m 14,4 C 1,6 km/h (1 Bft)
29.08.2016 23:51 15,2 C 15,2 C 95 % 1020,5 hPa 0,0 mm 1,4 km/h (1 Bft) SW 216 0 min 0,000 mm 0,0 UV-I 0 W/m 14,4 C 3,2 km/h (1 Bft)
29.08.2016 23:52 15,2 C 15,3 C 95 % 1020,5 hPa 0,0 mm 3,2 km/h (1 Bft) S-SW 205 0 min 0,000 mm 0,0 UV-I 0 W/m 14,4 C 4,8 km/h (1 Bft)
29.08.2016 23:53 15,2 C 15,3 C 95 % 1020,5 hPa 0,0 mm 2,1 km/h (1 Bft) S-SW 205 0 min 0,000 mm 0,0 UV-I 0 W/m 14,4 C 3,2 km/h (1 Bft)
29.08.2016 23:54 15,2 C 15,2 C 95 % 1020,4 hPa 0,0 mm 1,7 km/h (1 Bft) S-SW 205 0 min 0,000 mm 0,0 UV-I 0 W/m 14,4 C 3,2 km/h (1 Bft)
29.08.2016 23:55 15,2 C 15,2 C 95 % 1020,4 hPa 0,0 mm 0,0 km/h (0 Bft) S-SW 205 0 min 0,000 mm 0,0 UV-I 0 W/m 14,4 C 0,0 km/h (0 Bft)
29.08.2016 23:56 15,2 C 15,2 C 95 % 1020,4 hPa 0,0 mm 0,1 km/h (0 Bft) S-SW 205 0 min 0,000 mm 0,0 UV-I 0 W/m 14,4 C 1,6 km/h (1 Bft)
29.08.2016 23:57 15,2 C 15,2 C 95 % 1020,5 hPa 0,2 mm 0,1 km/h (0 Bft) S-SW 205 0 min 0,000 mm 0,0 UV-I 0 W/m 14,4 C 1,6 km/h (1 Bft)
29.08.2016 23:58 15,2 C 15,2 C 95 % 1020,5 hPa 0,0 mm 0,0 km/h (0 Bft) S-SW 205 0 min 0,000 mm 0,0 UV-I 0 W/m 14,4 C 0,0 km/h (0 Bft)
29.08.2016 23:59 15,2 C 15,3 C 95 % 1020,5 hPa 0,0 mm 0,0 km/h (0 Bft) S-SW 205 0 min 0,000 mm 0,0 UV-I 0 W/m 14,4 C 0,0 km/h (0 Bft)
_ Min-Zeit 23:59 23:58 05:03 05:49 - 23:59 - - - - - - 05:03 23:59
Minimum _ 15,2 C 15,2 C 71 % 1014,8 hPa - 0,0 km/h (0 Bft) - - - - - - 13,5 C 0,0 km/h (0 Bft)
_ Max-Zeit 03:02 03:03 23:59 23:59 22:47 22:48 - - 15:34 00:03 15:32 15:32 16:28 22:48
Maximum _ 20,2 C 20,2 C 95 % 1020,5 hPa 1,8 mm 9,7 km/h
O (2 Bft)
- - 1 min 3,277 mm 4,3 UV-I 721 W/m 17,5 C 14,5 km/h
O-SO (3 Bft)
Durchschnitt _ 17,2 C 17,2 C 88 % 1017,2 hPa #25,6 mm 1,8 km/h (1 Bft) S - #18 min. #3,378 mm 1,3 UV-I 54 W/m 15,1 C 3,2 km/h (1 Bft)